[[{"header":{"parameterUnit":"m.s-1","parameterCategory":1,"la1":30.6,"la2":28.766,"lo1":-90.7593,"lo2":-88.6598,"dy":0.0162,"dx":0.0183,"nx":116,"ny":114,"refTime":"2023-05-29T12:00:00:Z","depth":0,"parameterNumber":2,"parameterNumberName":"U-component_of_WINDS"},"data":[0.0,0.0,0.0,0.0,0.0,0.0,0.0,0.0,0.0,0.0,0.0,0.0,0.0,0.0,0.0,0.0,0.0,0.0,0.0,0.0,0.0,0.0,0.0,0.0,0.0,0.0,0.0,0.0,0.0,0.0,0.0,0.0,0.0,0.0,0.0,0.0,0.0,0.0,0.0,0.0,0.0,0.0,0.0,0.0,0.0,0.0,0.0,0.0,0.0,0.0,0.0,0.0,0.0,0.0,0.0,0.0,0.0,0.0,0.0,0.0,0.0,0.0,0.0,0.0,0.0,0.0,0.0,0.0,0.0,0.0,0.0,0.0,0.0,0.0,0.0,0.0,0.0,0.0,0.0,0.0,0.0,0.0,0.0,0.0,0.0,0.0,0.0,0.0,0.0,0.0,0.0,0.0,0.0,0.0,0.0,0.0,0.0,0.0,0.0,0.0,0.0,0.0,0.0,0.0,0.0,0.0,0.0,0.0,0.0,0.0,0.0,0.0,0.0,0.0,0.0,0.0,0.0,0.0,0.0,0.0,0.0,0.0,0.0,0.0,0.0,0.0,0.0,0.0,0.0,0.0,0.0,0.0,0.0,0.0,0.0,0.0,0.0,0.0,0.0,0.0,0.0,0.0,0.0,0.0,0.0,0.0,0.0,0.0,0.0,0.0,0.0,0.0,0.0,0.0,0.0,0.0,0.0,0.0,0.0,0.0,0.0,0.0,0.0,0.0,0.0,0.0,0.0,0.0,0.0,0.0,0.0,0.0,0.0,0.0,0.0,0.0,0.0,0.0,0.0,0.0,0.0,0.0,0.0,0.0,0.0,0.0,0.0,0.0,0.0,0.0,0.0,0.0,0.0,0.0,0.0,0.0,0.0,0.0,0.0,0.0,0.0,0.0,0.0,0.0,0.0,0.0,0.0,0.0,0.0,0.0,0.0,0.0,0.0,0.0,0.0,0.0,0.0,0.0,0.0,0.0,0.0,0.0,0.0,0.0,0.0,0.0,0.0,0.0,0.0,0.0,0.0,0.0,0.0,0.0,0.0,0.0,0.0,0.0,0.0,0.0,0.0,0.0,0.0,0.0,0.0,0.0,0.0,0.0,0.0,0.0,0.0,0.0,0.0,0.0,0.0,0.0,0.0,0.0,0.0,0.0,0.0,0.0,0.0,0.0,0.0,0.0,0.0,0.0,0.0,0.0,0.0,0.0,0.0,0.0,0.0,0.0,0.0,0.0,0.0,0.0,0.0,0.0,0.0,0.0,0.0,0.0,0.0,0.0,0.0,0.0,0.0,0.0,0.0,0.0,0.0,0.0,0.0,0.0,0.0,0.0,0.0,0.0,0.0,0.0,0.0,0.0,0.0,0.0,0.0,0.0,0.0,0.0,0.0,0.0,0.0,0.0,0.0,0.0,0.0,0.0,0.0,0.0,0.0,0.0,0.0,0.0,0.0,0.0,0.0,0.0,0.0,0.0,0.0,0.0,0.0,0.0,0.0,0.0,0.0,0.0,0.0,0.0,0.0,0.0,0.0,0.0,0.0,0.0,0.0,0.0,0.0,0.0,0.0,0.0,0.0,0.0,0.0,0.0,0.0,0.0,0.0,0.0,0.0,0.0,0.0,0.0,0.0,0.0,0.0,0.0,0.0,0.0,0.0,0.0,0.0,0.0,0.0,0.0,0.0,0.0,0.0,0.0,0.0,0.0,0.0,0.0,0.0,0.0,0.0,0.0,0.0,0.0,0.0,0.0,0.0,0.0,0.0,0.0,0.0,0.0,0.0,0.0,0.0,0.0,0.0,0.0,0.0,0.0,0.0,0.0,0.0,0.0,0.0,0.0,0.0,0.0,0.0,0.0,0.0,0.0,0.0,0.0,0.0,0.0,0.0,0.0,0.0,0.0,0.0,0.0,0.0,0.0,0.0,0.0,0.0,0.0,0.0,0.0,0.0,0.0,0.0,0.0,0.0,0.0,0.0,0.0,0.0,0.0,0.0,0.0,0.0,0.0,0.0,0.0,0.0,0.0,0.0,0.0,0.0,0.0,0.0,0.0,0.0,0.0,0.0,0.0,0.0,0.0,0.0,0.0,0.0,0.0,0.0,0.0,0.0,0.0,0.0,0.0,0.0,0.0,0.0,0.0,0.0,0.0,0.0,0.0,0.0,0.0,0.0,0.0,0.0,0.0,0.0,0.0,0.0,0.0,0.0,0.0,0.0,0.0,0.0,0.0,0.0,0.0,0.0,0.0,0.0,0.0,0.0,0.0,0.0,0.0,0.0,0.0,0.0,0.0,0.0,0.0,0.0,0.0,0.0,0.0,0.0,0.0,0.0,0.0,0.0,0.0,0.0,0.0,0.0,0.0,0.0,0.0,0.0,0.0,0.0,0.0,0.0,0.0,0.0,0.0,0.0,0.0,0.0,0.0,0.0,0.0,0.0,0.0,0.0,0.0,0.0,0.0,0.0,0.0,0.0,0.0,0.0,0.0,0.0,0.0,0.0,0.0,0.0,0.0,0.0,0.0,0.0,0.0,0.0,0.0,0.0,0.0,0.0,0.0,0.0,0.0,0.0,0.0,0.0,0.0,0.0,0.0,0.0,0.0,0.0,0.0,0.0,0.0,0.0,0.0,0.0,0.0,0.0,0.0,0.0,0.0,0.0,0.0,0.0,0.0,0.0,0.0,0.0,0.0,0.0,0.0,0.0,0.0,0.0,0.0,0.0,0.0,0.0,0.0,0.0,0.0,0.0,0.0,0.0,0.0,0.0,0.0,0.0,0.0,0.0,0.0,0.0,0.0,0.0,0.0,0.0,0.0,0.0,0.0,0.0,0.0,0.0,0.0,0.0,0.0,0.0,0.0,0.0,0.0,0.0,0.0,0.0,0.0,0.0,0.0,0.0,0.0,0.0,0.0,0.0,0.0,0.0,0.0,0.0,0.0,0.0,0.0,0.0,0.0,0.0,0.0,0.0,0.0,0.0,0.0,0.0,0.0,0.0,0.0,0.0,0.0,0.0,0.0,0.0,0.0,0.0,0.0,0.0,0.0,0.0,0.0,0.0,0.0,0.0,0.0,0.0,0.0,0.0,0.0,0.0,0.0,0.0,0.0,0.0,0.0,0.0,0.0,0.0,0.0,0.0,0.0,0.0,0.0,0.0,0.0,0.0,0.0,0.0,0.0,0.0,0.0,0.0,0.0,0.0,0.0,0.0,0.0,0.0,0.0,0.0,0.0,0.0,0.0,0.0,0.0,0.0,0.0,0.0,0.0,0.0,0.0,0.0,0.0,0.0,0.0,0.0,0.0,0.0,0.0,0.0,0.0,0.0,0.0,0.0,0.0,0.0,0.0,0.0,0.0,0.0,0.0,0.0,0.0,0.0,0.0,0.0,0.0,0.0,0.0,0.0,0.0,0.0,0.0,0.0,0.0,0.0,0.0,0.0,0.0,0.0,0.0,0.0,0.0,0.0,0.0,0.0,0.0,0.0,0.0,0.0,0.0,0.0,0.0,0.0,0.0,0.0,0.0,0.0,0.0,0.0,0.0,0.0,0.0,0.0,0.0,0.0,0.0,0.0,0.0,0.0,0.0,0.0,0.0,0.0,0.0,0.0,0.0,0.0,0.0,0.0,0.0,0.0,0.0,0.0,0.0,0.0,0.0,0.0,0.0,0.0,0.0,0.0,0.0,0.0,0.0,0.0,0.0,0.0,0.0,0.0,0.0,0.0,0.0,0.0,0.0,0.0,0.0,0.0,0.0,0.0,0.0,0.0,0.0,0.0,0.0,0.0,0.0,0.0,0.0,0.0,0.0,0.0,0.0,0.0,0.0,0.0,0.0,0.0,0.0,0.0,0.0,0.0,0.0,0.0,0.0,0.0,0.0,0.0,0.0,0.0,0.0,0.0,0.0,0.0,0.0,0.0,0.0,0.0,0.0,0.0,0.0,0.0,0.0,0.0,0.0,0.0,0.0,0.0,0.0,0.0,0.0,0.0,0.0,0.0,0.0,0.0,0.0,0.0,0.0,0.0,0.0,0.0,0.0,0.0,0.0,0.0,0.0,0.0,0.0,0.0,0.0,0.0,0.0,0.0,0.0,0.0,0.0,0.0,0.0,0.0,0.0,0.0,0.0,0.0,0.0,0.0,0.0,0.0,0.0,0.0,0.0,0.0,0.0,0.0,0.0,0.0,0.0,0.0,0.0,0.0,0.0,0.0,0.0,0.0,0.0,0.0,0.0,0.0,0.0,0.0,0.0,0.0,0.0,0.0,0.0,0.0,0.0,0.0,0.0,0.0,0.0,0.0,0.0,0.0,0.0,0.0,0.0,0.0,0.0,0.0,0.0,0.0,0.0,0.0,0.0,0.0,0.0,0.0,0.0,0.0,0.0,0.0,0.0,0.0,0.0,0.0,0.0,0.0,0.0,0.0,0.0,0.0,0.0,0.0,0.0,0.0,0.0,0.0,0.0,0.0,0.0,0.0,0.0,0.0,0.0,0.0,0.0,0.0,0.0,0.0,0.0,0.0,0.0,0.0,0.0,0.0,0.0,0.0,0.0,0.0,0.0,0.0,0.0,0.0,0.0,0.0,0.0,0.0,0.0,0.0,0.0,0.0,0.0,0.0,0.0,0.0,0.0,0.0,0.0,0.0,0.0,0.0,0.0,0.0,0.0,0.0,0.0,0.0,0.0,0.0,0.0,0.0,0.0,0.0,0.0,0.0,0.0,0.0,0.0,0.0,0.0,0.0,0.0,0.0,0.0,0.0,0.0,0.0,0.0,0.0,0.0,0.0,0.0,0.0,0.0,0.0,0.0,0.0,0.0,0.0,0.0,0.0,0.0,0.0,0.0,0.0,0.0,0.0,0.0,0.0,0.0,0.0,0.0,0.0,0.0,0.0,0.0,0.0,0.0,0.0,0.0,0.0,0.0,0.0,0.0,0.0,0.0,0.0,0.0,0.0,0.0,0.0,0.0,0.0,0.0,0.0,0.0,0.0,0.0,0.0,0.0,0.0,0.0,0.0,0.0,0.0,0.0,0.0,0.0,0.0,0.0,0.0,0.0,0.0,0.0,0.0,0.0,0.0,0.0,0.0,0.0,0.0,0.0,0.0,0.0,0.0,0.0,0.0,0.0,0.0,0.0,0.0,0.0,0.0,0.0,0.0,0.0,0.0,0.0,0.0,0.0,0.0,0.0,0.0,0.0,0.0,0.0,0.0,0.0,0.0,0.0,0.0,0.0,0.0,0.0,0.0,0.0,0.0,0.0,0.0,0.0,0.0,0.0,0.0,0.0,0.0,0.0,0.0,0.0,0.0,0.0,0.0,0.0,0.0,0.0,0.0,0.0,0.0,0.0,0.0,0.0,0.0,0.0,0.0,0.0,0.0,0.0,0.0,0.0,0.0,0.0,0.0,0.0,0.0,0.0,0.0,0.0,0.0,0.0,0.0,0.0,0.0,0.0,0.0,0.0,0.0,0.0,0.0,0.0,0.0,0.0,0.0,0.0,0.0,0.0,0.0,0.0,0.0,0.0,0.0,0.0,0.0,0.0,0.0,0.0,0.0,0.0,0.0,0.0,0.0,0.0,0.0,0.0,0.0,0.0,0.0,0.0,0.0,0.0,0.0,0.0,0.0,0.0,0.0,0.0,0.0,0.0,0.0,0.0,0.0,0.0,0.0,0.0,0.0,0.0,0.0,0.0,0.0,0.0,0.0,0.0,0.0,0.0,0.0,0.0,0.0,0.0,0.0,0.0,0.0,0.0,0.0,0.0,0.0,0.0,0.0,0.0,0.0,0.0,0.0,0.0,0.0,0.0,0.0,0.0,0.0,0.0,0.0,0.0,0.0,0.0,0.0,0.0,0.0,0.0,0.0,0.0,0.0,0.0,0.0,0.0,0.0,0.0,0.0,0.0,0.0,0.0,0.0,0.0,0.0,0.0,0.0,0.0,0.0,0.0,0.0,0.0,0.0,0.0,0.0,0.0,0.0,0.0,0.0,0.0,0.0,0.0,0.0,0.0,0.0,0.0,0.0,0.0,0.0,0.0,0.0,0.0,0.0,0.0,0.0,0.0,0.0,0.0,0.0,0.0,0.0,0.0,0.0,0.0,0.0,0.0,0.0,0.0,0.6711,0.6904,0.0,0.0,0.0,0.0,0.0,0.0,0.0,0.0,0.0,0.0,0.0,0.0,0.0,0.0,0.0,0.0,0.0,0.0,0.0,0.0,0.0,0.0,0.0,0.0,0.0,0.0,0.0,0.0,0.0,0.0,0.0,0.0,0.0,0.0,0.0,0.0,0.0,0.0,0.0,0.0,0.0,0.0,0.0,0.0,0.0,0.0,0.0,0.0,0.0,0.0,0.0,0.0,0.0,0.0,0.0,0.0,0.0,0.0,0.0,0.0,0.0,0.0,0.0,0.0,0.0,0.0,0.0,0.0,0.0,0.0,0.0,0.0,0.0,0.0,0.0,0.0,0.0,0.0,0.0,0.0,0.0,0.0,0.0,0.0,0.0,0.0,0.0,0.0,0.0,0.0,0.0,0.0,0.0,0.0,0.0,0.0,0.0,0.0,0.0,0.0,0.0,0.0,0.0,0.0,0.0,0.0,0.0,0.0,0.0,0.0,0.0,0.0,0.0,0.0,0.7006,0.6991,0.0,0.0,0.0,0.0,0.0,0.0,0.0,0.0,0.0,0.0,0.0,0.0,0.0,0.0,0.0,0.0,0.0,0.0,0.0,0.0,0.0,0.0,0.0,0.0,0.0,0.0,0.0,0.0,0.0,0.0,0.0,0.0,0.0,0.0,0.0,0.0,0.0,0.0,0.0,0.0,0.0,0.0,0.0,0.0,0.0,0.0,0.0,0.0,0.0,0.0,0.0,0.0,0.0,0.0,0.0,0.0,0.0,0.0,0.0,0.0,0.0,0.0,0.0,0.0,0.0,0.0,0.0,0.0,0.0,0.0,0.0,0.0,0.0,0.0,0.0,0.0,0.0,0.0,0.0,0.0,0.0,0.0,0.0,0.0,0.0,0.0,0.0,0.0,0.0,0.0,0.0,0.0,0.0,0.0,0.0,0.0,0.0,0.0,0.0,0.0,0.0,0.0,0.0,0.0,0.0,0.0,0.0,0.0,0.7433,0.7502,0.76,0.76,0.76,0.7587,0.731,0.7117,0.7002,0.7294,0.0,0.0,0.0,0.0,0.0,0.0,0.0,0.0,0.0,0.0,0.0,0.0,0.0,0.0,0.0,0.0,0.0,0.0,0.0,0.0,0.0,0.0,0.0,0.0,0.0,0.0,0.0,0.0,0.0,0.0,0.0,0.0,0.0,0.0,0.0,0.0,0.0,0.0,0.5399,0.5661,0.5772,0.5772,0.5772,0.0,0.0,0.0,0.0,0.0,0.0,0.0,0.0,0.0,0.0,0.0,0.0,0.0,0.0,0.0,0.0,0.0,0.0,0.0,0.0,0.0,0.0,0.0,0.0,0.0,0.0,0.0,0.0,0.0,0.0,0.0,0.0,0.0,0.0,0.0,0.0,0.0,0.0,0.0,0.0,0.0,0.0,0.0,0.662,0.6505,0.0,0.0,0.0,0.0,0.0,0.0,0.0,0.0,0.0,0.0,0.0,0.0,0.0,0.7427,0.7539,0.7539,0.755,0.757,0.757,0.758,0.76,0.76,0.76,0.7597,0.7556,0.0,0.7338,0.7379,0.0,0.0,0.0,0.0,0.0,0.0,0.0,0.0,0.0,0.0,0.0,0.0,0.0,0.0,0.0,0.0,0.0,0.0,0.0,0.0,0.0,0.0,0.0,0.0,0.0,0.0,0.0,0.0,0.0,0.0,0.0,0.0,0.0,0.0,0.0,0.0,0.5654,0.5674,0.563,0.583,0.591,0.5913,0.6039,0.6079,0.6073,0.5966,0.0,0.0,0.0,0.0,0.0,0.0,0.0,0.0,0.0,0.0,0.0,0.0,0.0,0.0,0.0,0.0,0.0,0.0,0.0,0.0,0.0,0.0,0.0,0.0,0.0,0.0,0.0,0.0,0.0,0.0,0.0,0.0,0.0,0.0,0.0,0.0,0.0,0.0,0.0,0.6763,0.6901,0.6833,0.7099,0.7244,0.0,0.0,0.0,0.0,0.0,0.0,0.0,0.0,0.0,0.7614,0.7621,0.7692,0.782,0.7824,0.7889,0.8002,0.8002,0.8042,0.8092,0.8039,0.8002,0.7998,0.7885,0.776,0.7621,0.7621,0.7621,0.7624,0.0,0.0,0.0,0.0,0.7811,0.7801,0.0,0.0,0.0,0.0,0.0,0.0,0.0,0.0,0.0,0.0,0.0,0.0,0.0,0.0,0.0,0.5443,0.0,0.0,0.0,0.0,0.0,0.0,0.0,0.0,0.0,0.0,0.0,0.0,0.5884,0.5956,0.5922,0.6093,0.616,0.613,0.6324,0.6371,0.6293,0.6139,0.5981,0.0,0.0,0.0,0.0,0.0,0.0,0.0,0.0,0.0,0.0,0.0,0.0,0.0,0.0,0.0,0.0,0.0,0.0,0.0,0.0,0.0,0.0,0.0,0.0,0.0,0.0,0.0,0.0,0.0,0.0,0.0,0.0,0.0,0.0,0.0,0.0,0.0,0.0,0.6958,0.7095,0.7095,0.7312,0.7437,0.0,0.0,0.0,0.0,0.0,0.0,0.7566,0.7689,0.7834,0.798,0.7984,0.805,0.824,0.8206,0.8243,0.841,0.8369,0.8406,0.8505,0.84,0.8352,0.8345,0.8201,0.8064,0.7974,0.7858,0.7811,0.7811,0.7811,0.781,0.7841,0.7824,0.7811,0.7804,0.0,0.0,0.0,0.0,0.0,0.0,0.0,0.0,0.0,0.0,0.0,0.0,0.0,0.0,0.5569,0.5596,0.5596,0.5637,0.0,0.0,0.0,0.0,0.0,0.0,0.0,0.0,0.0,0.5988,0.6298,0.6409,0.6282,0.6552,0.659,0.6477,0.661,0.6542,0.63,0.6289,0.6178,0.5998,0.0,0.0,0.0,0.0,0.0,0.0,0.0,0.0,0.0,0.0,0.0,0.0,0.0,0.0,0.0,0.0,0.0,0.0,0.0,0.0,0.0,0.0,0.0,0.0,0.0,0.0,0.0,0.0,0.0,0.0,0.0,0.0,0.0,0.0,0.0,0.0,0.0,0.0,0.0,0.7095,0.7381,0.0,0.0,0.0,0.0,0.7767,0.7895,0.7983,0.7983,0.8153,0.8328,0.8468,0.8475,0.8591,0.8862,0.8723,0.8679,0.8686,0.854,0.8502,0.8509,0.8502,0.8498,0.8498,0.8488,0.8481,0.844,0.7987,0.7811,0.7811,0.7811,0.7875,0.7986,0.7841,0.7811,0.779,0.0,0.0,0.0,0.0,0.0,0.0,0.0,0.0,0.0,0.0,0.0,0.0,0.0,0.5525,0.5627,0.5718,0.5644,0.5627,0.5661,0.0,0.0,0.0,0.0,0.0,0.0,0.0,0.6103,0.6315,0.6519,0.6614,0.6566,0.6651,0.6671,0.662,0.6675,0.6641,0.6556,0.6457,0.6254,0.6018,0.6139,0.6084,0.0,0.0,0.0,0.0,0.0,0.0,0.0,0.0,0.0,0.0,0.0,0.0,0.0,0.0,0.0,0.0,0.0,0.0,0.0,0.0,0.0,0.0,0.0,0.0,0.0,0.0,0.0,0.0,0.0,0.0,0.0,0.0,0.0,0.0,0.0,0.0,0.0,0.7661,0.7906,0.0,0.7981,0.8022,0.8076,0.8127,0.8333,0.8446,0.8446,0.8591,0.8764,0.8937,0.8941,0.9039,0.9222,0.9171,0.9144,0.914,0.9114,0.9087,0.9083,0.8985,0.8941,0.893,0.871,0.8628,0.8608,0.835,0.8245,0.8231,0.8143,0.814,0.818,0.8126,0.8045,0.7942,0.0,0.0,0.0,0.0,0.0,0.0,0.0,0.0,0.0,0.0,0.0,0.5453,0.559,0.5633,0.5722,0.5849,0.5745,0.5722,0.5828,0.0,0.0,0.0,0.0,0.0,0.0,0.638,0.6458,0.6627,0.6881,0.6976,0.6929,0.698,0.7004,0.7004,0.7004,0.6976,0.6919,0.6842,0.6593,0.6241,0.6331,0.629,0.6173,0.0,0.0,0.0,0.0,0.0,0.0,0.0,0.0,0.0,0.0,0.0,0.0,0.0,0.0,0.0,0.0,0.0,0.0,0.0,0.0,0.0,0.0,0.0,0.0,0.0,0.0,0.0,0.0,0.0,0.0,0.0,0.0,0.0,0.0,0.7869,0.8058,0.8287,0.8435,0.8496,0.8496,0.8496,0.8543,0.859,0.8798,0.8937,0.8937,0.9098,0.9251,0.9407,0.9407,0.9482,0.9605,0.9507,0.9459,0.9459,0.9434,0.941,0.9407,0.9305,0.9257,0.9247,0.9022,0.8937,0.893,0.8828,0.8811,0.8781,0.8485,0.8366,0.8366,0.8366,0.8275,0.8179,0.0,0.0,0.0,0.0,0.0,0.0,0.0,0.0,0.0,0.0,0.5399,0.546,0.5596,0.5725,0.5871,0.6005,0.5876,0.5935,0.6272,0.5994,0.0,0.0,0.0,0.0,0.6512,0.6897,0.7034,0.6928,0.7387,0.7522,0.7406,0.7529,0.76,0.76,0.76,0.7516,0.7403,0.7403,0.7151,0.6715,0.6573,0.6505,0.6491,0.0,0.0,0.0,0.0,0.0,0.0,0.0,0.0,0.0,0.0,0.0,0.0,0.0,0.0,0.0,0.0,0.0,0.0,0.0,0.0,0.0,0.0,0.0,0.0,0.0,0.0,0.0,0.0,0.0,0.0,0.0,0.0,0.0,0.8284,0.8315,0.8488,0.8872,0.8933,0.894,0.894,0.8943,0.9004,0.9199,0.9352,0.9437,0.9437,0.968,0.9805,0.9805,0.9805,0.9876,1.0025,0.9737,0.9622,0.9622,0.9466,0.9424,0.9424,0.9424,0.9424,0.9424,0.942,0.9417,0.9417,0.9413,0.941,0.9352,0.8764,0.8532,0.8529,0.8529,0.8526,0.8515,0.0,0.0,0.0,0.0,0.0,0.0,0.0,0.0,0.0,0.0,0.5491,0.56,0.5728,0.5859,0.6008,0.6202,0.6057,0.5984,0.6069,0.0,0.0,0.0,0.0,0.0,0.6928,0.7034,0.7208,0.7417,0.7539,0.758,0.7539,0.758,0.76,0.76,0.76,0.7577,0.7536,0.7536,0.7465,0.7322,0.6953,0.6782,0.6766,0.0,0.0,0.0,0.0,0.0,0.0,0.0,0.0,0.0,0.0,0.0,0.0,0.0,0.0,0.0,0.0,0.0,0.0,0.0,0.0,0.0,0.0,0.0,0.0,0.0,0.0,0.0,0.0,0.0,0.0,0.0,0.8426,0.8601,0.8475,0.8733,0.9026,0.9232,0.942,0.9548,0.9548,0.965,0.9731,0.9768,0.9947,1.0063,1.0063,1.011,1.0154,1.0154,1.0154,1.0175,1.0215,0.9994,0.9896,0.9896,0.9744,0.97,0.97,0.97,0.97,0.9693,0.9591,0.9547,0.9537,0.9425,0.941,0.9393,0.9226,0.9094,0.8998,0.8998,0.8859,0.8632,0.0,0.0,0.0,0.0,0.0,0.0,0.0,0.0,0.0,0.0,0.5511,0.5644,0.5786,0.592,0.6045,0.6156,0.6062,0.5993,0.5993,0.0,0.0,0.0,0.0,0.6905,0.7227,0.7334,0.7455,0.76,0.7723,0.775,0.7689,0.7729,0.776,0.776,0.776,0.776,0.776,0.776,0.776,0.7732,0.7408,0.7239,0.7164,0.6945,0.6926,0.6973,0.6909,0.6884,0.6894,0.6806,0.0,0.0,0.0,0.0,0.0,0.0,0.0,0.0,0.0,0.0,0.0,0.0,0.0,0.0,0.0,0.0,0.0,0.0,0.0,0.0,0.0,0.0,0.0,0.0,0.9008,0.9173,0.9147,0.931,0.9543,0.976,0.991,1.0012,1.0012,1.0093,1.0144,1.0144,1.0287,1.0376,1.0315,1.0399,1.0436,1.0403,1.0368,1.0368,1.0368,1.0222,1.0144,1.0113,1.0056,1.0012,1.0012,0.9917,0.9886,0.9879,0.9731,0.9696,0.969,0.9602,0.9564,0.9554,0.0,0.0,0.0,0.0,0.9169,0.8971,0.0,0.0,0.0,0.0,0.0,0.0,0.0,0.0,0.0,0.0,0.0,0.5661,0.5786,0.592,0.5993,0.5993,0.5993,0.6025,0.0,0.0,0.0,0.6742,0.7012,0.7242,0.744,0.7695,0.7777,0.7648,0.7888,0.7946,0.7814,0.7952,0.7988,0.7988,0.7988,0.8023,0.804,0.804,0.804,0.803,0.7891,0.7767,0.7594,0.7279,0.7278,0.7403,0.7219,0.71,0.7006,0.6989,0.0,0.0,0.0,0.0,0.0,0.0,0.0,0.0,0.0,0.0,0.0,0.0,0.0,0.0,0.0,0.0,0.0,0.0,0.0,0.0,0.0,0.0,0.0,0.0,0.9564,0.9788,1.0052,0.9978,1.0015,1.0305,1.0352,1.0363,1.0363,1.0363,1.0363,1.0363,1.0446,1.0463,1.0337,1.0578,0.0,0.0,0.0,1.0517,1.0517,1.0375,1.0304,1.0335,1.0318,1.0312,1.0276,1.0106,1.0035,0.998,0.9876,0.9805,0.9792,0.9792,0.9792,0.9761,0.9513,0.9437,0.9434,0.9417,0.941,0.939,0.0,0.0,0.0,0.0,0.0,0.0,0.0,0.0,0.0,0.5395,0.561,0.5772,0.5796,0.592,0.5993,0.5993,0.5993,0.6113,0.0,0.0,0.6776,0.7022,0.7323,0.7577,0.7723,0.7878,0.7956,0.7929,0.7986,0.8,0.7969,0.7975,0.7988,0.7988,0.7988,0.8084,0.825,0.825,0.825,0.8247,0.8219,0.8018,0.775,0.7577,0.7529,0.7553,0.7522,0.7567,0.7597,0.7509,0.7526,0.7556,0.7338,0.0,0.0,0.0,0.0,0.0,0.0,0.0,0.0,0.0,0.0,0.0,0.0,0.0,0.0,0.0,0.0,0.0,0.0,0.0,0.0,0.9507,0.9893,1.0253,1.0515,1.0532,1.0524,1.046,1.0561,1.0636,1.0636,1.0636,1.0636,1.0636,1.066,1.0663,1.0636,1.0654,1.0707,1.0677,1.0677,1.0677,1.0677,1.0527,1.0453,1.0449,1.0334,0.0,1.0312,1.0249,1.0136,0.9984,0.9988,0.9903,0.9792,0.9792,0.9792,0.9771,0.9632,0.9564,0.9551,0.9425,0.941,0.9407,0.0,0.0,0.0,0.0,0.0,0.0,0.0,0.0,0.0,0.0,0.5732,0.5897,0.5897,0.6054,0.6112,0.6018,0.5993,0.0,0.0,0.6685,0.6924,0.7244,0.7546,0.7773,0.7898,0.7976,0.7988,0.7988,0.7988,0.7988,0.7992,0.8094,0.8153,0.816,0.8228,0.8303,0.8403,0.8403,0.8403,0.8403,0.8403,0.8267,0.8024,0.7875,0.7797,0.7797,0.7797,0.7793,0.7801,0.7729,0.7706,0.7678,0.7533,0.7508,0.7472,0.0,0.0,0.0,0.0,0.0,0.0,0.0,0.0,0.0,0.0,0.0,0.0,0.0,0.0,0.8913,0.911,0.0,0.9757,1.0103,1.0387,1.069,1.0911,1.0941,1.0887,1.0704,1.0755,1.0799,1.0799,1.0799,1.0799,1.0799,1.0732,1.0688,1.0688,1.0688,1.0688,1.0688,1.0688,1.0688,1.0688,1.0643,1.0605,1.0605,1.0534,1.05,1.0497,1.0422,1.0344,1.0234,1.0163,1.0049,0.9903,0.9903,0.9903,0.9896,0.9825,0.9751,0.9707,0.9629,0.9602,0.9591,0.0,0.0,0.0,0.0,0.0,0.0,0.0,0.0,0.0,0.0,0.5846,0.5993,0.5993,0.6142,0.6185,0.0,0.0,0.0,0.0,0.6796,0.7093,0.7467,0.7712,0.7888,0.7985,0.7988,0.7988,0.7988,0.8044,0.8057,0.8064,0.8241,0.8338,0.8342,0.8457,0.8526,0.8526,0.8526,0.8526,0.8526,0.8526,0.8464,0.8321,0.8143,0.804,0.7988,0.7988,0.7935,0.7831,0.7831,0.7756,0.7685,0.7685,0.7685,0.7678,0.7648,0.7641,0.0,0.0,0.0,0.0,0.0,0.0,0.0,0.0,0.8641,0.8737,0.8983,0.9205,0.9468,0.9768,1.0039,1.0342,1.0667,1.0857,1.1005,1.122,1.1217,1.1166,1.1009,1.0975,1.0955,1.0955,1.0955,1.0955,1.0955,1.0816,1.0732,1.0732,1.0701,1.0688,1.0688,1.0688,1.0688,1.0688,1.0688,1.0688,1.0688,1.0688,1.0688,1.0684,1.0592,1.0521,1.0483,1.0373,1.0209,1.0062,1.0032,1.0018,1.0015,0.9984,0.99,0.9792,0.9792,0.9792,0.9775,0.0,0.0,0.0,0.0,0.0,0.0,0.0,0.0,0.0,0.0,0.0,0.0,0.0,0.0,0.0,0.0,0.0,0.0,0.682,0.7006,0.7286,0.7743,0.7898,0.7996,0.7988,0.7988,0.7988,0.7988,0.8177,0.827,0.8274,0.8417,0.8485,0.8485,0.8502,0.8557,0.8682,0.8682,0.8682,0.8682,0.8682,0.8594,0.8468,0.8325,0.816,0.7988,0.7988,0.7978,0.7989,0.7989,0.7979,0.7966,0.7966,0.7966,0.7939,0.7804,0.7787,0.7787,0.7787,0.7861,0.8098,0.8649,0.8635,0.8665,0.0,0.9456,0.9327,0.95,0.9724,0.9934,0.9984,1.0333,1.0707,1.086,1.1046,1.1227,1.1345,1.1285,1.124,1.1328,1.1257,1.1172,1.1172,1.1172,1.1172,1.1172,1.1006,1.0887,1.0887,1.0762,1.0688,1.0688,1.0688,1.0688,1.0688,1.0688,1.0688,1.0688,1.0688,1.0688,1.0688,1.0671,1.0619,1.0483,1.0373,1.0301,1.0243,1.0076,1.0049,1.007,0.99,0.9805,0.9792,0.9792,0.9792,0.9788,0.0,0.0,0.0,0.0,0.0,0.0,0.0,0.0,0.0,0.0,0.0,0.0,0.0,0.0,0.0,0.0,0.0,0.0,0.6749,0.6989,0.7611,0.8734,0.9041,0.9167,0.9167,0.9899,0.9534,0.7988,0.8935,0.902,0.8301,0.8506,0.8615,0.8618,0.871,0.8832,0.8995,0.8995,0.8995,0.8995,0.8995,0.8852,0.8598,0.8478,0.8328,0.815,0.7946,0.7881,0.0,0.0,0.7881,0.7898,0.7986,0.7988,0.7978,0.7939,0.7918,0.7918,0.7918,0.8155,0.8463,0.8716,0.8906,0.9127,0.9591,0.9704,0.9805,1.0073,1.0329,1.0566,1.0683,1.0924,1.1162,1.1279,1.1425,1.1575,1.1636,1.1521,1.1419,1.1396,1.1291,1.1234,1.1322,1.1332,1.1332,1.1332,1.1046,1.0914,1.0914,1.0769,1.0688,1.0688,1.0688,1.0688,1.0688,1.0688,1.0688,1.0688,1.0688,1.0688,1.0684,1.0626,1.0507,1.0358,1.0212,1.0144,1.0109,1.0045,1.0018,1.0042,0.9947,0.9923,0.9913,0.9822,0.9792,0.9792,0.0,0.0,0.0,0.0,0.0,0.0,0.0,0.0,0.0,0.0,0.0,0.0,0.0,0.0,0.0,0.0,0.0,0.0,0.0,0.7512,0.8387,0.9872,1.032,1.0509,1.0509,1.1434,1.0974,0.9065,1.0276,1.0395,0.9501,0.9815,0.9761,0.9363,0.9455,0.9401,0.9207,0.9138,0.9145,0.9207,0.9138,0.894,0.8693,0.854,0.8393,0.817,0.7906,0.7814,0.0,0.0,0.7814,0.7868,0.7979,0.8044,0.8071,0.8027,0.8044,0.8094,0.8175,0.8466,0.8777,0.8927,0.9232,0.9574,0.9852,1.0049,1.0285,1.0616,1.0887,1.107,1.124,1.1352,1.1491,1.1567,1.1668,1.1722,1.1678,1.1623,1.1501,1.1348,1.1264,1.124,1.1353,1.1365,1.1409,1.145,1.1175,1.0972,1.0972,1.0789,1.0688,1.0688,1.0688,1.0688,1.0688,1.0688,1.0688,1.0688,1.0688,1.0688,1.0714,1.0561,1.0436,1.0331,1.0147,1.0082,1.0079,1.0004,0.9987,0.9984,0.9971,0.9954,0.994,0.9832,0.9792,0.9792,0.0,0.0,0.0,0.0,0.0,0.0,0.0,0.0,0.0,0.0,0.0,0.0,0.0,0.0,0.0,0.0,0.0,0.0,0.0,0.8905,0.9777,1.1005,1.1559,1.1853,1.1853,1.1877,1.1848,1.1775,1.2274,1.251,1.249,1.2936,1.2394,1.1019,1.1023,1.0358,0.92,0.9005,0.9025,0.9197,0.9001,0.8825,0.8693,0.854,0.8303,0.8,0.7844,0.0,0.0,0.7837,0.7885,0.7985,0.7988,0.8143,0.826,0.8057,0.8147,0.8352,0.8611,0.8781,0.9007,0.9473,0.9696,0.993,1.0518,1.0661,1.0785,1.1114,1.1302,1.1379,1.1385,1.1508,1.1613,1.1584,1.1587,1.1572,1.1423,1.1399,1.1376,1.1223,1.12,1.12,1.1203,1.1304,1.1453,1.1567,1.1328,1.1189,1.1189,1.088,1.0688,1.0688,1.0688,1.0688,1.0688,1.0688,1.0688,1.0688,1.0688,1.0688,1.0714,1.0561,1.049,1.0477,1.0334,1.0305,1.0295,1.0079,0.9987,0.9974,0.9856,0.9798,0.9798,0.9792,0.9792,0.9792,0.0,0.0,0.0,0.0,0.0,0.0,0.0,0.0,0.0,0.0,0.0,0.0,0.0,0.0,0.0,0.0,0.0,0.0,0.0,0.8434,0.966,1.1045,1.2249,1.2911,1.2911,1.3939,1.3644,1.1896,1.3034,1.3159,1.2334,1.2756,1.2702,1.22,1.1426,1.0903,1.0535,0.9518,0.9138,0.9169,0.8967,0.8821,0.8672,0.8297,0.8191,0.8147,0.0,0.0,0.0,0.7689,0.7767,0.7881,0.7983,0.805,0.8126,0.8177,0.8367,0.8608,0.8781,0.9088,0.9437,0.9785,1.013,1.0464,1.0769,1.0988,1.1165,1.1196,1.1237,1.1244,1.108,1.1103,1.1205,1.1436,1.1552,1.1567,1.1548,1.1541,1.1413,1.1029,1.0985,1.0985,1.0985,1.1151,1.1304,1.1457,1.1189,1.1063,1.1193,1.088,1.0688,1.0688,1.0688,1.0688,1.0688,1.0688,1.0688,1.0688,1.0688,1.0532,1.0248,1.0426,1.0385,1.0163,1.0116,1.0096,1.0082,0.993,0.9866,0.9863,0.9808,0.9792,0.9792,0.9792,0.9792,0.9792,0.0,0.0,0.0,0.0,0.0,0.0,0.0,0.0,0.0,0.0,0.0,0.0,0.0,0.0,0.0,0.0,0.0,0.6798,0.0,0.0,1.0236,1.1477,1.3102,1.3961,1.3961,1.4971,1.4682,1.3018,1.4159,1.4277,1.3494,1.3962,1.3933,1.3419,1.2676,1.1891,1.1008,1.0053,0.9374,0.8927,0.8757,0.8581,0.8412,0.8125,0.804,0.0,0.0,0.0,0.7675,0.7675,0.7773,0.7885,0.7983,0.805,0.8174,0.8435,0.8679,0.8923,0.9156,0.9518,0.9907,1.0116,1.0434,1.0728,1.088,1.1059,1.1206,1.1107,1.1087,1.1043,1.086,1.0789,1.0833,1.1111,1.1233,1.1283,1.1337,1.1343,1.1235,1.0948,1.0914,1.0894,1.084,1.0999,1.1148,1.1332,1.1049,1.0955,1.108,1.0853,1.0688,1.0688,1.0688,1.0688,1.0688,1.0688,1.0688,1.0688,1.0688,1.0535,1.0262,1.0429,1.0361,1.0099,1.0042,0.9988,0.993,0.9832,0.9792,0.9792,0.9792,0.9792,0.9792,0.9792,0.9792,0.9792,0.0,0.0,0.0,0.0,0.0,0.0,0.0,0.0,0.0,0.0,0.0,0.0,0.0,0.0,0.0,0.0,0.0,0.0,0.0,0.0,0.0,1.2184,1.3995,1.4966,1.4966,1.5001,1.5008,1.5008,1.5518,1.5761,1.5775,1.6373,1.5921,1.4651,1.4587,1.3183,1.0828,1.0515,0.967,0.8549,0.8364,0.817,0.7988,0.7982,0.0,0.0,0.0,0.0,0.7797,0.779,0.7895,0.8027,0.8033,0.8174,0.8417,0.8804,0.9069,0.9311,0.9724,1.0063,1.0327,1.0466,1.0619,1.0735,1.088,1.0914,1.0914,1.0904,1.089,1.0833,1.0681,1.0575,1.0531,1.0683,1.0688,1.0752,1.0904,1.0931,1.0934,1.0928,1.0931,1.0874,1.0715,1.0836,1.0978,1.1176,1.0985,1.0911,1.0924,1.0775,1.0688,1.0688,1.0688,1.0688,1.0688,1.0688,1.0684,1.0674,1.0684,1.0681,1.0694,1.0561,1.0426,1.0315,1.0096,0.9947,0.9812,0.9798,0.9792,0.9792,0.9792,0.9792,0.9792,0.9792,0.9792,0.9792,0.0,0.0,0.0,0.0,0.0,0.0,0.0,0.0,0.0,0.0,0.0,0.0,0.0,0.0,0.0,0.0,0.0,0.0,0.0,0.0,0.0,0.0,0.0,0.0,0.0,0.0,0.0,0.0,1.5133,1.5207,1.5213,1.5558,1.5536,1.5158,1.4316,1.3551,1.2787,1.0794,0.9759,0.9384,0.0,0.805,0.7978,0.0,0.0,0.0,0.0,0.0,0.7939,0.7824,0.7991,0.8228,0.8336,0.8554,0.8808,0.9171,0.9449,0.9727,1.007,1.0297,1.0473,1.0626,1.0742,1.0867,1.0907,1.0914,1.0884,1.0769,1.0605,1.0402,1.0218,1.0283,1.0382,1.0527,1.0708,1.0907,1.1087,1.1206,1.1236,1.1155,1.1209,1.1175,1.088,1.1023,1.108,1.0975,1.083,1.0877,1.1097,1.086,1.0688,1.0688,1.0688,1.0688,1.0688,1.0688,1.0663,1.0551,1.0666,1.0605,1.0399,1.0578,1.0578,1.0429,1.0287,1.0198,1.0148,0.9917,0.9792,0.9792,0.9792,0.9792,0.9792,0.9792,0.9792,0.9792,0.0,0.0,0.0,0.0,0.0,0.0,0.0,0.0,0.0,0.0,0.0,0.0,0.0,0.0,0.0,0.0,0.0,0.0,0.0,0.0,0.0,0.0,0.0,0.0,0.0,0.0,0.0,0.0,0.0,0.0,1.4798,1.5093,1.5227,1.5188,1.4549,1.3672,1.2556,1.1077,0.0,0.0,0.0,0.0,0.0,0.0,0.0,0.0,0.0,0.7942,0.802,0.8089,0.8221,0.8437,0.8716,0.894,0.9205,0.9568,0.9839,1.0073,1.031,1.048,1.0612,1.0667,1.0752,1.0782,1.065,1.0671,1.0633,1.0349,1.0214,1.0131,0.9947,0.9968,1.0056,1.0263,1.041,1.064,1.1019,1.1141,1.1212,1.1291,1.1338,1.1274,1.0941,1.108,1.1104,1.0924,1.0836,1.086,1.106,1.0813,1.0688,1.0688,1.0688,1.0688,1.0688,1.0688,1.0677,1.0595,1.0647,1.0633,1.048,1.0643,1.0602,1.0395,1.0317,1.0205,1.0066,0.9893,0.9792,0.9792,0.9792,0.9792,0.9792,0.9792,0.9792,0.9792,0.0,0.0,0.0,0.0,0.0,0.0,0.0,0.0,0.0,0.0,0.0,0.0,0.0,0.0,0.0,0.0,0.0,0.0,0.0,0.0,0.0,0.0,0.0,0.0,0.0,0.0,0.0,0.0,0.0,0.0,0.0,0.0,0.0,0.0,0.0,0.0,0.0,0.0,0.0,0.0,0.0,0.0,0.0,0.0,0.0,0.0,0.0,0.8044,0.8094,0.8435,0.8543,0.8648,0.91,0.9362,0.9554,0.995,1.0205,1.0373,1.0483,1.0619,1.0688,1.0688,1.0704,1.0619,1.0376,1.0376,1.0293,0.9873,0.9883,0.9927,0.9812,0.9707,0.9727,1.0005,1.0065,1.0272,1.0836,1.0914,1.1022,1.1355,1.1372,1.126,1.0968,1.109,1.1145,1.0951,1.0924,1.0914,1.0914,1.0769,1.0688,1.0688,1.0688,1.0688,1.0688,1.0688,1.0688,1.0688,1.0688,1.0688,1.0688,1.0688,1.0568,1.0339,1.0322,1.0117,0.9819,0.9798,0.9792,0.9792,0.9792,0.9792,0.9792,0.9792,0.9792,0.9792,0.0,0.0,0.0,0.0,0.0,0.0,0.0,0.0,0.0,0.0,0.63,0.63,0.0,0.0,0.0,0.0,0.0,0.0,0.0,0.0,0.0,0.0,0.0,0.0,0.0,1.2611,1.3097,1.4109,1.4156,0.0,0.0,0.0,0.0,0.0,0.0,0.0,0.0,0.0,0.0,0.0,0.0,0.0,0.0,0.0,0.0,0.0,0.8184,0.8257,0.8321,0.8689,0.8831,0.8909,0.9388,0.9683,0.9967,1.0321,1.0432,1.0487,1.0639,1.0667,1.0688,1.0688,1.0626,1.0487,1.0352,1.01,0.9883,0.9805,0.9717,0.9683,0.9775,0.9873,1.0001,1.0212,1.0337,1.0541,1.0863,1.0914,1.1022,1.1355,1.1312,1.1217,1.1166,1.1183,1.1186,1.1162,1.0982,1.0914,1.0914,1.0769,1.0688,1.0688,1.0688,1.0688,1.0688,1.0688,1.0688,1.0688,1.0688,1.0688,1.0688,1.0688,1.0622,1.0449,1.0363,1.0178,0.9967,0.9842,0.9792,0.9792,0.9792,0.9792,0.9792,0.9792,0.9792,0.9792,0.0,0.0,0.0,0.0,0.0,0.0,0.0,0.0,0.6188,0.6289,0.63,0.63,0.63,0.63,0.0,0.0,0.0,0.0,0.0,0.0,0.0,0.0,0.0,0.0,0.0,1.1724,1.1708,1.2281,0.0,1.2281,1.2281,1.2281,1.2281,1.2254,1.1665,1.1085,1.0459,0.0,0.0,0.8189,0.7766,0.7685,0.0,0.0,0.0,0.0,0.0,0.8298,0.8366,0.876,0.896,0.9144,0.9639,0.9961,1.0229,1.0524,1.0612,1.0626,1.0667,1.0688,1.0688,1.0688,1.0551,1.0324,1.0093,0.9869,0.9666,0.9507,0.9547,0.9632,0.9696,0.9802,0.995,1.0134,1.009,1.0219,1.0721,1.0728,1.085,1.1261,1.1312,1.1285,1.1203,1.1196,1.1166,1.1056,1.0955,1.0948,1.1056,1.0843,1.0688,1.0688,1.0688,1.0688,1.0688,1.0688,1.0688,1.0688,1.0688,1.0688,1.0688,1.0688,1.0599,1.0378,1.0342,1.0148,0.9893,0.9819,0.9792,0.9792,0.9792,0.9792,0.9792,0.9792,0.9792,0.9792,0.0,0.0,0.0,0.0,0.0,0.0,0.0,0.5991,0.6066,0.6279,0.63,0.63,0.63,0.63,0.63,0.0,0.0,0.0,0.0,0.0,0.0,0.0,0.0,0.0,0.0,0.0,0.0,1.0611,1.0611,0.0,0.0,0.0,0.0,0.0,1.033,0.9727,0.889,0.8627,0.8094,0.0,0.0,0.7685,0.0,0.0,0.0,0.0,0.0,0.8362,0.8454,0.8845,0.9059,0.9274,0.9754,1.0052,1.0283,1.0548,1.0617,1.0644,1.0677,1.0688,1.0688,1.0688,1.0473,1.0158,0.9852,0.9659,0.9442,0.923,0.9373,0.9534,0.9598,0.967,0.9805,0.9988,0.9822,0.99,1.0578,1.0568,1.0646,1.1101,1.1192,1.1226,1.1203,1.1142,1.1046,1.0965,1.0931,1.0948,1.1097,1.0846,1.0688,1.0688,1.0688,1.0688,1.0688,1.0688,1.0688,1.0688,1.0688,1.0688,1.0688,1.0688,1.0561,1.0312,1.0312,1.0107,0.9792,0.9792,0.9792,0.9792,0.9792,0.9792,0.9792,0.9792,0.9792,0.9792,0.0,0.0,0.0,0.0,0.0,0.0,0.0,0.592,0.6066,0.6279,0.63,0.63,0.63,0.63,0.63,0.0,0.0,0.0,0.0,0.0,0.0,0.0,0.0,0.0,0.0,0.0,0.0,1.0611,1.0611,0.0,0.0,0.0,0.0,0.0,0.0,0.8999,0.8824,0.7731,0.0,0.0,0.0,0.0,0.0,0.0,0.0,0.0,0.0,0.8554,0.8716,0.9056,0.92,0.924,0.9544,0.9812,1.0072,1.027,1.0412,1.0541,1.068,1.0688,1.0688,1.0688,1.036,0.9994,0.9829,0.9496,0.9245,0.9214,0.9231,0.9308,0.9557,0.9618,0.969,0.9971,0.9963,1.0096,1.0466,1.05,1.0609,1.0894,1.0823,1.0884,1.1172,1.0917,1.0867,1.1159,1.0988,1.086,1.0735,1.0734,1.0688,1.0688,1.0688,1.0688,1.0688,1.0688,1.0688,1.0688,1.0688,1.0688,1.0688,1.0688,1.0561,1.0312,1.0312,1.0107,0.9792,0.9792,0.9792,0.9792,0.9792,0.9792,0.9792,0.9792,0.9792,0.9792,0.0,0.0,0.0,0.0,0.0,0.0,0.5766,0.585,0.5979,0.6269,0.63,0.63,0.63,0.63,0.63,0.0,0.0,0.0,0.0,0.0,0.0,0.0,0.0,0.0,0.0,0.0,0.8035,0.8488,0.8488,0.0,0.0,0.0,0.0,0.0,0.0,0.7819,0.7775,0.7316,0.0,0.0,0.0,0.0,0.0,0.0,0.0,0.0,0.0,0.0,0.8743,0.8954,0.9025,0.9045,0.9139,0.9344,0.9591,0.9984,1.0249,1.0395,1.0541,1.0649,1.0688,1.0688,1.0349,0.9978,0.9825,0.9476,0.921,0.921,0.921,0.9247,0.9432,0.9547,0.9649,0.9734,0.9707,0.9781,1.014,1.0144,1.0232,1.0593,1.0748,1.0904,1.1179,1.1091,1.0999,1.1029,1.086,1.0752,1.0691,1.0688,1.0688,1.0688,1.0688,1.0688,1.0688,1.0688,1.0688,1.0688,1.0688,1.0688,1.0688,1.0688,1.0561,1.0312,1.0312,1.0107,0.9792,0.9792,0.9792,0.9792,0.9792,0.9792,0.9792,0.9792,0.9792,0.9792,0.0,0.0,0.0,0.0,0.0,0.5494,0.5755,0.58,0.5911,0.6259,0.63,0.63,0.63,0.63,0.63,0.63,0.0,0.0,0.0,0.0,0.0,0.0,0.0,0.0,0.0,0.0,0.7034,0.7034,0.7075,0.7095,0.0,0.0,0.7095,0.7095,0.0,0.0,0.0,0.0,0.0,0.0,0.0,0.0,0.0,0.0,0.0,0.0,0.0,0.0,0.0,0.0,0.0,0.8912,0.8912,0.9008,0.922,0.967,0.9992,1.0185,1.0378,1.0538,1.0653,1.0653,1.0316,0.9967,0.9771,0.9475,0.921,0.921,0.921,0.9243,0.9412,0.9537,0.9625,0.0,0.9581,0.9652,1.0028,0.9954,1.0025,1.0507,1.0673,1.0809,1.1077,1.1101,1.104,1.086,1.0748,1.0688,1.0688,1.0688,1.0688,1.0688,1.0688,1.0688,1.0688,1.0688,1.0688,1.0688,1.0688,1.0688,1.0688,1.0688,1.0561,1.0312,1.0312,1.0107,0.9792,0.9792,0.9792,0.9792,0.9792,0.9792,0.9792,0.9792,0.9792,0.9792,0.0,0.0,0.0,0.0,0.0,0.0,0.0,0.58,0.5911,0.6259,0.63,0.63,0.63,0.63,0.63,0.63,0.0,0.0,0.0,0.0,0.0,0.0,0.0,0.0,0.0,0.0,0.6908,0.6908,0.7028,0.7095,0.7095,0.7095,0.7095,0.7095,0.0,0.0,0.0,0.0,0.0,0.0,0.0,0.0,0.0,0.0,0.0,0.0,0.0,0.0,0.0,0.0,0.0,0.0,0.0,0.8912,0.0,0.0,0.9595,0.9893,1.0198,1.0385,1.0493,1.0493,1.0238,0.994,0.965,0.9403,0.921,0.921,0.921,0.9274,0.9551,0.9608,0.9656,0.9765,0.9788,0.9924,1.0236,1.0113,1.018,1.063,1.0463,1.0463,1.0874,1.0917,1.0853,1.0701,1.0688,1.0688,1.0688,1.0688,1.0688,1.0688,1.0688,1.0688,1.0688,1.0688,1.0688,1.0688,1.0688,1.0688,1.0688,1.0688,1.0561,1.0312,1.0312,1.0107,0.9792,0.9792,0.9792,0.9792,0.9792,0.9792,0.9792,0.9792,0.9792,0.9792,0.0,0.0,0.0,0.0,0.0,0.0,0.0,0.58,0.5911,0.6259,0.63,0.63,0.63,0.63,0.63,0.63,0.0,0.0,0.0,0.0,0.0,0.0,0.0,0.0,0.0,0.0,0.6908,0.6908,0.7028,0.7095,0.7095,0.7095,0.7095,0.7095,0.7095,0.7095,0.0,0.0,0.0,0.0,0.0,0.0,0.7988,0.0,0.0,0.0,0.0,0.0,0.0,0.0,0.0,0.0,0.0,0.0,0.0,0.9024,0.9289,0.9564,0.9768,0.9924,1.0032,1.0032,0.993,0.9785,0.952,0.9407,0.9339,0.9339,0.9147,0.91,0.9398,0.9452,0.9466,0.9513,0.969,0.9859,1.0062,1.0049,1.0147,1.0524,1.0666,1.0759,1.0901,1.0914,1.085,1.0698,1.0688,1.0688,1.0688,1.0688,1.0688,1.0688,1.0688,1.0688,1.0688,1.0688,1.0688,1.0688,1.0688,1.0688,1.0688,1.0688,1.0612,1.0419,1.0356,1.0164,0.9937,0.9836,0.9792,0.9792,0.9792,0.9792,0.9792,0.9792,0.9792,0.9792,0.0,0.0,0.0,0.0,0.0,0.0,0.0,0.585,0.5976,0.6265,0.63,0.63,0.63,0.63,0.63,0.63,0.0,0.0,0.0,0.0,0.0,0.0,0.0,0.0,0.0,0.6688,0.6823,0.6823,0.7019,0.7095,0.7095,0.7095,0.7095,0.7095,0.7095,0.7095,0.0,0.0,0.0,0.0,0.0,0.0,0.7988,0.0,0.0,0.0,0.0,0.0,0.0,0.0,0.0,0.0,0.0,0.0,0.0,0.0,0.9041,0.9259,0.9466,0.9632,0.971,0.971,0.971,0.9663,0.9393,0.9325,0.9325,0.9325,0.9147,0.9093,0.9366,0.9429,0.9466,0.9466,0.9666,0.9842,0.9967,0.9987,1.0109,1.0382,1.0644,1.0806,1.0748,1.0796,1.0789,1.0694,1.0688,1.0688,1.0688,1.0688,1.0688,1.0688,1.0688,1.0688,1.0688,1.0688,1.0688,1.0688,1.0688,1.0688,1.0688,1.0688,1.0636,1.0483,1.0373,1.0195,0.0,0.9852,0.9792,0.9792,0.9792,0.9792,0.9792,0.9792,0.9792,0.9792,0.0,0.0,0.0,0.0,0.0,0.0,0.0,0.0,0.0,0.6279,0.63,0.63,0.63,0.63,0.63,0.63,0.0,0.0,0.0,0.0,0.0,0.0,0.0,0.0,0.0,0.6559,0.6688,0.6702,0.6965,0.7085,0.7095,0.7095,0.7095,0.7095,0.7095,0.7102,0.0,0.0,0.0,0.0,0.0,0.0,0.0,0.0,0.0,0.0,0.0,0.0,0.0,0.0,0.0,0.0,0.0,0.0,0.0,0.0,0.0,0.0,0.0,0.9452,0.9561,0.9561,0.9568,0.95,0.9233,0.9204,0.0,0.921,0.92,0.9216,0.9379,0.9496,0.9598,0.9608,0.97,0.9842,0.9967,1.0004,1.0106,1.0325,1.0555,1.0663,1.0521,1.0636,1.0688,1.0688,1.0688,1.0688,1.0688,1.0688,1.0688,1.0688,1.0688,1.0688,1.0688,1.0688,1.0688,1.0688,1.0688,1.0688,1.0688,1.0688,1.0643,1.05,1.0348,1.0198,1.0021,0.9856,0.9792,0.9792,0.9792,0.9792,0.9792,0.9792,0.9792,0.9792,0.0,0.0,0.0,0.0,0.0,0.0,0.0,0.0,0.0,0.0,0.63,0.63,0.63,0.63,0.63,0.0,0.0,0.0,0.0,0.0,0.0,0.0,0.0,0.0,0.0,0.6454,0.6603,0.6702,0.6867,0.6991,0.7095,0.7095,0.7095,0.7095,0.7095,0.7185,0.0,0.0,0.0,0.0,0.0,0.0,0.0,0.0,0.0,0.0,0.8387,0.8532,0.0,0.0,0.0,0.0,0.0,0.0,0.0,0.0,0.8912,0.8926,0.8997,0.0,0.9068,0.9068,0.9181,0.924,0.0,0.9104,0.921,0.921,0.9066,0.9069,0.9334,0.9441,0.9473,0.9591,0.97,0.9842,0.9967,1.0211,1.0446,1.0599,1.0644,1.0707,1.067,1.0667,1.0688,1.0688,1.0688,1.0688,1.0688,1.0688,1.0688,1.0688,1.0688,1.0688,1.0688,1.0688,1.0688,1.0688,1.0688,1.0688,1.0688,1.0688,1.0667,1.0653,1.0392,1.0259,1.0205,0.993,0.9792,0.9792,0.9792,0.9792,0.9792,0.9792,0.9792,0.9792,0.0,0.0,0.0,0.0,0.0,0.0,0.0,0.0,0.0,0.0,0.0,0.0,0.0,0.0,0.0,0.0,0.0,0.0,0.0,0.0,0.0,0.0,0.0,0.0,0.63,0.6439,0.6532,0.6617,0.6799,0.6945,0.7001,0.7065,0.7095,0.7098,0.7192,0.7333,0.0,0.0,0.0,0.0,0.7983,0.0,0.0,0.0,0.0,0.0,0.8377,0.8509,0.0,0.8808,0.8912,0.8912,0.0,0.0,0.0,0.0,0.8912,0.8912,0.8912,0.8912,0.8912,0.8912,0.897,0.9035,0.8929,0.897,0.9055,0.9055,0.8963,0.896,0.915,0.926,0.9356,0.9479,0.9629,0.9795,1.0117,1.0293,1.0477,1.0694,1.066,1.0643,1.0681,1.0688,1.0688,1.0688,1.0688,1.0688,1.0688,1.0688,1.0688,1.0688,1.0688,1.0688,1.0688,1.0688,1.0688,1.0688,1.0688,1.0688,1.0688,1.0688,1.068,1.0602,1.0378,1.0239,1.0123,0.9886,0.9792,0.9792,0.9792,0.9792,0.9792,0.9792,0.9792,0.9792,0.0,0.0,0.0,0.0,0.0,0.0,0.0,0.0,0.0,0.0,0.0,0.0,0.0,0.0,0.0,0.0,0.0,0.0,0.0,0.0,0.0,0.0,0.0,0.63,0.63,0.6419,0.6481,0.6529,0.6766,0.6894,0.6941,0.7041,0.7109,0.7158,0.7335,0.7491,0.0,0.0,0.0,0.0,0.7988,0.0,0.0,0.0,0.0,0.0,0.0,0.0,0.0,0.8801,0.8896,0.8879,0.8902,0.0,0.0,0.0,0.0,0.0,0.8912,0.8912,0.8912,0.8912,0.8912,0.8912,0.8912,0.8912,0.8912,0.8912,0.8912,0.8919,0.894,0.9089,0.9274,0.9447,0.9595,0.9852,1.0256,1.0346,1.0415,1.0654,1.0605,1.0578,1.0674,1.0688,1.0688,1.0688,1.0688,1.0688,1.0688,1.0688,1.0688,1.0688,1.0688,1.0688,1.0688,1.0688,1.0688,1.0688,1.0688,1.0674,1.0683,1.0683,1.0602,1.0453,1.0307,1.0171,0.9974,0.9852,0.9792,0.9792,0.9792,0.9792,0.9792,0.9792,0.9792,0.9792,0.0,0.0,0.0,0.0,0.0,0.0,0.0,0.0,0.0,0.0,0.0,0.0,0.0,0.0,0.0,0.0,0.0,0.0,0.0,0.0,0.0,0.0,0.6364,0.63,0.63,0.632,0.6437,0.6664,0.6712,0.6843,0.7065,0.7085,0.7188,0.7359,0.7382,0.7546,0.778,0.0,0.0,0.0,0.7988,0.0,0.0,0.0,0.0,0.0,0.0,0.0,0.0,0.8767,0.8825,0.874,0.8872,0.0,0.0,0.0,0.0,0.0,0.8912,0.8912,0.8912,0.8912,0.8912,0.8912,0.8912,0.8912,0.8912,0.8912,0.8912,0.895,0.9124,0.9274,0.9435,0.9707,0.9992,1.0274,1.0432,1.046,1.0524,1.0667,1.0667,1.0694,1.0684,1.0688,1.0688,1.0688,1.0688,1.0688,1.0688,1.0688,1.0688,1.0688,1.0688,1.0688,1.0688,1.0688,1.0688,1.0688,1.0688,1.0653,1.0527,1.0527,1.0449,1.0304,1.012,1.0038,0.9974,0.9852,0.9792,0.9792,0.9792,0.9792,0.9792,0.9792,0.9792,0.9792,0.0,0.0,0.0,0.0,0.0,0.0,0.0,0.0,0.0,0.0,0.0,0.0,0.0,0.0,0.0,0.0,0.0,0.0,0.0,0.0,0.0,0.6395,0.6409,0.6378,0.6303,0.6375,0.646,0.6597,0.6742,0.6874,0.6984,0.7061,0.7202,0.7396,0.7481,0.7611,0.7818,0.7875,0.0,0.0,0.0,0.0,0.0,0.0,0.0,0.0,0.0,0.0,0.0,0.0,0.874,0.871,0.8865,0.0,0.0,0.0,0.0,0.0,0.8912,0.8912,0.8912,0.8912,0.8848,0.8767,0.871,0.8693,0.8737,0.8879,0.8912,0.898,0.9264,0.943,0.9602,0.9866,1.0198,1.0419,1.0483,1.049,1.0548,1.0671,1.0646,1.0629,1.0677,1.0688,1.0688,1.0688,1.0688,1.0688,1.0688,1.0688,1.0688,1.0688,1.0688,1.0688,1.0688,1.0688,1.0644,1.0599,1.068,1.0602,1.0382,1.0456,1.0368,1.012,1.0049,0.9971,0.989,0.9819,0.9792,0.9792,0.9792,0.9792,0.9792,0.9792,0.9792,0.9792,0.0,0.0,0.0,0.0,0.0,0.0,0.0,0.0,0.0,0.0,0.0,0.0,0.0,0.0,0.0,0.0,0.0,0.0,0.0,0.0,0.633,0.6402,0.6454,0.646,0.6351,0.6471,0.6563,0.66,0.6793,0.6924,0.6958,0.7045,0.7219,0.7454,0.7546,0.7699,0.7847,0.7966,0.7988,0.0,0.0,0.0,0.0,0.0,0.0,0.0,0.0,0.0,0.0,0.0,0.0,0.0,0.0,0.0,0.0,0.8899,0.8912,0.8912,0.8912,0.8912,0.8902,0.8869,0.8798,0.8743,0.8685,0.8665,0.8743,0.896,0.9014,0.9085,0.934,0.9561,0.9778,1.0072,1.0371,1.0544,1.0544,1.0544,1.0588,1.0707,1.0616,1.0592,1.0677,1.0688,1.0688,1.0688,1.0688,1.0688,1.0688,1.0688,1.0688,1.0688,1.0688,1.0688,1.0688,1.0688,1.0643,1.0493,1.0612,1.0514,1.0229,1.0337,1.0243,0.9964,0.9964,0.99,0.9792,0.9792,0.9792,0.9792,0.9792,0.9792,0.9792,0.9792,0.9792,0.9792,0.0,0.0,0.0,0.0,0.0,0.0,0.0,0.0,0.0,0.0,0.0,0.0,0.0,0.0,0.0,0.0,0.0,0.0,0.0,0.0,0.6403,0.6658,0.6563,0.6488,0.6477,0.6627,0.6753,0.6874,0.6897,0.6975,0.7082,0.7092,0.7276,0.7584,0.7594,0.7732,0.7975,0.7985,0.7988,0.7988,0.7988,0.0,0.0,0.0,0.0,0.0,0.0,0.0,0.0,0.0,0.0,0.0,0.0,0.0,0.8727,0.8869,0.8912,0.8912,0.8912,0.8912,0.8879,0.8737,0.8798,0.8926,0.9104,0.9163,0.9179,0.9345,0.9379,0.9386,0.9407,0.97,1.0082,1.0412,1.0599,1.0704,1.0704,1.0704,1.0674,1.0684,1.0677,1.0674,1.0684,1.0688,1.0688,1.0688,1.0688,1.0688,1.0688,1.0688,1.0688,1.0688,1.0688,1.0688,1.0688,1.0688,1.0643,1.049,1.0504,1.0354,1.0004,1.0045,0.9961,0.9805,0.9805,0.9802,0.9792,0.9792,0.9792,0.9792,0.9792,0.9792,0.9792,0.9792,0.9792,0.9792,0.0,0.0,0.0,0.0,0.0,0.0,0.0,0.0,0.0,0.0,0.0,0.0,0.0,0.0,0.0,0.0,0.0,0.0,0.0,0.0,0.6388,0.6569,0.6617,0.6658,0.6756,0.6793,0.685,0.6908,0.6974,0.7045,0.7095,0.7095,0.7283,0.76,0.76,0.7739,0.7988,0.7988,0.7988,0.7988,0.7988,0.7988,0.0,0.0,0.0,0.0,0.0,0.0,0.0,0.0,0.8447,0.8475,0.8713,0.8794,0.8835,0.8892,0.8912,0.8912,0.8912,0.8912,0.8896,0.8838,0.8869,0.8899,0.8886,0.895,0.9089,0.9359,0.9456,0.9608,0.992,1.008,1.029,1.0585,1.068,1.0688,1.0688,1.0688,1.0688,1.0688,1.0688,1.0688,1.0688,1.0688,1.0688,1.0688,1.0688,1.0688,1.0688,1.0688,1.0688,1.0688,1.0688,1.0673,1.0578,1.0578,1.0456,1.0187,1.0402,1.0287,0.9879,0.9974,0.9934,0.9792,0.9792,0.9792,0.9792,0.9792,0.9792,0.9792,0.9792,0.9792,0.9792,0.9792,0.9792,0.9792,0.0,0.0,0.0,0.0,0.0,0.0,0.0,0.0,0.0,0.0,0.0,0.0,0.0,0.0,0.0,0.0,0.0,0.0,0.63,0.634,0.6433,0.6556,0.6692,0.6823,0.6972,0.6953,0.6953,0.6953,0.7048,0.7095,0.7095,0.7095,0.7283,0.76,0.76,0.7739,0.7988,0.7988,0.7988,0.7988,0.7988,0.7988,0.0,0.0,0.0,0.0,0.0,0.0,0.0,0.0,0.8328,0.8387,0.0,0.0,0.8787,0.8882,0.8879,0.8838,0.8838,0.8838,0.8828,0.8781,0.8872,0.8977,0.8876,0.9008,0.9207,0.953,0.9676,0.9859,1.0215,1.0312,1.0361,1.0609,1.0654,1.0688,1.0688,1.0688,1.0688,1.0688,1.0688,1.0688,1.0688,1.0688,1.0688,1.0688,1.0688,1.0688,1.0688,1.0688,1.0688,1.0688,1.0673,1.0599,1.0493,1.0449,1.03,0.9987,1.0224,1.0164,0.9795,0.99,0.989,0.9792,0.9792,0.9792,0.9792,0.9792,0.9792,0.9792,0.9792,0.9792,0.9792,0.9792,0.9792,0.9792,0.0,0.0,0.0,0.0,0.0,0.0,0.0,0.0,0.0,0.0,0.0,0.0,0.0,0.0,0.0,0.0,0.0,0.0,0.6303,0.6433,0.6559,0.6695,0.6826,0.6953,0.7092,0.7095,0.7095,0.7095,0.7095,0.7095,0.7095,0.7095,0.7283,0.76,0.76,0.7739,0.7988,0.7988,0.7988,0.7988,0.7988,0.7988,0.7988,0.0,0.0,0.0,0.0,0.0,0.0,0.0,0.817,0.8094,0.0,0.0,0.0,0.8821,0.8804,0.8713,0.8713,0.8713,0.8672,0.8523,0.8849,0.9207,0.921,0.942,0.9663,0.9957,0.9987,1.0069,1.0253,1.0315,1.0363,1.047,1.0622,1.0688,1.0688,1.0688,1.0688,1.0688,1.0688,1.0688,1.0688,1.0688,1.0688,1.0688,1.0688,1.0688,1.0684,1.0684,1.0684,1.0684,1.0568,1.0487,1.0487,1.0348,1.0202,0.9984,0.9984,0.9937,0.9792,0.9792,0.9792,0.9792,0.9792,0.9792,0.9792,0.9792,0.9792,0.9792,0.9792,0.9792,0.9792,0.9792,0.9792,0.9792,0.0,0.0,0.0,0.0,0.0,0.0,0.0,0.0,0.0,0.0,0.0,0.0,0.0,0.0,0.0,0.0,0.0,0.0,0.6443,0.6471,0.6607,0.683,0.6884,0.6953,0.7092,0.7095,0.7095,0.7095,0.7095,0.7095,0.7095,0.7095,0.7283,0.76,0.76,0.7739,0.7988,0.7988,0.7988,0.7988,0.7988,0.7988,0.7988,0.0,0.0,0.0,0.0,0.0,0.0,0.0,0.0,0.0,0.8604,0.0,0.8682,0.8852,0.8879,0.8841,0.8841,0.8767,0.8726,0.876,0.8875,0.9055,0.9294,0.9466,0.9663,0.9957,1.0106,1.0256,1.0402,1.0429,1.0477,1.0629,1.0657,1.0688,1.0688,1.0688,1.0688,1.0688,1.0688,1.0688,1.0688,1.0688,1.0688,1.0688,1.0688,1.0673,1.0565,1.0561,1.0514,1.0415,1.0368,1.029,1.015,1.0106,1.0011,0.9859,0.9859,0.9836,0.9792,0.9792,0.9792,0.9792,0.9792,0.9792,0.9792,0.9792,0.9792,0.9792,0.9792,0.9792,0.9792,0.9792,0.9792,0.9792,0.0,0.0,0.0,0.0,0.0,0.0,0.0,0.0,0.0,0.0,0.0,0.0,0.0,0.0,0.0,0.0,0.0,0.0,0.0,0.6549,0.6671,0.6897,0.6962,0.7007,0.7095,0.7095,0.7095,0.7095,0.7095,0.7095,0.7098,0.7181,0.7363,0.76,0.7658,0.7793,0.7988,0.7988,0.7988,0.7995,0.8081,0.8071,0.7995,0.0,0.0,0.0,0.0,0.0,0.0,0.0,0.0,0.0,0.8635,0.871,0.8726,0.8794,0.8821,0.8794,0.8679,0.8648,0.8642,0.8706,0.8893,0.9117,0.9473,0.9724,0.9961,1.0221,1.0341,1.0388,1.0477,1.049,1.0521,1.0616,1.068,1.0688,1.0688,1.0688,1.0688,1.0688,1.0688,1.0688,1.0688,1.0688,1.0688,1.0688,1.0663,1.0588,1.0497,1.0439,1.0368,1.0315,1.0219,1.0113,0.9987,0.9957,0.9883,0.9792,0.9792,0.9792,0.9792,0.9792,0.9792,0.9792,0.9792,0.9792,0.9792,0.9792,0.9792,0.9792,0.9792,0.9792,0.9792,0.9792,0.9792,0.9792,0.0,0.0,0.0,0.0,0.0,0.0,0.0,0.0,0.0,0.0,0.0,0.0,0.0,0.0,0.0,0.0,0.0,0.0,0.0,0.0,0.679,0.6921,0.7028,0.7095,0.7095,0.7095,0.7095,0.7095,0.7095,0.7102,0.7122,0.7305,0.7481,0.7624,0.7753,0.7871,0.7988,0.7988,0.7988,0.8027,0.8194,0.8167,0.803,0.8197,0.0,0.0,0.0,0.0,0.0,0.0,0.0,0.0,0.8679,0.8713,0.8696,0.8723,0.8713,0.8635,0.8406,0.842,0.8515,0.8516,0.889,0.9335,0.9744,1.0056,1.0341,1.0622,1.0592,1.0514,1.0514,1.0514,1.0514,1.0514,1.0629,1.0688,1.0688,1.0688,1.0688,1.0688,1.0688,1.0688,1.0688,1.0688,1.0681,1.0667,1.0571,1.048,1.0453,1.0331,1.0284,1.0239,1.0069,0.9998,0.9998,0.9859,0.9792,0.9792,0.9792,0.9785,0.9771,0.9785,0.9792,0.9792,0.9792,0.9792,0.9792,0.9792,0.9792,0.9792,0.9792,0.9792,0.9792,0.9792,0.9792,0.9792,0.0,0.0,0.0,0.0,0.0,0.0,0.0,0.0,0.0,0.0,0.0,0.0,0.0,0.0,0.0,0.0,0.0,0.0,0.0,0.0,0.6924,0.7045,0.7082,0.7095,0.7095,0.7095,0.7095,0.7095,0.7095,0.7181,0.7345,0.7379,0.7536,0.7767,0.7797,0.7871,0.7988,0.7988,0.7988,0.7992,0.805,0.8044,0.7992,0.805,0.8143,0.0,0.0,0.0,0.0,0.0,0.0,0.0,0.8777,0.8723,0.8577,0.8791,0.872,0.8543,0.8601,0.855,0.854,0.8754,0.9178,0.9598,0.9896,1.0021,1.012,1.0337,1.0534,1.067,1.067,1.067,1.067,1.067,1.0667,1.0688,1.0688,1.0688,1.0688,1.0688,1.0688,1.0688,1.0688,1.0688,1.067,1.0551,1.051,1.0392,1.0126,1.0082,1.0015,0.9924,0.9856,0.9839,0.9839,0.9805,0.9792,0.9792,0.9792,0.9734,0.9659,0.9741,0.9792,0.9792,0.9792,0.9792,0.9792,0.9792,0.9792,0.9792,0.9792,0.9792,0.9792,0.9792,0.9792,0.9792,0.0,0.0,0.0,0.0,0.0,0.0,0.0,0.0,0.0,0.0,0.0,0.0,0.0,0.0,0.0,0.0,0.0,0.0,0.0,0.0,0.0,0.7088,0.7095,0.7095,0.7095,0.7095,0.7095,0.7095,0.7192,0.7292,0.7396,0.7539,0.7665,0.7814,0.7864,0.7939,0.7988,0.7988,0.7988,0.7995,0.8094,0.815,0.815,0.815,0.8241,0.8396,0.8396,0.0,0.0,0.0,0.0,0.0,0.0,0.0,0.8716,0.8777,0.874,0.8672,0.8537,0.8543,0.8662,0.8967,0.9378,0.9741,0.9967,0.9987,1.0062,1.0249,1.0402,1.0531,1.0599,1.0555,1.0531,1.0599,1.0555,1.0534,1.0602,1.0612,1.0636,1.0677,1.0688,1.0688,1.0688,1.0688,1.0623,1.0504,1.0429,1.029,1.0,0.9947,0.9873,0.9792,0.9792,0.9792,0.9792,0.9792,0.9758,0.969,0.969,0.9642,0.9503,0.9578,0.9608,0.9608,0.9608,0.9652,0.969,0.969,0.9727,0.9792,0.9792,0.9792,0.9792,0.9792,0.9792,0.9792,0.0,0.0,0.0,0.0,0.0,0.0,0.0,0.0,0.0,0.0,0.0,0.0,0.0,0.0,0.0,0.0,0.0,0.0,0.0,0.0,0.0,0.7092,0.7095,0.7095,0.7095,0.7095,0.7109,0.7158,0.7336,0.7447,0.7474,0.7695,0.78,0.7834,0.7959,0.7988,0.7988,0.7988,0.7988,0.803,0.8208,0.8281,0.826,0.8284,0.8386,0.8509,0.8509,0.8598,0.874,0.8869,0.0,0.0,0.0,0.0,0.8852,0.875,0.8774,0.8757,0.8464,0.8543,0.8815,0.9114,0.9473,0.9795,0.9944,0.9981,1.0015,1.0175,1.0274,1.0317,1.0465,1.0358,1.0352,1.0436,1.0354,1.0352,1.0439,1.0456,1.0504,1.0629,1.0643,1.0643,1.0643,1.0643,1.0582,1.0426,1.0307,1.0175,0.9988,0.9836,0.9754,0.9754,0.9727,0.9744,0.9744,0.9744,0.9686,0.9568,0.9544,0.9462,0.9369,0.9317,0.9334,0.941,0.941,0.9452,0.9571,0.9571,0.9656,0.9754,0.9754,0.9768,0.9792,0.9792,0.9792,0.9792,0.0,0.0,0.0,0.0,0.0,0.0,0.0,0.0,0.0,0.0,0.0,0.0,0.0,0.0,0.0,0.0,0.0,0.0,0.0,0.0,0.0,0.7095,0.7095,0.7095,0.7095,0.7095,0.7185,0.7365,0.7495,0.7631,0.7753,0.7794,0.7858,0.7986,0.7982,0.7988,0.7988,0.7988,0.7988,0.803,0.8208,0.8191,0.806,0.8243,0.8386,0.8509,0.8509,0.8665,0.8882,0.8902,0.8912,0.0,0.0,0.0,0.8737,0.8848,0.8706,0.856,0.8632,0.875,0.8919,0.9141,0.9427,0.9676,0.9788,0.9819,0.9829,0.9846,1.0093,1.0318,1.0304,1.0325,1.0318,1.0304,1.0325,1.0318,1.0307,1.0342,1.0317,1.0337,1.0337,1.0337,1.0337,1.0337,1.0273,1.0089,1.0059,0.9981,0.9829,0.9687,0.9639,0.9639,0.951,0.9439,0.9439,0.9439,0.9432,0.9437,0.9305,0.9233,0.9206,0.9055,0.914,0.941,0.941,0.9424,0.9441,0.9441,0.95,0.9639,0.9639,0.9683,0.9792,0.9792,0.9792,0.9792,0.0,0.0,0.0,0.0,0.0,0.0,0.0,0.0,0.0,0.0,0.0,0.0,0.0,0.0,0.0,0.0,0.0,0.0,0.0,0.0,0.0,0.7095,0.7095,0.7095,0.7095,0.7095,0.7195,0.7393,0.7522,0.7672,0.7814,0.7875,0.7949,0.7988,0.7988,0.7988,0.7988,0.7988,0.7988,0.802,0.8088,0.8074,0.802,0.8091,0.8282,0.8509,0.8509,0.8679,0.8899,0.8814,0.8841,0.8882,0.871,0.0,0.0,0.0,0.8747,0.8727,0.8791,0.8798,0.8866,0.9124,0.9284,0.942,0.954,0.9642,0.9703,0.9703,0.9873,1.0049,1.0134,1.008,1.0049,1.0106,1.008,1.0053,1.0106,1.012,1.0181,1.0301,1.0312,1.0312,1.0312,1.0312,1.0215,1.0032,0.9987,0.9917,0.9683,0.9642,0.9571,0.9486,0.9444,0.941,0.941,0.941,0.9366,0.9281,0.9103,0.9032,0.9032,0.894,0.898,0.9133,0.9133,0.9181,0.9281,0.9281,0.9373,0.949,0.9578,0.9649,0.971,0.9761,0.9792,0.9792,0.0,0.0,0.0,0.0,0.0,0.0,0.0,0.0,0.0,0.0,0.0,0.0,0.0,0.0,0.0,0.0,0.0,0.0,0.0,0.0,0.0,0.7095,0.7095,0.7095,0.7095,0.7158,0.7275,0.7454,0.758,0.7729,0.7847,0.7962,0.7988,0.7988,0.7988,0.7988,0.7988,0.7988,0.7988,0.7988,0.7988,0.7993,0.7956,0.7956,0.8094,0.8323,0.8427,0.8598,0.8784,0.8733,0.8784,0.8865,0.8625,0.8723,0.0,0.0,0.0,0.8852,0.8852,0.8798,0.8821,0.907,0.9155,0.9223,0.9376,0.9469,0.9551,0.9551,0.9666,0.9771,0.9886,0.9842,0.9829,0.994,0.9863,0.9832,0.9944,0.9961,1.0001,1.0151,1.0164,1.0164,1.0164,1.0164,1.0117,0.9967,0.9927,0.9812,0.9622,0.9537,0.9442,0.9356,0.9286,0.9269,0.9269,0.9269,0.9211,0.9124,0.8963,0.8912,0.8912,0.8912,0.8912,0.8912,0.8912,0.897,0.9128,0.9128,0.9216,0.9362,0.9449,0.9517,0.9568,0.9713,0.9741,0.972,0.0,0.0,0.0,0.0,0.0,0.0,0.0,0.0,0.0,0.0,0.0,0.0,0.0,0.0,0.6549,0.6675,0.6813,0.6968,0.7088,0.7095,0.7095,0.7095,0.7095,0.0,0.7095,0.7285,0.7457,0.7587,0.7729,0.7854,0.8003,0.7985,0.7988,0.7988,0.7988,0.7988,0.7988,0.7988,0.7988,0.7988,0.7988,0.7929,0.78,0.78,0.7831,0.7882,0.8202,0.8403,0.8526,0.8665,0.8784,0.8882,0.8723,0.8781,0.8882,0.0,0.0,0.0,0.8723,0.8794,0.8902,0.8919,0.9052,0.9223,0.9376,0.9417,0.9424,0.9424,0.9513,0.9625,0.9632,0.9707,0.9792,0.9802,0.9795,0.9795,0.9802,0.9802,0.9805,0.9812,0.9815,0.9815,0.9815,0.9815,0.9812,0.9802,0.9677,0.9625,0.9608,0.9362,0.9228,0.9221,0.9032,0.8933,0.8933,0.8933,0.8929,0.8923,0.8916,0.8912,0.8912,0.8912,0.8912,0.8912,0.8912,0.8916,0.8923,0.8923,0.9035,0.9221,0.9231,0.9294,0.9441,0.9564,0.953,0.9445,0.0,0.0,0.0,0.0,0.0,0.0,0.0,0.0,0.0,0.0,0.0,0.0,0.0,0.6675,0.6766,0.6823,0.6958,0.7041,0.7092,0.7095,0.7095,0.7095,0.7095,0.7095,0.7095,0.7292,0.7471,0.76,0.7743,0.7864,0.7988,0.7988,0.7988,0.7988,0.7988,0.7988,0.7988,0.7988,0.7988,0.7982,0.7908,0.778,0.7685,0.7777,0.7811,0.7851,0.8185,0.8451,0.8621,0.8577,0.873,0.8869,0.8645,0.8669,0.8754,0.8726,0.8754,0.8828,0.8828,0.8798,0.8787,0.8885,0.8832,0.8791,0.8916,0.9025,0.9071,0.9071,0.9293,0.9462,0.9462,0.9659,0.9761,0.97,0.9731,0.9758,0.9696,0.9734,0.9792,0.9792,0.9792,0.9792,0.9792,0.9707,0.9686,0.9686,0.9547,0.9418,0.9349,0.924,0.9138,0.9018,0.8936,0.8912,0.8912,0.8912,0.8912,0.8912,0.8912,0.8912,0.8912,0.8912,0.8912,0.8912,0.8912,0.8912,0.8912,0.8912,0.894,0.9025,0.9145,0.9245,0.9281,0.9434,0.949,0.953,0.0,0.0,0.0,0.0,0.0,0.0,0.0,0.0,0.0,0.0,0.0,0.0,0.0,0.0,0.6928,0.6953,0.7041,0.7095,0.7095,0.7095,0.7095,0.7095,0.7095,0.7144,0.7195,0.737,0.7542,0.7672,0.7793,0.7915,0.7988,0.7988,0.7988,0.7988,0.7988,0.7988,0.7992,0.8071,0.8091,0.8077,0.7925,0.7862,0.7824,0.7814,0.7817,0.7898,0.8202,0.8423,0.8547,0.8471,0.8577,0.8716,0.8489,0.8505,0.8581,0.8679,0.872,0.8781,0.8882,0.8838,0.8784,0.8885,0.8757,0.8648,0.8699,0.8764,0.8821,0.877,0.9025,0.9232,0.9232,0.9473,0.9642,0.9547,0.9612,0.9639,0.9547,0.9612,0.9673,0.9673,0.9673,0.9673,0.9673,0.9588,0.9534,0.9534,0.9347,0.9211,0.9214,0.9087,0.8984,0.8912,0.8862,0.8835,0.8835,0.8784,0.8757,0.8757,0.8757,0.8784,0.8835,0.8835,0.8862,0.8912,0.8912,0.8912,0.8912,0.8912,0.8912,0.8919,0.9045,0.9111,0.9128,0.9277,0.9337,0.9355,0.0,0.0,0.0,0.0,0.0,0.0,0.0,0.0,0.0,0.0,0.0,0.0,0.0,0.0,0.0,0.7085,0.7095,0.7095,0.7095,0.7095,0.7095,0.7095,0.7098,0.7195,0.7389,0.7526,0.7675,0.7811,0.7939,0.7988,0.7988,0.7988,0.7988,0.7988,0.7988,0.7988,0.8027,0.8201,0.8294,0.8281,0.8071,0.8126,0.8257,0.7926,0.7878,0.803,0.8208,0.8294,0.8301,0.8298,0.8396,0.8495,0.8349,0.8304,0.8359,0.8618,0.8601,0.8554,0.0,0.0,0.0,0.8912,0.8906,0.8865,0.8716,0.8706,0.8662,0.8539,0.872,0.8896,0.8896,0.9161,0.9383,0.9383,0.9396,0.941,0.9403,0.9407,0.941,0.941,0.941,0.941,0.941,0.9407,0.9403,0.9403,0.9071,0.8991,0.9187,0.8862,0.8743,0.8892,0.8754,0.8703,0.8703,0.8557,0.8509,0.8509,0.8509,0.8564,0.871,0.871,0.8767,0.8912,0.8912,0.8912,0.8912,0.8912,0.8912,0.8912,0.8912,0.8912,0.8926,0.9124,0.9062,0.8956,0.0,0.0,0.0,0.0,0.0,0.0,0.0,0.0,0.0,0.0,0.0,0.0,0.6985,0.7011,0.7055,0.7092,0.7095,0.7095,0.7095,0.7095,0.7095,0.7095,0.7248,0.7348,0.7393,0.7621,0.7773,0.7811,0.7939,0.7988,0.7988,0.7988,0.7988,0.7988,0.7988,0.7988,0.7992,0.806,0.8167,0.8274,0.798,0.7942,0.8057,0.7861,0.7814,0.7868,0.8023,0.8241,0.8434,0.8332,0.8513,0.874,0.8506,0.8451,0.8464,0.8546,0.8594,0.8689,0.8858,0.0,0.0,0.0,0.0,0.0,0.872,0.8625,0.8533,0.8515,0.855,0.8608,0.8608,0.8676,0.8757,0.8757,0.9124,0.9373,0.926,0.9339,0.941,0.941,0.941,0.941,0.941,0.9311,0.9243,0.9243,0.894,0.8791,0.8832,0.8648,0.8564,0.8608,0.8567,0.8547,0.8547,0.8529,0.8509,0.8509,0.8509,0.8564,0.871,0.871,0.8767,0.8912,0.8912,0.8912,0.8912,0.8912,0.8912,0.8912,0.8912,0.8912,0.8916,0.8956,0.9039,0.9117,0.0,0.0,0.0,0.0,0.0,0.0,0.0,0.0,0.0,0.0,0.0,0.0,0.7088,0.7095,0.7095,0.7095,0.7095,0.7095,0.7095,0.7095,0.7148,0.7212,0.7345,0.7454,0.7553,0.7723,0.7817,0.7881,0.7969,0.7988,0.7988,0.0,0.0,0.7988,0.7988,0.7988,0.7988,0.7988,0.8138,0.8369,0.8163,0.8184,0.827,0.8082,0.8038,0.8096,0.8126,0.8248,0.8396,0.8225,0.8391,0.8628,0.8475,0.8461,0.8509,0.8509,0.8591,0.873,0.8791,0.8862,0.8912,0.8912,0.0,0.0,0.8645,0.8547,0.8471,0.8323,0.835,0.842,0.842,0.8468,0.8509,0.8509,0.8805,0.9002,0.8913,0.8978,0.9032,0.9032,0.9062,0.91,0.91,0.9079,0.9066,0.8998,0.875,0.8587,0.853,0.8526,0.8509,0.8509,0.8451,0.842,0.842,0.833,0.8299,0.8299,0.8299,0.8377,0.853,0.8587,0.8699,0.8821,0.8882,0.8912,0.8912,0.8912,0.8912,0.8912,0.8912,0.8912,0.8912,0.8912,0.8963,0.9052,0.0,0.0,0.0,0.0,0.0,0.0,0.0,0.0,0.0,0.0,0.7018,0.7109,0.7142,0.7115,0.7102,0.7122,0.7144,0.7144,0.7144,0.7136,0.7229,0.7413,0.7433,0.7566,0.7804,0.7828,0.7878,0.7988,0.0,0.0,0.0,0.0,0.0,0.0,0.0,0.7988,0.7992,0.805,0.8206,0.8485,0.8485,0.855,0.8655,0.8403,0.8362,0.8418,0.8315,0.8281,0.8277,0.8104,0.8157,0.8277,0.8308,0.8383,0.8442,0.8519,0.8591,0.8693,0.8726,0.8808,0.8912,0.8912,0.8912,0.0,0.8594,0.8546,0.8431,0.8142,0.8211,0.8318,0.8318,0.8423,0.8509,0.8509,0.8495,0.8492,0.8505,0.8509,0.8509,0.8509,0.8618,0.8703,0.8686,0.8794,0.8821,0.8696,0.8547,0.842,0.8277,0.8389,0.8431,0.8431,0.8335,0.827,0.827,0.8084,0.7988,0.7988,0.7988,0.8098,0.8301,0.8444,0.8567,0.8716,0.8828,0.8896,0.8909,0.8892,0.8896,0.8912,0.8912,0.8912,0.8912,0.8912,0.8912,0.8912,0.0,0.0,0.0,0.0,0.0,0.0,0.0,0.0,0.7055,0.7055,0.7078,0.7212,0.7482,0.7266,0.7168,0.7316,0.7348,0.7348,0.7348,0.7441,0.7522,0.7553,0.7665,0.7753,0.7811,0.7908,0.7986,0.7988,0.0,0.0,0.0,0.0,0.0,0.0,0.0,0.7988,0.803,0.8296,0.8389,0.8338,0.8338,0.8423,0.8536,0.8362,0.8211,0.8098,0.8071,0.8163,0.8308,0.8367,0.8258,0.8101,0.8364,0.8296,0.8172,0.856,0.8601,0.8581,0.8801,0.8889,0.8912,0.8912,0.8912,0.0,0.8835,0.8727,0.8648,0.8564,0.8506,0.8468,0.8468,0.8488,0.8509,0.8509,0.8413,0.8376,0.8492,0.8509,0.8509,0.8509,0.8618,0.8662,0.8537,0.8665,0.8693,0.8537,0.842,0.8245,0.8067,0.8084,0.8101,0.8101,0.8074,0.806,0.806,0.803,0.7988,0.7988,0.7988,0.8098,0.8301,0.8444,0.8567,0.8713,0.8716,0.8798,0.8902,0.8777,0.8801,0.8912,0.8912,0.8912,0.8912,0.8912,0.8912,0.8912,0.0,0.7048,0.0,0.0,0.0,0.0,0.0,0.0,0.7149,0.7327,0.7347,0.7397,0.7498,0.7346,0.7319,0.7495,0.7437,0.0,0.7505,0.7556,0.7631,0.7702,0.7773,0.782,0.7898,0.7976,0.7988,0.7988,0.0,0.0,0.0,0.0,0.0,0.0,0.7983,0.7973,0.7915,0.8142,0.8306,0.8403,0.8403,0.8403,0.8386,0.8211,0.8081,0.7988,0.7988,0.8064,0.8167,0.8238,0.8262,0.8272,0.8376,0.8377,0.8378,0.855,0.8598,0.8628,0.8754,0.8852,0.8912,0.8912,0.8912,0.0,0.0,0.8737,0.8689,0.8611,0.8533,0.8509,0.8509,0.8509,0.8509,0.8509,0.8389,0.8345,0.8488,0.8353,0.8262,0.8262,0.8397,0.8488,0.841,0.8509,0.8533,0.8413,0.8241,0.8098,0.7992,0.7988,0.7988,0.7988,0.7988,0.7988,0.7988,0.7988,0.7988,0.7988,0.7988,0.8054,0.816,0.8335,0.8444,0.8496,0.8567,0.8638,0.871,0.871,0.871,0.8726,0.8852,0.8912,0.8912,0.8912,0.8912,0.8912,0.7134,0.7161,0.7171,0.0,0.0,0.0,0.0,0.0,0.7303,0.7604,0.7617,0.7573,0.7529,0.7444,0.7467,0.7624,0.7498,0.7471,0.7628,0.7641,0.7692,0.7804,0.7814,0.7875,0.7969,0.8,0.7988,0.7988,0.0,0.0,0.0,0.0,0.7949,0.7834,0.7929,0.7935,0.7906,0.7976,0.8169,0.8468,0.8468,0.8434,0.8366,0.8159,0.8084,0.8054,0.8027,0.7988,0.7995,0.8047,0.8225,0.8391,0.8389,0.8459,0.8581,0.857,0.8615,0.8679,0.871,0.8818,0.8912,0.8912,0.8912,0.8879,0.0,0.0,0.0,0.8598,0.857,0.857,0.857,0.857,0.857,0.857,0.8475,0.842,0.8509,0.8296,0.8111,0.8138,0.8228,0.8308,0.8335,0.8417,0.8406,0.8264,0.8136,0.8047,0.7992,0.7988,0.7988,0.7988,0.7988,0.7988,0.7988,0.7988,0.7988,0.7988,0.7988,0.7988,0.7995,0.8201,0.8298,0.8304,0.8417,0.8485,0.8515,0.8584,0.857,0.8539,0.8791,0.8892,0.8872,0.8899,0.8912,0.8912,0.7338,0.7369,0.7413,0.7522,0.0,0.0,0.0,0.0,0.7604,0.7767,0.7678,0.7692,0.7912,0.7607,0.7508,0.7763,0.7556,0.7512,0.777,0.7787,0.7794,0.7811,0.7915,0.7935,0.7814,0.7946,0.7988,0.7988,0.0,0.0,0.0,0.0,0.0,0.7983,0.7864,0.798,0.8236,0.8067,0.8115,0.8321,0.8321,0.8468,0.8645,0.8489,0.8379,0.825,0.8064,0.7988,0.8037,0.8197,0.8177,0.8131,0.854,0.8385,0.8192,0.8706,0.8706,0.8567,0.8811,0.8896,0.8912,0.8912,0.8912,0.8906,0.8889,0.0,0.8879,0.8865,0.0,0.8858,0.8858,0.0,0.0,0.8858,0.8733,0.8665,0.8682,0.8537,0.8482,0.8618,0.8418,0.8345,0.8471,0.8386,0.8231,0.805,0.8177,0.8184,0.802,0.7988,0.7988,0.7988,0.7988,0.7988,0.7988,0.7988,0.7988,0.7988,0.7988,0.7988,0.7995,0.8201,0.8298,0.8298,0.8315,0.8393,0.8498,0.8393,0.841,0.8539,0.8791,0.8828,0.8727,0.8862,0.8912,0.8912,0.7399,0.7393,0.7416,0.7478,0.0,0.0,0.0,0.0,0.779,0.7702,0.7763,0.7844,0.7878,0.774,0.7712,0.7902,0.7675,0.7631,0.7898,0.7837,0.7827,0.7915,0.7979,0.7986,0.7918,0.7983,0.7988,0.7988,0.7988,0.0,0.0,0.0,0.0,0.7982,0.7854,0.7933,0.8126,0.7949,0.8096,0.8413,0.8328,0.8471,0.8676,0.8324,0.8162,0.8104,0.8037,0.7988,0.8027,0.8088,0.8153,0.8191,0.8263,0.823,0.8238,0.8574,0.8581,0.855,0.8828,0.8845,0.8801,0.8889,0.8845,0.8801,0.8889,0.8912,0.8912,0.8912,0.0,0.0,0.0,0.0,0.0,0.0,0.8784,0.8716,0.8801,0.8635,0.8532,0.857,0.8495,0.841,0.8389,0.8225,0.8084,0.7995,0.8074,0.8084,0.7992,0.7988,0.7988,0.7988,0.7988,0.7988,0.7988,0.7988,0.7988,0.7988,0.7988,0.7988,0.7992,0.8081,0.8136,0.8136,0.8136,0.817,0.8228,0.8284,0.8252,0.823,0.8557,0.8635,0.8598,0.8723,0.8781,0.8791,0.7459,0.7224,0.7069,0.7439,0.7322,0.7289,0.7665,0.7878,0.7939,0.7722,0.7881,0.7973,0.7861,0.7851,0.7895,0.8003,0.778,0.7726,0.7939,0.7888,0.7844,0.7831,0.8027,0.806,0.7898,0.8017,0.8057,0.7988,0.0,0.0,0.0,0.0,0.0,0.0,0.7898,0.7935,0.8067,0.7915,0.8085,0.8437,0.8291,0.8336,0.847,0.8186,0.805,0.7988,0.7988,0.7988,0.7995,0.8064,0.815,0.8201,0.8145,0.818,0.8245,0.8454,0.8481,0.8515,0.8767,0.8767,0.872,0.8872,0.8828,0.8774,0.8885,0.8912,0.8912,0.8912,0.8912,0.0,0.0,0.0,0.8912,0.8912,0.0,0.8784,0.8896,0.872,0.8621,0.8689,0.8632,0.8533,0.8372,0.8228,0.8118,0.8081,0.8077,0.8057,0.7992,0.7988,0.7988,0.7988,0.7988,0.7988,0.7988,0.7988,0.7988,0.7988,0.7988,0.7988,0.7988,0.7988,0.7988,0.7988,0.7988,0.7988,0.8023,0.816,0.814,0.8037,0.8275,0.836,0.8391,0.8625,0.871,0.873,0.7502,0.6742,0.6265,0.7554,0.6825,0.6482,0.7778,0.7985,0.7985,0.7978,0.7985,0.7988,0.7982,0.7982,0.7985,0.7988,0.7871,0.7807,0.7818,0.7929,0.7817,0.7433,0.8107,0.8201,0.7628,0.8066,0.8191,0.7988,0.7988,0.0,0.0,0.0,0.0,0.0,0.7985,0.8091,0.8277,0.8074,0.8126,0.8287,0.8084,0.8027,0.805,0.8211,0.817,0.7988,0.7988,0.7988,0.8037,0.8236,0.8167,0.8071,0.8381,0.8275,0.8081,0.8397,0.841,0.8366,0.8638,0.8713,0.872,0.8872,0.8906,0.8906,0.8909,0.8912,0.8912,0.8912,0.8912,0.8912,0.8912,0.8912,0.8912,0.0,0.8906,0.0,0.0,0.8902,0.895,0.9145,0.9008,0.8777,0.8532,0.8498,0.8437,0.8301,0.8287,0.8197,0.7998,0.7988,0.7988,0.7988,0.7988,0.7988,0.7988,0.7988,0.7988,0.7988,0.7988,0.7988,0.7988,0.7988,0.7988,0.7988,0.7988,0.7988,0.7988,0.7995,0.7995,0.7992,0.8002,0.8005,0.8081,0.852,0.871,0.873,0.7721,0.6798,0.6056,0.6411,0.6957,0.748,0.7932,0.7988,0.8084,0.8306,0.8333,0.8408,0.8585,0.8517,0.8456,0.8456,0.8138,0.7983,0.8134,0.8044,0.7949,0.7797,0.8245,0.8369,0.8076,0.8219,0.827,0.8194,0.8064,0.7988,0.0,0.0,0.0,0.0,0.7977,0.8031,0.8281,0.7997,0.8038,0.8291,0.8214,0.8194,0.8187,0.8136,0.806,0.7988,0.7988,0.7988,0.7998,0.8074,0.8057,0.8033,0.8131,0.8094,0.8054,0.8282,0.8335,0.8338,0.8506,0.8489,0.8479,0.8699,0.8642,0.8547,0.8716,0.876,0.876,0.876,0.8841,0.8912,0.8912,0.8828,0.876,0.0,0.0,0.876,0.0,0.8848,0.8929,0.9005,0.8852,0.872,0.8645,0.8485,0.8349,0.8301,0.8177,0.8071,0.7992,0.7988,0.7988,0.7988,0.7988,0.7988,0.7988,0.7988,0.7988,0.7988,0.7988,0.7988,0.7988,0.7988,0.7988,0.7988,0.7988,0.7988,0.7988,0.7988,0.7988,0.7988,0.7988,0.7988,0.8044,0.8326,0.8479,0.8598,0.7713,0.6856,0.6105,0.6452,0.734,0.7988,0.7988,0.806,0.8208,0.8475,0.853,0.8659,0.8882,0.8825,0.8743,0.8716,0.8419,0.825,0.8298,0.8225,0.8098,0.7942,0.8296,0.8389,0.8138,0.8287,0.8349,0.8298,0.8221,0.8145,0.0,0.0,0.0,0.0,0.8038,0.8055,0.8177,0.8035,0.8055,0.8187,0.8187,0.8187,0.8177,0.805,0.8047,0.8088,0.8033,0.7988,0.7988,0.7988,0.7988,0.7988,0.7988,0.7988,0.8033,0.816,0.8187,0.8221,0.8393,0.8366,0.8355,0.857,0.8486,0.842,0.8584,0.8672,0.8696,0.8638,0.8767,0.8879,0.877,0.8713,0.8693,0.0,0.0,0.8648,0.0,0.8814,0.8912,0.8912,0.8825,0.8743,0.8716,0.8537,0.841,0.8304,0.8177,0.8074,0.7992,0.7988,0.7988,0.7988,0.7988,0.7988,0.7988,0.7988,0.7988,0.7988,0.7988,0.7988,0.7988,0.7988,0.7988,0.7988,0.7988,0.7988,0.7988,0.7988,0.7988,0.7988,0.7988,0.7988,0.8033,0.8214,0.842,0.8601,0.7484,0.6983,0.6468,0.7602,0.7866,0.7914,0.7988,0.8177,0.8359,0.8512,0.8645,0.8777,0.8936,0.894,0.8875,0.8757,0.8723,0.8591,0.8338,0.8444,0.8296,0.7855,0.8258,0.8286,0.7841,0.8258,0.8444,0.8308,0.8437,0.843,0.0,0.0,0.0,0.0,0.8201,0.818,0.8013,0.8201,0.818,0.7988,0.7988,0.7995,0.8027,0.7992,0.8136,0.8277,0.8071,0.7988,0.7988,0.7988,0.7988,0.7988,0.7988,0.7988,0.7988,0.7988,0.7988,0.8047,0.8243,0.8284,0.8318,0.8461,0.8492,0.8488,0.8495,0.8584,0.8648,0.8529,0.871,0.8801,0.8537,0.8594,0.8642,0.0,0.0,0.8526,0.8686,0.8808,0.8902,0.8909,0.8902,0.8845,0.8733,0.871,0.8584,0.8328,0.8301,0.8204,0.8023,0.7995,0.802,0.7988,0.7988,0.7988,0.7988,0.7988,0.7988,0.7988,0.7988,0.7988,0.7988,0.7988,0.7988,0.7988,0.7988,0.7988,0.7988,0.7988,0.7988,0.7988,0.7988,0.7988,0.8033,0.8221,0.8459,0.8723,0.7662,0.7711,0.7574,0.7888,0.7161,0.6858,0.7839,0.8262,0.8523,0.876,0.9049,0.9306,0.9538,0.9398,0.9252,0.9211,0.8903,0.8679,0.8604,0.8632,0.8503,0.8192,0.8472,0.8496,0.8185,0.8396,0.8492,0.8454,0.8386,0.8332,0.8294,0.0,0.0,0.0,0.8201,0.8123,0.7861,0.8182,0.818,0.7988,0.7988,0.8084,0.8201,0.8057,0.8136,0.8277,0.8071,0.7988,0.7988,0.7988,0.7988,0.7988,0.7988,0.7988,0.7988,0.7988,0.7988,0.8023,0.8064,0.8074,0.8111,0.8311,0.8238,0.8159,0.8325,0.8379,0.84,0.8359,0.8498,0.8574,0.8522,0.8454,0.8396,0.8355,0.8352,0.844,0.8672,0.8716,0.8784,0.8896,0.8811,0.877,0.8845,0.8672,0.8509,0.8457,0.8355,0.8204,0.8023,0.8147,0.816,0.7992,0.7988,0.7988,0.7988,0.7988,0.7988,0.7988,0.7988,0.7988,0.7988,0.7988,0.7988,0.7988,0.7988,0.7988,0.7988,0.7988,0.7988,0.7988,0.7988,0.7988,0.8047,0.8333,0.8502,0.8577,0.7739,0.8071,0.814,0.814,0.7603,0.7425,0.8114,0.8431,0.8689,0.8991,0.9235,0.9469,0.9703,0.9581,0.9483,0.9483,0.9127,0.893,0.893,0.8784,0.8635,0.8469,0.8496,0.8442,0.8301,0.8372,0.8447,0.8509,0.843,0.8389,0.8386,0.0,0.0,0.0,0.8201,0.8199,0.8024,0.8223,0.8247,0.8136,0.804,0.8067,0.0,0.8047,0.8067,0.816,0.8047,0.7988,0.7988,0.7988,0.7988,0.7988,0.7988,0.7988,0.7988,0.7988,0.7988,0.7988,0.7988,0.7988,0.8037,0.8147,0.8077,0.8037,0.815,0.8247,0.8277,0.8184,0.8336,0.8442,0.8313,0.8304,0.8274,0.818,0.825,0.8376,0.8577,0.8669,0.874,0.8892,0.8835,0.8818,0.8902,0.8662,0.8509,0.8509,0.8434,0.8352,0.8238,0.8281,0.8257,0.8143,0.814,0.8084,0.7988,0.8081,0.8081,0.7988,0.7988,0.7988,0.7988,0.7988,0.7988,0.7988,0.7988,0.7988,0.7988,0.7988,0.7988,0.7988,0.7988,0.7988,0.8044,0.8303,0.8417,0.8457,0.7762,0.8177,0.8301,0.8321,0.8543,0.8703,0.8614,0.8699,0.8889,0.9179,0.9362,0.949,0.9622,0.9602,0.9581,0.9581,0.9328,0.9152,0.9152,0.8882,0.8723,0.8682,0.8461,0.8304,0.8267,0.8267,0.8345,0.8509,0.8442,0.8468,0.0,0.0,0.0,0.805,0.8252,0.8342,0.8321,0.8281,0.8267,0.8253,0.8067,0.7988,0.7988,0.7988,0.7988,0.7988,0.7988,0.7988,0.7988,0.7988,0.7988,0.7988,0.7988,0.7988,0.7988,0.7988,0.7988,0.7988,0.7988,0.7988,0.7988,0.7988,0.7988,0.7988,0.7988,0.8143,0.8201,0.8044,0.8245,0.8347,0.806,0.815,0.8197,0.8037,0.8153,0.8315,0.8461,0.8567,0.8716,0.8862,0.8865,0.0,0.8906,0.8679,0.8539,0.8539,0.8539,0.8522,0.8481,0.8383,0.8308,0.8267,0.8267,0.8184,0.8047,0.8184,0.8184,0.8044,0.8023,0.7988,0.7988,0.7988,0.7988,0.7988,0.7988,0.7988,0.7988,0.7988,0.7988,0.7988,0.7988,0.7988,0.803,0.8191,0.8277,0.8338,0.7947,0.8277,0.8332,0.8451,0.8696,0.8902,0.9049,0.9192,0.9311,0.9362,0.9578,0.9754,0.9751,0.9568,0.9422,0.9422,0.9147,0.895,0.895,0.8899,0.8757,0.8533,0.8498,0.833,0.806,0.8054,0.8211,0.8509,0.8213,0.8216,0.0,0.0,0.8281,0.8267,0.8513,0.8564,0.8454,0.8159,0.8054,0.805,0.8027,0.7988,0.7988,0.7988,0.7988,0.7988,0.7988,0.7988,0.7988,0.7988,0.7988,0.7988,0.7988,0.7988,0.7988,0.7988,0.7988,0.7988,0.7988,0.7988,0.7988,0.7988,0.7988,0.7988,0.7988,0.8037,0.8047,0.7995,0.8054,0.8077,0.8023,0.8037,0.8047,0.8017,0.8037,0.8108,0.8311,0.8355,0.8448,0.872,0.8638,0.8662,0.8885,0.8747,0.8669,0.8669,0.8669,0.8564,0.8345,0.842,0.8333,0.8064,0.8054,0.8104,0.8257,0.813,0.813,0.8253,0.8074,0.7988,0.7988,0.7988,0.7988,0.7988,0.7988,0.7988,0.7988,0.7988,0.7988,0.7988,0.7988,0.7988,0.7992,0.8044,0.816,0.8338,0.826,0.8471,0.8543,0.8693,0.8967,0.9218,0.9396,0.9513,0.9585,0.951,0.9625,0.968,0.968,0.9649,0.9581,0.9507,0.9296,0.9133,0.9055,0.8953,0.8845,0.8726,0.8567,0.8414,0.8272,0.8017,0.8106,0.8509,0.8159,0.8206,0.0,0.8475,0.8406,0.841,0.8478,0.8509,0.8488,0.8138,0.806,0.815,0.8047,0.7988,0.7988,0.7988,0.7988,0.7988,0.7988,0.7988,0.7988,0.7988,0.7988,0.7988,0.7988,0.7988,0.7988,0.7988,0.7988,0.7988,0.7988,0.7988,0.7988,0.7988,0.7988,0.7988,0.7988,0.7988,0.7988,0.7988,0.7988,0.7988,0.7988,0.7988,0.7988,0.7988,0.7988,0.8067,0.8274,0.8298,0.8376,0.8567,0.8598,0.8659,0.8777,0.8798,0.877,0.8716,0.871,0.8615,0.8417,0.8471,0.8384,0.8167,0.816,0.8157,0.815,0.8157,0.8157,0.815,0.805,0.7988,0.7988,0.7988,0.7988,0.7988,0.7988,0.7988,0.7988,0.7988,0.7988,0.7988,0.7988,0.7988,0.7988,0.7988,0.8136,0.8328,0.8136,0.8431,0.8678,0.8493,0.902,0.9469,0.9591,0.97,0.9751,0.9669,0.9656,0.9656,0.9656,0.9696,0.9683,0.9571,0.9395,0.9235,0.9145,0.9001,0.8896,0.8865,0.8628,0.8495,0.8464,0.8028,0.8001,0.8387,0.8128,0.8213,0.8615,0.8557,0.8539,0.8505,0.8423,0.84,0.8374,0.8148,0.814,0.8211,0.8064,0.7988,0.7988,0.7988,0.7988,0.7988,0.7988,0.7988,0.7988,0.7988,0.7988,0.7988,0.7988,0.7988,0.7988,0.7988,0.7988,0.7988,0.7988,0.7988,0.7988,0.7988,0.7988,0.7988,0.7988,0.7988,0.7988,0.7988,0.7988,0.7988,0.7988,0.7988,0.7988,0.7988,0.7988,0.8057,0.8204,0.8247,0.8301,0.8447,0.8543,0.8628,0.8659,0.8743,0.8764,0.8672,0.8693,0.8645,0.8515,0.8509,0.8457,0.8345,0.8311,0.8241,0.8159,0.8208,0.8177,0.8064,0.803,0.7988,0.7988,0.7988,0.7988,0.7988,0.7988,0.7988,0.7988,0.7988,0.7988,0.7988,0.7988,0.7988,0.7992,0.805,0.8184,0.8362,0.693,0.7873,0.8496,0.7311,0.8466,0.9595,0.9608,0.97,0.9785,0.9771,0.9771,0.9771,0.9771,0.9574,0.9444,0.9434,0.9115,0.8946,0.8933,0.8919,0.8848,0.871,0.857,0.8447,0.8318,0.7977,0.7875,0.8054,0.8005,0.8108,0.8345,0.857,0.8615,0.8512,0.8615,0.8426,0.8064,0.8201,0.8177,0.8033,0.802,0.7988,0.7988,0.7988,0.7988,0.7988,0.7988,0.7988,0.7988,0.7988,0.7988,0.7988,0.7988,0.7988,0.7988,0.7988,0.7988,0.7988,0.7988,0.7988,0.7988,0.7988,0.7988,0.7988,0.7988,0.7988,0.7988,0.7988,0.7988,0.7988,0.7988,0.7988,0.7988,0.7988,0.7988,0.7995,0.8033,0.8037,0.8091,0.8298,0.8328,0.8389,0.8515,0.8516,0.8546,0.8532,0.8632,0.8645,0.8515,0.8509,0.8502,0.8488,0.8362,0.8417,0.8645,0.823,0.8101,0.8274,0.8081,0.7988,0.7988,0.7988,0.7988,0.7988,0.7988,0.7988,0.7988,0.7988,0.7988,0.7988,0.7988,0.7988,0.8033,0.8197,0.8366,0.8509,0.5394,0.6592,0.7554,0.7105,0.8459,0.9639,0.9694,0.9754,0.9792,0.9792,0.9717,0.9693,0.9693,0.9507,0.9373,0.9281,0.9165,0.9032,0.8916,0.8912,0.8841,0.8716,0.8564,0.844,0.8301,0.7967,0.7929,0.8177,0.8177,0.8299,0.8533,0.856,0.8445,0.8192,0.8253,0.8182,0.7988,0.8007,0.8011,0.7988,0.7988,0.7988,0.7988,0.7988,0.7988,0.7988,0.7988,0.7988,0.7988,0.7988,0.7988,0.7988,0.7988,0.7988,0.7988,0.7988,0.7988,0.7988,0.7988,0.7988,0.7988,0.7988,0.7988,0.7988,0.7988,0.7988,0.7988,0.7988,0.7988,0.7988,0.7988,0.7988,0.7988,0.7988,0.7988,0.7988,0.7988,0.7988,0.8037,0.8101,0.824,0.8318,0.8376,0.8457,0.8509,0.8509,0.8537,0.8547,0.8512,0.8427,0.8383,0.8383,0.8211,0.8162,0.828,0.8104,0.8044,0.8108,0.8044,0.7988,0.7988,0.7988,0.7988,0.7988,0.7988,0.7988,0.7988,0.7988,0.7988,0.7988,0.7988,0.7988,0.8033,0.8214,0.8386,0.8529,0.4547,0.5854,0.6997,0.7167,0.8549,0.9703,0.9775,0.9792,0.9775,0.9734,0.9632,0.9561,0.9605,0.9473,0.9349,0.9224,0.9141,0.9049,0.8919,0.8912,0.8841,0.8716,0.8564,0.844,0.8301,0.8011,0.7963,0.8162,0.8253,0.8379,0.8486,0.8492,0.8323,0.7992,0.8064,0.8033,0.7942,0.7881,0.7915,0.7988,0.7988,0.7988,0.7988,0.7988,0.7988,0.7988,0.7988,0.7988,0.7988,0.7988,0.7988,0.7988,0.7988,0.7988,0.7988,0.7988,0.7988,0.7988,0.7988,0.7988,0.7988,0.7988,0.7988,0.7988,0.7988,0.7988,0.7988,0.7988,0.7988,0.7988,0.7988,0.7988,0.7988,0.7988,0.7988,0.7988,0.7988,0.7988,0.7988,0.7988,0.8136,0.8204,0.8204,0.8292,0.837,0.8444,0.8377,0.8374,0.8444,0.8352,0.8315,0.8359,0.8187,0.8104,0.8142,0.8057,0.7988,0.7988,0.7988,0.7988,0.7988,0.7988,0.7988,0.7988,0.7988,0.7988,0.7988,0.7988,0.7988,0.7988,0.7988,0.7988,0.8037,0.8258,0.842,0.8536,0.4681,0.5998,0.7173,0.737,0.8739,0.9788,0.9792,0.9792,0.9741,0.9632,0.9479,0.9442,0.9595,0.9473,0.9349,0.9224,0.9022,0.8912,0.8912,0.8912,0.8841,0.8716,0.8564,0.844,0.8301,0.8091,0.7939,0.7818,0.8148,0.8194,0.8005,0.8347,0.8323,0.7995,0.8201,0.8124,0.78,0.7949,0.7988,0.7988,0.7988,0.7988,0.7988,0.7988,0.7988,0.7988,0.7988,0.7988,0.7988,0.7988,0.7988,0.7988,0.7988,0.7988,0.7988,0.7988,0.7988,0.7988,0.7988,0.7988,0.7988,0.7988,0.7988,0.7988,0.7988,0.7988,0.7988,0.7988,0.7988,0.7988,0.7988,0.7988,0.7988,0.7988,0.7988,0.7988,0.7988,0.7988,0.7988,0.7988,0.7992,0.7992,0.7992,0.7992,0.8084,0.8287,0.8108,0.8088,0.8291,0.8298,0.8359,0.8502,0.8366,0.8362,0.8502,0.8162,0.7988,0.7988,0.7988,0.7988,0.7988,0.7988,0.7988,0.7988,0.7988,0.7988,0.7988,0.7988,0.7988,0.7988,0.7988,0.7988,0.805,0.837,0.8505,0.8526,0.2981,0.4509,0.5983,0.7202,0.8742,0.9792,0.9792,0.9707,0.9659,0.9615,0.9476,0.939,0.9332,0.9167,0.9031,0.9011,0.8936,0.8912,0.8912,0.8814,0.8713,0.856,0.844,0.8265,0.8091,0.804,0.7989,0.7942,0.817,0.8191,0.7992,0.8245,0.8174,0.7864,0.802,0.8033,0.7946,0.7993,0.7988,0.7988,0.7988,0.7988,0.7988,0.7988,0.7988,0.7988,0.7988,0.7988,0.7988,0.7988,0.7988,0.7988,0.7988,0.7988,0.7988,0.7988,0.7988,0.7988,0.7988,0.7988,0.7988,0.7988,0.7988,0.7988,0.7988,0.7988,0.7988,0.7988,0.7988,0.7988,0.7988,0.7988,0.7988,0.7988,0.7988,0.7988,0.7988,0.7988,0.7988,0.7988,0.7988,0.7988,0.7988,0.7988,0.8077,0.8284,0.825,0.8262,0.8434,0.8221,0.818,0.8359,0.8191,0.8111,0.8155,0.806,0.7988,0.7988,0.7988,0.7988,0.7988,0.7988,0.7988,0.7988,0.7988,0.7988,0.7988,0.7988,0.7988,0.7988,0.7988,0.8077,0.8221,0.8437,0.855,0.8665,0.2955,0.4216,0.5621,0.7914,0.9102,0.971,0.971,0.9615,0.9503,0.9445,0.9383,0.9267,0.9117,0.8963,0.8912,0.8912,0.8912,0.8885,0.8828,0.8737,0.8618,0.8437,0.8345,0.8197,0.7992,0.7988,0.7988,0.7988,0.8136,0.8133,0.7992,0.814,0.8082,0.7875,0.7973,0.7988,0.7988,0.7988,0.7988,0.7988,0.7988,0.7988,0.7988,0.7988,0.7988,0.7988,0.7988,0.7988,0.7988,0.7988,0.7988,0.7988,0.7988,0.7988,0.7988,0.7988,0.7988,0.7988,0.7988,0.7988,0.7988,0.7988,0.7988,0.7988,0.7988,0.7988,0.7988,0.7988,0.7988,0.7988,0.7988,0.7988,0.7988,0.7988,0.7988,0.7988,0.7988,0.7988,0.7988,0.7988,0.7988,0.7988,0.7988,0.7988,0.8054,0.8177,0.8184,0.8221,0.8309,0.8194,0.8143,0.818,0.8064,0.7988,0.7988,0.8071,0.8101,0.8101,0.8155,0.8152,0.8101,0.8101,0.8071,0.7988,0.7988,0.7988,0.7988,0.7988,0.7988,0.7988,0.7988,0.8133,0.8308,0.8396,0.8499,0.8638,0.4247,0.4906,0.5949,0.9235,0.9703,0.9608,0.9608,0.9469,0.9342,0.9228,0.92,0.9114,0.8926,0.8912,0.8912,0.8912,0.8912,0.8845,0.872,0.8699,0.8567,0.8308,0.8284,0.8187,0.7992,0.7988,0.7988,0.7988,0.7988,0.7988,0.7988,0.7988,0.7985,0.7975,0.7975,0.7993,0.7986,0.7971,0.7975,0.7975,0.7985,0.7988,0.7988,0.7988,0.7988,0.7988,0.7988,0.7988,0.7988,0.7988,0.7988,0.7988,0.7988,0.7988,0.7988,0.7988,0.7988,0.7988,0.7988,0.7988,0.7988,0.7988,0.7988,0.7988,0.7988,0.7988,0.7988,0.7988,0.7988,0.7988,0.7988,0.7988,0.7988,0.7988,0.7988,0.7988,0.7988,0.7988,0.7988,0.7988,0.7988,0.7988,0.7988,0.7988,0.7995,0.803,0.803,0.803,0.803,0.8201,0.8211,0.7995,0.7988,0.7995,0.803,0.8197,0.8301,0.8311,0.8444,0.8434,0.8298,0.8308,0.8197,0.7988,0.8027,0.803,0.803,0.803,0.8037,0.8044,0.8044,0.8167,0.8325,0.8315,0.8403,0.8526,0.4268,0.491,0.5935,0.9219,0.9703,0.9608,0.9608,0.941,0.9251,0.9214,0.9059,0.895,0.8916,0.8912,0.8912,0.8912,0.8912,0.8845,0.872,0.8601,0.8485,0.8304,0.8157,0.805,0.7988,0.7988,0.7988,0.7988,0.7988,0.7988,0.7988,0.7988,0.7952,0.7841,0.7841,0.778,0.7709,0.7797,0.7841,0.7851,0.7966,0.7988,0.7988,0.7988,0.7988,0.7988,0.7988,0.7988,0.7988,0.7988,0.7988,0.7988,0.7988,0.7988,0.7988,0.7988,0.7988,0.7988,0.7988,0.7988,0.7988,0.7988,0.7988,0.7988,0.7988,0.7988,0.7988,0.7988,0.7988,0.7988,0.7988,0.7988,0.7988,0.7988,0.7988,0.7988,0.7988,0.7988,0.7988,0.7988,0.7988,0.7988,0.7988,0.7988,0.8064,0.8208,0.824,0.824,0.824,0.8379,0.8313,0.7998,0.7988,0.8071,0.8214,0.8277,0.8352,0.8457,0.8492,0.8434,0.8301,0.841,0.8289,0.7995,0.8163,0.824,0.824,0.824,0.8279,0.8377,0.8377,0.8472,0.8591,0.8502,0.8526,0.8655,0.4269,0.4894,0.593,0.9225,0.9646,0.9507,0.9507,0.9249,0.9055,0.9055,0.896,0.8912,0.8912,0.8912,0.8912,0.8912,0.8912,0.8818,0.8621,0.8526,0.8387,0.8174,0.8057,0.7988,0.7988,0.7988,0.7988,0.7988,0.7988,0.7988,0.7988,0.7988,0.7969,0.7888,0.7817,0.7783,0.7776,0.7783,0.7827,0.7898,0.7983,0.7988,0.7988,0.7988,0.7988,0.7988,0.7988,0.7988,0.7988,0.7988,0.7988,0.7988,0.7988,0.7988,0.7988,0.7988,0.7988,0.7988,0.7988,0.7988,0.7988,0.7988,0.7988,0.7988,0.7988,0.7988,0.7988,0.7988,0.7988,0.7988,0.7988,0.7988,0.7988,0.7988,0.7988,0.7988,0.7988,0.7988,0.7988,0.7988,0.7988,0.7988,0.7988,0.7988,0.805,0.816,0.8167,0.8197,0.8294,0.8369,0.8335,0.815,0.8208,0.8282,0.8393,0.8461,0.8543,0.8693,0.8693,0.8615,0.8472,0.8505,0.8357,0.815,0.826,0.8298,0.8301,0.8366,0.844,0.8502,0.8437,0.8502,0.8581,0.836,0.8418,0.8598,0.4263,0.4887,0.5941,0.9235,0.9595,0.9437,0.9413,0.9147,0.8936,0.8916,0.8912,0.8912,0.8912,0.8912,0.8912,0.8912,0.8912,0.8781,0.8529,0.8509,0.835,0.8027,0.7988,0.7988,0.7988,0.7988,0.7988,0.7988,0.7988,0.7988,0.7988,0.7988,0.7978,0.7973,0.7844,0.7847,0.7942,0.7834,0.7861,0.7983,0.7982,0.7988,0.7988,0.7988,0.7988,0.7988,0.7988,0.7988,0.7988,0.7988,0.7988,0.7988,0.7988,0.7988,0.7988,0.7988,0.7988,0.7988,0.7988,0.7988,0.7988,0.7988,0.7988,0.7988,0.7988,0.7988,0.7988,0.7988,0.7988,0.7988,0.7988,0.7988,0.7988,0.7988,0.7988,0.7988,0.7988,0.7988,0.7988,0.7988,0.8037,0.804,0.7992,0.8037,0.805,0.805,0.805,0.814,0.8321,0.8352,0.8362,0.8362,0.8457,0.8519,0.8543,0.8669,0.8784,0.8912,0.8912,0.8831,0.8706,0.8601,0.8488,0.8328,0.8352,0.8488,0.8701,0.8828,0.8865,0.8873,0.875,0.863,0.8516,0.8192,0.8279,0.8526,0.4254,0.4904,0.5927,0.9215,0.9683,0.953,0.943,0.926,0.9104,0.8926,0.8912,0.8912,0.8912,0.8912,0.8912,0.8912,0.8912,0.8781,0.8529,0.8509,0.835,0.8027,0.7988,0.7988,0.7988,0.7988,0.7988,0.7988,0.7988,0.7988,0.7988,0.7988,0.7946,0.782,0.7797,0.7756,0.7675,0.777,0.78,0.7834,0.7962,0.7988,0.7988,0.7988,0.7988,0.7988,0.7988,0.7988,0.7988,0.7988,0.7988,0.7988,0.7988,0.7988,0.7988,0.7988,0.7988,0.7988,0.7988,0.7988,0.7988,0.7988,0.7988,0.7988,0.7988,0.7988,0.7988,0.7988,0.7988,0.7988,0.7988,0.7988,0.7988,0.7988,0.7988,0.7988,0.7988,0.7988,0.7988,0.7988,0.8153,0.8184,0.8027,0.816,0.826,0.826,0.826,0.8321,0.8468,0.857,0.8642,0.8642,0.8537,0.8543,0.8672,0.8798,0.8889,0.8912,0.8912,0.8831,0.8713,0.8791,0.8713,0.8481,0.8584,0.9351,1.0504,1.0533,1.0582,1.0679,1.0547,0.9823,0.8804,0.8526,0.8523,0.8672,0.3121,0.4293,0.5663,0.8088,0.9123,0.9557,0.9434,0.9281,0.9128,0.8929,0.8912,0.8912,0.8912,0.8912,0.8912,0.8912,0.8912,0.8781,0.8529,0.8509,0.835,0.8027,0.7988,0.7988,0.7988,0.7988,0.7988,0.7988,0.7988,0.7988,0.7988,0.7988,0.7976,0.7905,0.7824,0.7797,0.781,0.7793,0.7834,0.7915,0.7986,0.7988,0.7988,0.7988,0.7988,0.7988,0.7988,0.7988,0.7988,0.7988,0.7988,0.7988,0.7988,0.7988,0.7988,0.7988,0.7988,0.7988,0.7988,0.7988,0.7988,0.7988,0.7988,0.7988,0.7988,0.7988,0.8037,0.8147,0.8163,0.8163,0.8163,0.8163,0.8163,0.8163,0.8071,0.8044,0.815,0.8163,0.8163,0.8163,0.8296,0.8383,0.8286,0.8343,0.841,0.841,0.841,0.8475,0.8598,0.8672,0.8723,0.8804,0.8737,0.8733,0.8804,0.8875,0.8912,0.8912,0.8912,0.8875,0.8832,0.9624,0.9908,0.9837,1.0651,1.1398,1.2029,1.1954,1.1603,1.1076,1.0757,0.9869,0.8764,0.8564,0.8577,0.871,0.2175,0.3782,0.5437,0.7116,0.8633,0.9595,0.9437,0.9339,0.9209,0.894,0.894,0.895,0.8916,0.8912,0.8912,0.8912,0.8879,0.8743,0.8526,0.8478,0.8316,0.8027,0.7988,0.7988,0.7988,0.7988,0.7988,0.7988,0.7988,0.7988,0.7988,0.7988,0.7988,0.7985,0.7891,0.7905,0.7982,0.7891,0.7908,0.7988,0.7988,0.7988,0.7988,0.7988,0.7988,0.7988,0.7988,0.7988,0.7988,0.7988,0.7988,0.7988,0.7988,0.7988,0.7988,0.7988,0.7988,0.7988,0.7988,0.7988,0.7988,0.7988,0.7988,0.7988,0.7988,0.7988,0.8057,0.8264,0.8298,0.8308,0.8338,0.8345,0.8335,0.8301,0.8201,0.8148,0.8284,0.8325,0.8345,0.8345,0.8471,0.8546,0.8512,0.8539,0.8533,0.8533,0.8533,0.8601,0.873,0.8737,0.8791,0.8906,0.8912,0.8912,0.8912,0.8912,0.8912,0.8912,0.8912,0.8912,0.8933,0.9969,1.0626,1.1024,1.2078,1.2949,1.3556,1.3456,1.2899,1.2041,1.1287,1.028,0.9196,0.8724,0.8632,0.8737,0.217,0.3811,0.5437,0.7116,0.8736,0.971,0.9425,0.9493,0.9422,0.8967,0.9055,0.9114,0.8926,0.8912,0.8912,0.8912,0.8781,0.8659,0.8519,0.8386,0.8211,0.7995,0.7988,0.7988,0.7988,0.7988,0.7988,0.7988,0.7988,0.7988,0.7988,0.7988,0.7988,0.7988,0.8003,0.7978,0.7988,0.7978,0.7978,0.7988,0.7988,0.7988,0.7988,0.7988,0.7988,0.7988,0.7988,0.7988,0.7988,0.7988,0.7988,0.7988,0.7988,0.7988,0.7988,0.7988,0.7988,0.7988,0.7988,0.7988,0.7988,0.7988,0.7988,0.7988,0.7988,0.7988,0.8057,0.8264,0.8298,0.8338,0.8468,0.8492,0.8451,0.8318,0.8396,0.8434,0.8315,0.841,0.8492,0.8492,0.8601,0.8638,0.8522,0.8611,0.8693,0.8693,0.8693,0.8733,0.8885,0.8892,0.8899,0.8912,0.8912,0.8912,0.8912,0.8912,0.8912,0.8912,0.8912,0.8912,0.8912,0.9006,0.979,1.1084,1.1193,1.2753,1.5228,1.5201,1.5159,1.4929,1.3414,1.203,1.074,0.923,0.8764,0.8892,0.0819,0.3087,0.51,0.5741,0.8039,0.9724,0.9554,0.9493,0.9371,0.9106,0.9042,0.897,0.8916,0.8828,0.877,0.877,0.8659,0.8506,0.8386,0.8325,0.8201,0.7995,0.7988,0.7988,0.7988,0.7988,0.7988,0.7988,0.7988,0.7988,0.7988,0.7988,0.7988,0.7988,0.7988,0.7988,0.7988,0.7988,0.7988,0.7988,0.7988,0.7988,0.7988,0.7988,0.7988,0.7988,0.7988,0.7988,0.7988,0.7988,0.7988,0.7988,0.7988,0.7988,0.7988,0.7988,0.7988,0.7988,0.7988,0.7988,0.7988,0.7988,0.7988,0.7988,0.7988,0.7988,0.8084,0.8376,0.8427,0.8471,0.8598,0.8625,0.8608,0.8554,0.8509,0.8522,0.8537,0.8587,0.8625,0.8625,0.8733,0.8801,0.8743,0.8791,0.8825,0.8825,0.8825,0.8848,0.8906,0.8912,0.8912,0.8912,0.8912,0.8912,0.8912,0.8912,0.8912,0.8912,0.8912,0.8912,0.8964,1.0781,1.1941,1.2566,1.4341,1.5743,1.6757,1.6585,1.6079,1.5308,1.4547,1.2961,1.1019,1.0408,0.9643,0.8912,0.0,0.2619,0.4845,0.4845,0.7531,0.9635,0.949,0.9418,0.9339,0.9141,0.9039,0.896,0.8916,0.8818,0.8737,0.8713,0.8615,0.8498,0.8308,0.825,0.815,0.7995,0.7988,0.7988,0.7988,0.7988,0.7988,0.7988,0.7988,0.7988,0.7988,0.7988,0.7988,0.7988,0.7988,0.7988,0.7988,0.7988,0.7988,0.7988,0.7988,0.7988,0.7988,0.7988,0.7988,0.7988,0.7988,0.7988,0.7988,0.7988,0.7988,0.7988,0.7988,0.7988,0.7988,0.7988,0.7988,0.7988,0.7988,0.7988,0.7988,0.7988,0.7988,0.7988,0.7988,0.805,0.8184,0.8457,0.852,0.8601,0.8727,0.8754,0.874,0.8716,0.8662,0.8645,0.8703,0.8727,0.8754,0.8754,0.8848,0.8912,0.8912,0.8912,0.8912,0.8912,0.8912,0.8912,0.8912,0.8912,0.8912,0.8912,0.8912,0.8912,0.8912,0.8912,0.8912,0.8912,0.8912,0.9154,0.9671,1.1701,1.3102,1.4073,1.6041,1.7173,1.7595,1.7394,1.684,1.6023,1.5381,1.3768,1.1728,1.1269,1.0159,0.8912,0.0,0.2525,0.469,0.469,0.7296,0.9359,0.9234,0.9311,0.9273,0.8953,0.9062,0.9124,0.8926,0.8909,0.8848,0.8723,0.871,0.8584,0.8315,0.8101,0.7988,0.7988,0.7988,0.7988,0.7988,0.7988,0.7988,0.7988,0.7988,0.7988,0.7988,0.7988,0.7988,0.7988,0.7988,0.7988,0.7988,0.7988,0.7988,0.7988,0.7988,0.7988,0.7988,0.7988,0.7988,0.7988,0.7988,0.7988,0.7988,0.7988,0.7988,0.7988,0.7988,0.7988,0.7988,0.7988,0.7988,0.7988,0.7988,0.7988,0.7988,0.7988,0.7992,0.7992,0.7992,0.816,0.8338,0.8481,0.8604,0.873,0.8882,0.8912,0.8862,0.871,0.8814,0.8858,0.8733,0.8814,0.8912,0.8912,0.8912,0.8912,0.8912,0.8912,0.8912,0.8912,0.8912,0.8912,0.8912,0.8912,0.8912,0.8912,0.8912,0.8912,0.8912,0.8912,0.8912,0.8912,0.8912,0.9671,1.1105,1.1133,1.2697,1.539,1.5417,1.6254,1.7608,1.7608,1.7608,1.7444,1.5982,1.4556,1.3129,1.1647,1.0186,0.8912,0.0,0.2534,0.469,0.469,0.7296,0.9393,0.9349,0.9288,0.922,0.9128,0.9039,0.896,0.8916,0.8814,0.8733,0.8713,0.8611,0.8498,0.8308,0.8101,0.7988,0.7988,0.7988,0.7988,0.7988,0.7988,0.7988,0.7988,0.7988,0.7988,0.7988,0.7988,0.7988,0.7988,0.7988,0.7988,0.7988,0.7988,0.7988,0.7988,0.7988,0.7988,0.7988,0.7988,0.7988,0.7988,0.7988,0.7988,0.7988,0.7988,0.7988,0.7988,0.7988,0.7988,0.7988,0.7988,0.7988,0.7988,0.7988,0.7988,0.7988,0.7988,0.8098,0.8201,0.8201,0.8338,0.8488,0.8611,0.8679,0.873,0.8882,0.8912,0.8896,0.8848,0.8882,0.8896,0.8848,0.8882,0.8912,0.8912,0.8912,0.8912,0.8912,0.8912,0.8912,0.8912,0.8912,0.8912,0.8912,0.8912,0.8912,0.8912,0.8912,0.8912,0.8912,0.8912,0.8912,0.8912,0.9943,1.0676,1.116,1.3183,1.4583,1.547,1.6499,1.7199,1.7608,1.7608,1.7608,1.7556,1.712,1.545,1.3237,1.2805,1.1051,0.8912,0.0,0.2489,0.4632,0.4632,0.7158,0.9205,0.9205,0.9127,0.9069,0.9069,0.8963,0.8912,0.8912,0.8828,0.875,0.8716,0.852,0.841,0.8383,0.8131,0.7988,0.7988,0.7988,0.7988,0.7988,0.7988,0.7988,0.7988,0.7988,0.7988,0.7988,0.7988,0.7988,0.7988,0.7988,0.7988,0.7988,0.7988,0.7988,0.7988,0.7988,0.7988,0.7988,0.7988,0.7988,0.7988,0.7988,0.7988,0.7988,0.7988,0.7988,0.7988,0.7988,0.7988,0.7988,0.7988,0.7988,0.7988,0.7988,0.8057,0.813,0.813,0.8153,0.818,0.818,0.8336,0.8536,0.8601,0.8716,0.8801,0.8892,0.8912,0.8912,0.8912,0.8912,0.8912,0.8912,0.8912,0.8912,0.8912,0.8912,0.8912,0.8912,0.8912,0.8912,0.8912,0.8912,0.8912,0.8912,0.8912,0.8912,0.8912,0.8912,0.8912,0.8912,0.8912,0.8912,0.8912,0.9805,1.0539,1.116,1.2913,1.4019,1.4663,1.6095,1.6744,1.677,1.7364,1.7608,1.7608,1.7608,1.5849,1.3291,1.3291,1.1433,0.8912,0.0168,0.2517,0.4555,0.4665,0.7035,0.8912,0.8912,0.8912,0.8912,0.8912,0.8912,0.8912,0.8912,0.8912,0.8848,0.8723,0.8468,0.8352,0.8481,0.8172,0.7988,0.7988,0.7988,0.7988,0.7988,0.7988,0.7988,0.7988,0.7988,0.7988,0.7988,0.7988,0.7988,0.7988,0.7988,0.7988,0.7988,0.7988,0.7988,0.7988,0.7988,0.7988,0.7988,0.7988,0.7988,0.7988,0.7988,0.7988,0.7988,0.7988,0.7988,0.7988,0.7988,0.7988,0.7988,0.7988,0.7988,0.7992,0.8033,0.8163,0.8301,0.8311,0.8184,0.8057,0.8071,0.8319,0.8549,0.8549,0.872,0.8912,0.8912,0.8912,0.8912,0.8912,0.8912,0.8912,0.8912,0.8912,0.8912,0.8912,0.8912,0.8912,0.8912,0.8912,0.8912,0.8912,0.8912,0.8912,0.8912,0.8912,0.8912,0.8912,0.8912,0.8912,0.8912,0.8912,0.8912,0.8912,0.9047,0.9805,1.1105,1.1378,1.2213,1.3561,1.4984,1.561,1.5689,1.7041,1.7608,1.7608,1.7608,1.5849,1.3291,1.3291,1.1433,0.8912,0.1482,0.3214,0.4862,0.6031,0.7706,0.8912,0.8912,0.8912,0.8912,0.8912,0.8912,0.8912,0.8912,0.8912,0.8848,0.8723,0.8468,0.8308,0.8342,0.8118,0.7988,0.7988,0.7988,0.7988,0.7988,0.7988,0.7988,0.7988,0.7988,0.7988,0.7988,0.7988,0.7988,0.7988,0.7988,0.7988,0.7988,0.7988,0.7988,0.7988,0.7988,0.7988,0.7988,0.7988,0.7988,0.7988,0.7988,0.7988,0.7988,0.7988,0.7988,0.7988,0.7988,0.7988,0.7988,0.7988,0.7988,0.804,0.8187,0.827,0.8321,0.8434,0.8411,0.8418,0.851,0.8683,0.8814,0.8814,0.8865,0.8912,0.8912,0.8912,0.8912,0.8912,0.8912,0.8912,0.8912,0.8912,0.8912,0.8912,0.8912,0.8912,0.8912,0.8912,0.8912,0.8912,0.8912,0.8912,0.8912,0.8912,0.8912,0.8912,0.8912,0.8912,0.8912,0.8912,0.8912,0.8912,1.0076,1.0781,1.1187,1.3453,1.4636,1.5043,1.6499,1.712,1.7147,1.7477,1.7608,1.7608,1.7608,1.5849,1.3291,1.3291,1.1433,0.8912,0.1008,0.2962,0.4751,0.5502,0.7454,0.8912,0.8912,0.8912,0.8912,0.8912,0.8848,0.8801,0.8801,0.8737,0.8689,0.8608,0.8423,0.8298,0.8298,0.8101,0.7988,0.7988,0.7988,0.7988,0.7988,0.7988,0.7988,0.7988,0.7988,0.7988,0.7988,0.7988,0.7988,0.7988,0.7988,0.7988,0.7988,0.7988,0.7988,0.7988,0.7988,0.7988,0.7988,0.7988,0.7988,0.7988,0.7988,0.7988,0.7988,0.7988,0.7988,0.7988,0.7988,0.7988,0.7988,0.7988,0.7988,0.8047,0.8253,0.8345,0.8434,0.8554,0.8645,0.8682,0.8618,0.872,0.8801,0.8801,0.8862,0.8912,0.8912,0.8912,0.8912,0.8912,0.8912,0.8912,0.8912,0.8912,0.8912,0.8912,0.8912,0.8912,0.8912,0.8912,0.8912,0.8912,0.8912,0.8912,0.8912,0.8912,0.8912,0.8912,0.8912,0.8912,0.8912,0.8912,0.8912,0.8912,0.9671,1.0433,1.116,1.267,1.3723,1.4475,1.5929,1.6552,1.6605,1.7312,1.7608,1.7608,1.7608,1.5849,1.3291,1.3291,1.1433,0.8912,0.0672,0.2796,0.4667,0.5168,0.7288,0.8912,0.8912,0.8912,0.8912,0.8912,0.8777,0.871,0.871,0.8554,0.8471,0.8471,0.8338,0.8257,0.8257,0.8084,0.7988,0.7988,0.7988,0.7988,0.7988,0.7988,0.7988,0.7988,0.7988,0.7988,0.7988,0.7988,0.7988,0.7988,0.7988,0.7988,0.7988,0.7988,0.7988,0.7988,0.7988,0.7988,0.7988,0.7988,0.7988,0.7988,0.7988,0.7988,0.7988,0.7988,0.7988,0.7988,0.7988,0.7988,0.7988,0.7988,0.8033,0.8088,0.8291,0.8437,0.8557,0.871,0.8818,0.8845,0.8618,0.8659,0.8723,0.8723,0.8825,0.8912,0.8912,0.8912,0.8912,0.8912,0.8912,0.8912,0.8912,0.8912,0.8912,0.8912,0.8912,0.8912,0.8912,0.8912,0.8912,0.8912,0.8912,0.8912,0.8912,0.8912,0.8912,0.8912,0.8912,0.8912,0.8912,0.8912,0.8912,0.8912,0.8912,0.9537,1.0726,1.1,1.1892,1.3372,1.4797,1.555,1.5876,1.7094,1.7444,1.7226,1.7226,1.561,1.3264,1.3026,1.1374,0.9237,0.3382,0.4219,0.5308,0.7873,0.8629,0.8912,0.8912,0.8912,0.8912,0.8912,0.8777,0.871,0.871,0.8465,0.8325,0.8325,0.816,0.8047,0.8047,0.8027,0.7988,0.7988,0.7988,0.7988,0.7988,0.7988,0.7988,0.7988,0.7988,0.7988,0.7988,0.7988,0.7988,0.7988,0.7988,0.7988,0.7988,0.7988,0.7988,0.7988,0.7988,0.7988,0.7988,0.7988,0.7988,0.7988,0.7988,0.7988,0.7988,0.7988,0.7988,0.7988,0.7988,0.7988,0.7988,0.7988,0.8133,0.8298,0.844,0.8564,0.8716,0.8841,0.8896,0.8899,0.8858,0.8865,0.8879,0.8879,0.8896,0.8912,0.8912,0.8912,0.8912,0.8912,0.8912,0.8912,0.8912,0.8912,0.8912,0.8912,0.8912,0.8912,0.8912,0.8912,0.8912,0.8912,0.8912,0.8912,0.8912,0.8912,0.8912,0.8912,0.8912,0.8912,0.8912,0.8912,0.8912,0.8912,0.8912,0.8992,0.9237,1.0511,1.1892,1.3372,1.4797,1.6115,1.7312,1.7529,1.6849,1.5689,1.5689,1.4716,1.3156,1.1864,1.116,1.0621,0.2961,0.458,0.6144,0.7454,0.8349,0.8912,0.8912,0.8912,0.8912,0.8912,0.8777,0.8676,0.8591,0.8319,0.814,0.814,0.8054,0.7988,0.7988,0.7988,0.7988,0.7988,0.7988,0.7988,0.7988,0.7988,0.7988,0.7988,0.7988,0.7988,0.7988,0.7988,0.7988,0.7988,0.7988,0.7988,0.7988,0.7988,0.7988,0.7988,0.7988,0.7988,0.7988,0.7988,0.7988,0.7988,0.7988,0.7988,0.7988,0.7988,0.7988,0.7988,0.7988,0.7988,0.8033,0.8143,0.8243,0.8345,0.855,0.8659,0.872,0.8872,0.8912,0.8912,0.8912,0.8912,0.8912,0.8912,0.8912,0.8912,0.8912,0.8912,0.8912,0.8912,0.8912,0.8912,0.8912,0.8912,0.8912,0.8912,0.8912,0.8912,0.8912,0.8912,0.8912,0.8912,0.8912,0.8912,0.8912,0.8912,0.9265,1.0104,0.9316,0.9292,1.0131,0.932,0.8912,0.8912,0.8912,0.9344,1.0186,1.1647,1.3102,1.4556,1.6015,1.7008,1.7529,1.6711,1.5982,1.531,1.4529,1.3345,1.1887,1.0433,0.9864,0.9781]},{"header":{"parameterUnit":"m.s-1","parameterCategory":1,"la1":30.6,"la2":28.766,"lo1":-90.7593,"lo2":-88.6598,"dy":0.0162,"dx":0.0183,"nx":116,"ny":114,"refTime":"2023-05-29T12:00:00:Z","depth":0,"parameterNumber":3,"parameterNumberName":"V-component_of_WINDS"},"data":[0.0,0.0,0.0,0.0,0.0,0.0,0.0,0.0,0.0,0.0,0.0,0.0,0.0,0.0,0.0,0.0,0.0,0.0,0.0,0.0,0.0,0.0,0.0,0.0,0.0,0.0,0.0,0.0,0.0,0.0,0.0,0.0,0.0,0.0,0.0,0.0,0.0,0.0,0.0,0.0,0.0,0.0,0.0,0.0,0.0,0.0,0.0,0.0,0.0,0.0,0.0,0.0,0.0,0.0,0.0,0.0,0.0,0.0,0.0,0.0,0.0,0.0,0.0,0.0,0.0,0.0,0.0,0.0,0.0,0.0,0.0,0.0,0.0,0.0,0.0,0.0,0.0,0.0,0.0,0.0,0.0,0.0,0.0,0.0,0.0,0.0,0.0,0.0,0.0,0.0,0.0,0.0,0.0,0.0,0.0,0.0,0.0,0.0,0.0,0.0,0.0,0.0,0.0,0.0,0.0,0.0,0.0,0.0,0.0,0.0,0.0,0.0,0.0,0.0,0.0,0.0,0.0,0.0,0.0,0.0,0.0,0.0,0.0,0.0,0.0,0.0,0.0,0.0,0.0,0.0,0.0,0.0,0.0,0.0,0.0,0.0,0.0,0.0,0.0,0.0,0.0,0.0,0.0,0.0,0.0,0.0,0.0,0.0,0.0,0.0,0.0,0.0,0.0,0.0,0.0,0.0,0.0,0.0,0.0,0.0,0.0,0.0,0.0,0.0,0.0,0.0,0.0,0.0,0.0,0.0,0.0,0.0,0.0,0.0,0.0,0.0,0.0,0.0,0.0,0.0,0.0,0.0,0.0,0.0,0.0,0.0,0.0,0.0,0.0,0.0,0.0,0.0,0.0,0.0,0.0,0.0,0.0,0.0,0.0,0.0,0.0,0.0,0.0,0.0,0.0,0.0,0.0,0.0,0.0,0.0,0.0,0.0,0.0,0.0,0.0,0.0,0.0,0.0,0.0,0.0,0.0,0.0,0.0,0.0,0.0,0.0,0.0,0.0,0.0,0.0,0.0,0.0,0.0,0.0,0.0,0.0,0.0,0.0,0.0,0.0,0.0,0.0,0.0,0.0,0.0,0.0,0.0,0.0,0.0,0.0,0.0,0.0,0.0,0.0,0.0,0.0,0.0,0.0,0.0,0.0,0.0,0.0,0.0,0.0,0.0,0.0,0.0,0.0,0.0,0.0,0.0,0.0,0.0,0.0,0.0,0.0,0.0,0.0,0.0,0.0,0.0,0.0,0.0,0.0,0.0,0.0,0.0,0.0,0.0,0.0,0.0,0.0,0.0,0.0,0.0,0.0,0.0,0.0,0.0,0.0,0.0,0.0,0.0,0.0,0.0,0.0,0.0,0.0,0.0,0.0,0.0,0.0,0.0,0.0,0.0,0.0,0.0,0.0,0.0,0.0,0.0,0.0,0.0,0.0,0.0,0.0,0.0,0.0,0.0,0.0,0.0,0.0,0.0,0.0,0.0,0.0,0.0,0.0,0.0,0.0,0.0,0.0,0.0,0.0,0.0,0.0,0.0,0.0,0.0,0.0,0.0,0.0,0.0,0.0,0.0,0.0,0.0,0.0,0.0,0.0,0.0,0.0,0.0,0.0,0.0,0.0,0.0,0.0,0.0,0.0,0.0,0.0,0.0,0.0,0.0,0.0,0.0,0.0,0.0,0.0,0.0,0.0,0.0,0.0,0.0,0.0,0.0,0.0,0.0,0.0,0.0,0.0,0.0,0.0,0.0,0.0,0.0,0.0,0.0,0.0,0.0,0.0,0.0,0.0,0.0,0.0,0.0,0.0,0.0,0.0,0.0,0.0,0.0,0.0,0.0,0.0,0.0,0.0,0.0,0.0,0.0,0.0,0.0,0.0,0.0,0.0,0.0,0.0,0.0,0.0,0.0,0.0,0.0,0.0,0.0,0.0,0.0,0.0,0.0,0.0,0.0,0.0,0.0,0.0,0.0,0.0,0.0,0.0,0.0,0.0,0.0,0.0,0.0,0.0,0.0,0.0,0.0,0.0,0.0,0.0,0.0,0.0,0.0,0.0,0.0,0.0,0.0,0.0,0.0,0.0,0.0,0.0,0.0,0.0,0.0,0.0,0.0,0.0,0.0,0.0,0.0,0.0,0.0,0.0,0.0,0.0,0.0,0.0,0.0,0.0,0.0,0.0,0.0,0.0,0.0,0.0,0.0,0.0,0.0,0.0,0.0,0.0,0.0,0.0,0.0,0.0,0.0,0.0,0.0,0.0,0.0,0.0,0.0,0.0,0.0,0.0,0.0,0.0,0.0,0.0,0.0,0.0,0.0,0.0,0.0,0.0,0.0,0.0,0.0,0.0,0.0,0.0,0.0,0.0,0.0,0.0,0.0,0.0,0.0,0.0,0.0,0.0,0.0,0.0,0.0,0.0,0.0,0.0,0.0,0.0,0.0,0.0,0.0,0.0,0.0,0.0,0.0,0.0,0.0,0.0,0.0,0.0,0.0,0.0,0.0,0.0,0.0,0.0,0.0,0.0,0.0,0.0,0.0,0.0,0.0,0.0,0.0,0.0,0.0,0.0,0.0,0.0,0.0,0.0,0.0,0.0,0.0,0.0,0.0,0.0,0.0,0.0,0.0,0.0,0.0,0.0,0.0,0.0,0.0,0.0,0.0,0.0,0.0,0.0,0.0,0.0,0.0,0.0,0.0,0.0,0.0,0.0,0.0,0.0,0.0,0.0,0.0,0.0,0.0,0.0,0.0,0.0,0.0,0.0,0.0,0.0,0.0,0.0,0.0,0.0,0.0,0.0,0.0,0.0,0.0,0.0,0.0,0.0,0.0,0.0,0.0,0.0,0.0,0.0,0.0,0.0,0.0,0.0,0.0,0.0,0.0,0.0,0.0,0.0,0.0,0.0,0.0,0.0,0.0,0.0,0.0,0.0,0.0,0.0,0.0,0.0,0.0,0.0,0.0,0.0,0.0,0.0,0.0,0.0,0.0,0.0,0.0,0.0,0.0,0.0,0.0,0.0,0.0,0.0,0.0,0.0,0.0,0.0,0.0,0.0,0.0,0.0,0.0,0.0,0.0,0.0,0.0,0.0,0.0,0.0,0.0,0.0,0.0,0.0,0.0,0.0,0.0,0.0,0.0,0.0,0.0,0.0,0.0,0.0,0.0,0.0,0.0,0.0,0.0,0.0,0.0,0.0,0.0,0.0,0.0,0.0,0.0,0.0,0.0,0.0,0.0,0.0,0.0,0.0,0.0,0.0,0.0,0.0,0.0,0.0,0.0,0.0,0.0,0.0,0.0,0.0,0.0,0.0,0.0,0.0,0.0,0.0,0.0,0.0,0.0,0.0,0.0,0.0,0.0,0.0,0.0,0.0,0.0,0.0,0.0,0.0,0.0,0.0,0.0,0.0,0.0,0.0,0.0,0.0,0.0,0.0,0.0,0.0,0.0,0.0,0.0,0.0,0.0,0.0,0.0,0.0,0.0,0.0,0.0,0.0,0.0,0.0,0.0,0.0,0.0,0.0,0.0,0.0,0.0,0.0,0.0,0.0,0.0,0.0,0.0,0.0,0.0,0.0,0.0,0.0,0.0,0.0,0.0,0.0,0.0,0.0,0.0,0.0,0.0,0.0,0.0,0.0,0.0,0.0,0.0,0.0,0.0,0.0,0.0,0.0,0.0,0.0,0.0,0.0,0.0,0.0,0.0,0.0,0.0,0.0,0.0,0.0,0.0,0.0,0.0,0.0,0.0,0.0,0.0,0.0,0.0,0.0,0.0,0.0,0.0,0.0,0.0,0.0,0.0,0.0,0.0,0.0,0.0,0.0,0.0,0.0,0.0,0.0,0.0,0.0,0.0,0.0,0.0,0.0,0.0,0.0,0.0,0.0,0.0,0.0,0.0,0.0,0.0,0.0,0.0,0.0,0.0,0.0,0.0,0.0,0.0,0.0,0.0,0.0,0.0,0.0,0.0,0.0,0.0,0.0,0.0,0.0,0.0,0.0,0.0,0.0,0.0,0.0,0.0,0.0,0.0,0.0,0.0,0.0,0.0,0.0,0.0,0.0,0.0,0.0,0.0,0.0,0.0,0.0,0.0,0.0,0.0,0.0,0.0,0.0,0.0,0.0,0.0,0.0,0.0,0.0,0.0,0.0,0.0,0.0,0.0,0.0,0.0,0.0,0.0,0.0,0.0,0.0,0.0,0.0,0.0,0.0,0.0,0.0,0.0,0.0,0.0,0.0,0.0,0.0,0.0,0.0,0.0,0.0,0.0,0.0,0.0,0.0,0.0,0.0,0.0,0.0,0.0,0.0,0.0,0.0,0.0,0.0,0.0,0.0,0.0,0.0,0.0,0.0,0.0,0.0,0.0,0.0,0.0,0.0,0.0,0.0,0.0,0.0,0.0,0.0,0.0,0.0,0.0,0.0,0.0,0.0,0.0,0.0,0.0,0.0,0.0,0.0,0.0,0.0,0.0,0.0,0.0,0.0,0.0,0.0,0.0,0.0,0.0,0.0,0.0,0.0,0.0,0.0,0.0,0.0,0.0,0.0,0.0,0.0,0.0,0.0,0.0,0.0,0.0,0.0,0.0,0.0,0.0,0.0,0.0,0.0,0.0,0.0,0.0,0.0,0.0,0.0,0.0,0.0,0.0,0.0,0.0,0.0,0.0,0.0,0.0,0.0,0.0,0.0,0.0,0.0,0.0,0.0,0.0,0.0,0.0,0.0,0.0,0.0,0.0,0.0,0.0,0.0,0.0,0.0,0.0,0.0,0.0,0.0,0.0,0.0,0.0,0.0,0.0,0.0,0.0,0.0,0.0,0.0,0.0,0.0,0.0,0.0,0.0,0.0,0.0,0.0,0.0,0.0,0.0,0.0,0.0,0.0,0.0,0.0,0.0,0.0,0.0,0.0,0.0,0.0,0.0,0.0,0.0,0.0,0.0,0.0,0.0,0.0,0.0,0.0,0.0,0.0,0.0,0.0,0.0,0.0,0.0,0.0,0.0,0.0,0.0,0.0,0.0,0.0,0.0,0.0,0.0,0.0,0.0,0.0,0.0,0.0,0.0,0.0,0.0,0.0,0.0,0.0,0.0,0.0,0.0,0.0,0.0,0.0,0.0,0.0,0.0,0.0,0.0,0.0,0.0,0.0,0.0,0.0,0.0,0.0,0.0,0.0,0.0,0.0,0.0,0.0,0.0,0.0,0.0,0.0,0.0,0.0,0.0,0.0,0.0,0.0,0.0,0.0,0.0,0.0,0.0,0.0,0.0,0.0,0.0,0.0,0.0,0.0,0.0,0.0,0.0,0.0,0.0,0.0,0.0,0.0,0.0,0.0,0.0,0.0,0.0,0.0,0.0,0.0,0.0,0.0,0.0,0.0,0.0,0.0,0.0,0.0,0.0,0.0,0.0,0.0,0.0,0.0,0.0,0.0,0.0,0.0,0.0,0.0,0.0,0.0,0.0,0.0,0.0,0.0,0.0,0.0,0.0,0.0,0.0,0.0,0.0,0.0,0.0,0.0,0.0,0.0,0.0,0.0,0.0,0.0,0.0,0.0,0.0,0.0,0.0,0.0,0.0,0.0,0.0,0.0,0.0,0.0,0.0,0.0,0.0,0.0,0.0,0.0,0.0,0.0,0.0,0.0,0.0,0.0,0.0,0.0,0.0,0.0,0.0,0.0,0.0,0.0,0.0,0.0,0.0,0.0,0.0,0.0,0.0,0.0,0.0,0.0,0.0,0.0,0.0,0.0,0.0,0.0,0.0,0.0,0.0,0.0,0.0,0.0,0.0,0.0,0.0,0.0,0.0,0.0,0.0,0.0,0.0,0.0,0.0,0.0,0.0,0.0,0.0,0.0,0.0,0.0,0.0,0.0,0.0,0.0,0.0,0.0,0.0,0.0,0.0,0.0,0.0,0.0,0.0,0.0,0.0,0.0,0.0,0.0,0.0,0.0,0.0,0.0,0.0,0.0,0.0,0.0,0.0,0.0,0.0,0.0,0.0,0.0,0.0,0.0,0.0,0.0,0.0,0.0,0.0,0.0,0.0,0.0,0.0,0.0,0.0,0.0,0.0,0.0,0.0,0.0,0.0,0.0,0.0,0.0,3.8184,3.9281,0.0,0.0,0.0,0.0,0.0,0.0,0.0,0.0,0.0,0.0,0.0,0.0,0.0,0.0,0.0,0.0,0.0,0.0,0.0,0.0,0.0,0.0,0.0,0.0,0.0,0.0,0.0,0.0,0.0,0.0,0.0,0.0,0.0,0.0,0.0,0.0,0.0,0.0,0.0,0.0,0.0,0.0,0.0,0.0,0.0,0.0,0.0,0.0,0.0,0.0,0.0,0.0,0.0,0.0,0.0,0.0,0.0,0.0,0.0,0.0,0.0,0.0,0.0,0.0,0.0,0.0,0.0,0.0,0.0,0.0,0.0,0.0,0.0,0.0,0.0,0.0,0.0,0.0,0.0,0.0,0.0,0.0,0.0,0.0,0.0,0.0,0.0,0.0,0.0,0.0,0.0,0.0,0.0,0.0,0.0,0.0,0.0,0.0,0.0,0.0,0.0,0.0,0.0,0.0,0.0,0.0,0.0,0.0,0.0,0.0,0.0,0.0,0.0,0.0,3.9858,3.99,0.0,0.0,0.0,0.0,0.0,0.0,0.0,0.0,0.0,0.0,0.0,0.0,0.0,0.0,0.0,0.0,0.0,0.0,0.0,0.0,0.0,0.0,0.0,0.0,0.0,0.0,0.0,0.0,0.0,0.0,0.0,0.0,0.0,0.0,0.0,0.0,0.0,0.0,0.0,0.0,0.0,0.0,0.0,0.0,0.0,0.0,0.0,0.0,0.0,0.0,0.0,0.0,0.0,0.0,0.0,0.0,0.0,0.0,0.0,0.0,0.0,0.0,0.0,0.0,0.0,0.0,0.0,0.0,0.0,0.0,0.0,0.0,0.0,0.0,0.0,0.0,0.0,0.0,0.0,0.0,0.0,0.0,0.0,0.0,0.0,0.0,0.0,0.0,0.0,0.0,0.0,0.0,0.0,0.0,0.0,0.0,0.0,0.0,0.0,0.0,0.0,0.0,0.0,0.0,0.0,0.0,0.0,0.0,4.2023,4.2408,4.3104,4.3104,4.3104,4.3028,4.1589,4.0492,3.9838,4.1235,0.0,0.0,0.0,0.0,0.0,0.0,0.0,0.0,0.0,0.0,0.0,0.0,0.0,0.0,0.0,0.0,0.0,0.0,0.0,0.0,0.0,0.0,0.0,0.0,0.0,0.0,0.0,0.0,0.0,0.0,0.0,0.0,0.0,0.0,0.0,0.0,0.0,0.0,3.0423,3.2003,3.2737,3.2737,3.2737,0.0,0.0,0.0,0.0,0.0,0.0,0.0,0.0,0.0,0.0,0.0,0.0,0.0,0.0,0.0,0.0,0.0,0.0,0.0,0.0,0.0,0.0,0.0,0.0,0.0,0.0,0.0,0.0,0.0,0.0,0.0,0.0,0.0,0.0,0.0,0.0,0.0,0.0,0.0,0.0,0.0,0.0,0.0,3.7427,3.6773,0.0,0.0,0.0,0.0,0.0,0.0,0.0,0.0,0.0,0.0,0.0,0.0,0.0,4.1985,4.2758,4.2758,4.2816,4.2931,4.2931,4.2989,4.3104,4.3104,4.3104,4.3085,4.2854,0.0,4.1485,4.1716,0.0,0.0,0.0,0.0,0.0,0.0,0.0,0.0,0.0,0.0,0.0,0.0,0.0,0.0,0.0,0.0,0.0,0.0,0.0,0.0,0.0,0.0,0.0,0.0,0.0,0.0,0.0,0.0,0.0,0.0,0.0,0.0,0.0,0.0,0.0,0.0,3.1965,3.2179,3.183,3.3064,3.3625,3.3644,3.4138,3.4369,3.433,3.3833,0.0,0.0,0.0,0.0,0.0,0.0,0.0,0.0,0.0,0.0,0.0,0.0,0.0,0.0,0.0,0.0,0.0,0.0,0.0,0.0,0.0,0.0,0.0,0.0,0.0,0.0,0.0,0.0,0.0,0.0,0.0,0.0,0.0,0.0,0.0,0.0,0.0,0.0,0.0,3.8354,3.9261,3.8877,4.0258,4.1085,0.0,0.0,0.0,0.0,0.0,0.0,0.0,0.0,0.0,4.3181,4.322,4.3624,4.4494,4.4513,4.4739,4.5235,4.5235,4.5466,4.5893,4.5447,4.5235,4.5216,4.472,4.4008,4.322,4.322,4.322,4.3239,0.0,0.0,0.0,0.0,4.4297,4.4239,0.0,0.0,0.0,0.0,0.0,0.0,0.0,0.0,0.0,0.0,0.0,0.0,0.0,0.0,0.0,3.0673,0.0,0.0,0.0,0.0,0.0,0.0,0.0,0.0,0.0,0.0,0.0,0.0,3.3372,3.3776,3.3583,3.4664,3.5049,3.4875,3.5753,3.5904,3.5462,3.4814,3.4029,0.0,0.0,0.0,0.0,0.0,0.0,0.0,0.0,0.0,0.0,0.0,0.0,0.0,0.0,0.0,0.0,0.0,0.0,0.0,0.0,0.0,0.0,0.0,0.0,0.0,0.0,0.0,0.0,0.0,0.0,0.0,0.0,0.0,0.0,0.0,0.0,0.0,0.0,3.9588,4.0496,4.0496,4.147,4.2043,0.0,0.0,0.0,0.0,0.0,0.0,4.2773,4.3605,4.4432,4.5259,4.5278,4.5802,4.6879,4.6687,4.6898,4.7543,4.7312,4.7524,4.8082,4.7485,4.7216,4.7178,4.6509,4.5879,4.522,4.4566,4.4297,4.4297,4.4297,4.4436,4.4609,4.4374,4.4297,4.4259,0.0,0.0,0.0,0.0,0.0,0.0,0.0,0.0,0.0,0.0,0.0,0.0,0.0,0.0,3.1583,3.1638,3.1638,3.1968,0.0,0.0,0.0,0.0,0.0,0.0,0.0,0.0,0.0,3.4068,3.5718,3.6115,3.5404,3.7042,3.7373,3.6619,3.7488,3.6984,3.55,3.5442,3.4926,3.4125,0.0,0.0,0.0,0.0,0.0,0.0,0.0,0.0,0.0,0.0,0.0,0.0,0.0,0.0,0.0,0.0,0.0,0.0,0.0,0.0,0.0,0.0,0.0,0.0,0.0,0.0,0.0,0.0,0.0,0.0,0.0,0.0,0.0,0.0,0.0,0.0,0.0,0.0,0.0,4.0496,4.1993,0.0,0.0,0.0,0.0,4.4047,4.4917,4.5417,4.5417,4.624,4.7081,4.787,4.7908,4.8721,5.0418,4.963,4.9221,4.926,4.8432,4.8062,4.8101,4.8062,4.8043,4.8043,4.7985,4.7947,4.7716,4.5297,4.4297,4.4297,4.4297,4.4801,4.5436,4.4609,4.4297,4.4182,0.0,0.0,0.0,0.0,0.0,0.0,0.0,0.0,0.0,0.0,0.0,0.0,0.0,3.1333,3.191,3.2429,3.2006,3.1811,3.2102,0.0,0.0,0.0,0.0,0.0,0.0,0.0,3.4722,3.5815,3.6969,3.7388,3.7119,3.7719,3.7834,3.7546,3.7853,3.7661,3.7061,3.6504,3.5468,3.4241,3.4814,3.4507,0.0,0.0,0.0,0.0,0.0,0.0,0.0,0.0,0.0,0.0,0.0,0.0,0.0,0.0,0.0,0.0,0.0,0.0,0.0,0.0,0.0,0.0,0.0,0.0,0.0,0.0,0.0,0.0,0.0,0.0,0.0,0.0,0.0,0.0,0.0,0.0,0.0,4.3728,4.4836,0.0,4.512,4.5351,4.5658,4.5947,4.7259,4.8052,4.8052,4.888,4.9702,5.0524,5.0543,5.1101,5.2299,5.201,5.1856,5.1837,5.1524,5.137,5.1351,5.0793,5.0543,5.0486,4.9394,4.8933,4.8817,4.7355,4.6759,4.6682,4.6182,4.6163,4.6394,4.6086,4.5624,4.5186,0.0,0.0,0.0,0.0,0.0,0.0,0.0,0.0,0.0,0.0,0.0,3.0731,3.1599,3.1948,3.2449,3.3279,3.2583,3.2349,3.2945,0.0,0.0,0.0,0.0,0.0,0.0,3.618,3.6741,3.7584,3.9027,3.9565,3.9296,3.9585,3.9719,3.9719,3.9719,3.9565,3.9238,3.8677,3.7273,3.551,3.5792,3.5561,3.5007,0.0,0.0,0.0,0.0,0.0,0.0,0.0,0.0,0.0,0.0,0.0,0.0,0.0,0.0,0.0,0.0,0.0,0.0,0.0,0.0,0.0,0.0,0.0,0.0,0.0,0.0,0.0,0.0,0.0,0.0,0.0,0.0,0.0,0.0,4.4485,4.5701,4.7148,4.7836,4.8182,4.8182,4.8182,4.8293,4.8562,4.9894,5.0683,5.0683,5.1765,5.2631,5.3178,5.3178,5.3601,5.4472,5.3914,5.3645,5.3645,5.3332,5.3197,5.3178,5.2601,5.2332,5.2274,5.1164,5.0683,5.0644,5.0067,4.9813,4.9639,4.7966,4.7293,4.7293,4.7293,4.6932,4.6533,0.0,0.0,0.0,0.0,0.0,0.0,0.0,0.0,0.0,0.0,3.0423,3.0769,3.1638,3.2468,3.3295,3.4164,3.3433,3.366,3.5346,3.3888,0.0,0.0,0.0,0.0,3.6811,3.9242,4.015,3.9415,4.1893,4.2662,4.1869,4.2701,4.3104,4.3104,4.3104,4.2624,4.185,4.185,4.0427,3.8084,3.7157,3.6773,3.6696,0.0,0.0,0.0,0.0,0.0,0.0,0.0,0.0,0.0,0.0,0.0,0.0,0.0,0.0,0.0,0.0,0.0,0.0,0.0,0.0,0.0,0.0,0.0,0.0,0.0,0.0,0.0,0.0,0.0,0.0,0.0,0.0,0.0,4.6831,4.7005,4.7985,5.0476,5.0822,5.0861,5.0861,5.088,5.1226,5.2005,5.287,5.3351,5.3351,5.4895,5.5785,5.5785,5.5785,5.6189,5.7036,5.5401,5.4568,5.4568,5.3683,5.3274,5.3274,5.3274,5.3274,5.3274,5.3255,5.3236,5.3236,5.3217,5.3197,5.287,4.9543,4.8235,4.8216,4.8216,4.8197,4.8139,0.0,0.0,0.0,0.0,0.0,0.0,0.0,0.0,0.0,0.0,3.0942,3.1657,3.2487,3.3337,3.4183,3.5061,3.4353,3.4048,3.4529,0.0,0.0,0.0,0.0,0.0,3.9415,4.015,4.1012,4.2066,4.2758,4.2989,4.2758,4.2989,4.3104,4.3104,4.3104,4.297,4.2739,4.2739,4.2335,4.1527,3.9431,3.8588,3.8492,0.0,0.0,0.0,0.0,0.0,0.0,0.0,0.0,0.0,0.0,0.0,0.0,0.0,0.0,0.0,0.0,0.0,0.0,0.0,0.0,0.0,0.0,0.0,0.0,0.0,0.0,0.0,0.0,0.0,0.0,0.0,4.7937,4.8937,4.7908,4.937,5.1024,5.2356,5.3592,5.4323,5.4323,5.49,5.5362,5.5574,5.6415,5.689,5.689,5.7338,5.7588,5.7588,5.7588,5.7703,5.7934,5.6863,5.6305,5.6305,5.5439,5.5011,5.5011,5.5011,5.5011,5.4972,5.4395,5.4145,5.4087,5.3453,5.3197,5.3101,5.2159,5.1409,5.087,5.087,5.0082,4.8952,0.0,0.0,0.0,0.0,0.0,0.0,0.0,0.0,0.0,0.0,3.1157,3.2006,3.2814,3.3683,3.4395,3.4911,3.4491,3.4205,3.4205,0.0,0.0,0.0,0.0,3.9161,4.0989,4.1724,4.2416,4.3104,4.3797,4.3951,4.3605,4.3974,4.4147,4.4147,4.4147,4.4147,4.4147,4.4147,4.4147,4.3993,4.2147,4.1185,4.0762,3.9511,3.9277,3.9546,3.9181,3.9165,3.9223,3.8723,0.0,0.0,0.0,0.0,0.0,0.0,0.0,0.0,0.0,0.0,0.0,0.0,0.0,0.0,0.0,0.0,0.0,0.0,0.0,0.0,0.0,0.0,0.0,0.0,5.1087,5.2188,5.1875,5.2799,5.3948,5.5178,5.6203,5.678,5.678,5.7242,5.753,5.753,5.8338,5.866,5.8313,5.8973,5.9184,5.8813,5.88,5.88,5.88,5.7973,5.753,5.7536,5.703,5.678,5.678,5.642,5.6247,5.6209,5.5362,5.4991,5.4953,5.4453,5.4241,5.4184,0.0,0.0,0.0,0.0,5.1832,5.0875,0.0,0.0,0.0,0.0,0.0,0.0,0.0,0.0,0.0,0.0,0.0,3.2102,3.2814,3.3683,3.4205,3.4205,3.4205,3.4279,0.0,0.0,0.0,3.8238,3.9896,4.1204,4.2062,4.3643,4.4105,4.3374,4.4878,4.5205,4.4455,4.5244,4.5594,4.5594,4.5594,4.5648,4.5744,4.5744,4.5744,4.5686,4.4898,4.4047,4.3066,4.1416,4.1277,4.185,4.107,4.0396,3.9858,3.9761,0.0,0.0,0.0,0.0,0.0,0.0,0.0,0.0,0.0,0.0,0.0,0.0,0.0,0.0,0.0,0.0,0.0,0.0,0.0,0.0,0.0,0.0,0.0,0.0,5.4241,5.5511,5.719,5.6766,5.6799,5.8256,5.8525,5.8583,5.8583,5.8583,5.8583,5.8583,5.9242,5.9338,5.8627,5.9992,0.0,0.0,0.0,5.9646,5.9646,5.8838,5.8434,5.8429,5.8333,5.8294,5.828,5.7497,5.7093,5.6964,5.6189,5.5785,5.5708,5.5708,5.5708,5.5535,5.3953,5.3351,5.3332,5.3236,5.3197,5.3082,0.0,0.0,0.0,0.0,0.0,0.0,0.0,0.0,0.0,3.0404,3.1715,3.2737,3.2872,3.3683,3.4205,3.4205,3.4205,3.4779,0.0,0.0,3.843,3.9954,4.1666,4.297,4.3797,4.4821,4.5263,4.5109,4.5436,4.5513,4.534,4.5518,4.5594,4.5594,4.5594,4.5994,4.6639,4.6639,4.6639,4.662,4.6466,4.547,4.3951,4.297,4.2701,4.2835,4.2662,4.2912,4.3224,4.2585,4.2681,4.2854,4.1485,0.0,0.0,0.0,0.0,0.0,0.0,0.0,0.0,0.0,0.0,0.0,0.0,0.0,0.0,0.0,0.0,0.0,0.0,0.0,0.0,5.3914,5.6107,5.8146,5.9825,5.9921,5.9685,5.9319,5.9896,6.0319,6.0319,6.0319,6.0319,6.0319,6.0454,6.0473,6.0319,6.0614,6.0723,6.055,6.055,6.055,6.055,5.9704,5.9281,5.9261,5.8607,0.0,5.8294,5.8127,5.7671,5.6983,5.6824,5.6343,5.5708,5.5708,5.5708,5.5593,5.4626,5.4241,5.4164,5.3453,5.3197,5.3178,0.0,0.0,0.0,0.0,0.0,0.0,0.0,0.0,0.0,0.0,3.2506,3.3548,3.3548,3.4334,3.4661,3.4241,3.4205,0.0,0.0,3.7911,3.9396,4.1085,4.2797,4.4085,4.4936,4.5379,4.5594,4.5594,4.5594,4.5594,4.5614,4.6052,4.624,4.6278,4.6663,4.7086,4.7505,4.7505,4.7505,4.7505,4.7505,4.6735,4.5509,4.4662,4.4359,4.4359,4.4359,4.434,4.4239,4.3835,4.3701,4.3547,4.272,4.2446,4.2374,0.0,0.0,0.0,0.0,0.0,0.0,0.0,0.0,0.0,0.0,0.0,0.0,0.0,0.0,5.0389,5.1664,0.0,5.5159,5.73,5.9094,6.0627,6.1877,6.205,6.1743,6.0902,6.1191,6.1441,6.1441,6.1441,6.1441,6.1441,6.1056,6.0806,6.0806,6.0806,6.0806,6.0806,6.0806,6.0806,6.0806,6.0358,6.0146,6.0146,5.9742,5.955,5.9531,5.9108,5.8665,5.8228,5.7824,5.717,5.6343,5.6343,5.6343,5.6305,5.5901,5.5478,5.5049,5.4607,5.4453,5.4395,0.0,0.0,0.0,0.0,0.0,0.0,0.0,0.0,0.0,0.0,3.326,3.4205,3.4205,3.4834,3.4965,0.0,0.0,0.0,0.0,3.8665,4.0358,4.2216,4.3739,4.4878,4.5575,4.5594,4.5594,4.5594,4.5763,4.584,4.5879,4.674,4.7139,4.7158,4.7812,4.8197,4.8355,4.8355,4.8355,4.8355,4.8355,4.7851,4.7043,4.6182,4.5744,4.5594,4.5594,4.5148,4.4551,4.4551,4.4128,4.3585,4.3585,4.3585,4.3547,4.3374,4.3335,0.0,0.0,0.0,0.0,0.0,0.0,0.0,0.0,4.8851,4.9548,5.1111,5.2202,5.3524,5.5574,5.6934,5.8467,6.0691,6.1768,6.2614,6.3429,6.341,6.3121,6.2633,6.2441,6.2326,6.2326,6.2326,6.2326,6.2326,6.1537,6.1056,6.1056,6.0883,6.0806,6.0806,6.0806,6.0806,6.0806,6.0806,6.0806,6.0806,6.0806,6.0806,6.0787,6.0069,5.9665,5.9454,5.864,5.7896,5.7247,5.7074,5.6997,5.6978,5.6805,5.6324,5.5708,5.5708,5.5708,5.5612,0.0,0.0,0.0,0.0,0.0,0.0,0.0,0.0,0.0,0.0,0.0,0.0,0.0,0.0,0.0,0.0,0.0,0.0,3.88,3.9858,4.1454,4.3912,4.4936,4.5494,4.5594,4.5594,4.5594,4.5594,4.6374,4.6755,4.6774,4.7582,4.7966,4.7966,4.8062,4.8529,4.924,4.924,4.924,4.924,4.924,4.874,4.787,4.7062,4.6278,4.5594,4.5594,4.5537,4.5455,4.5455,4.5398,4.5321,4.5321,4.5321,4.5167,4.4397,4.4162,4.4162,4.4162,4.4724,4.6071,4.9207,4.8971,4.9144,0.0,5.3626,5.2895,5.3876,5.5324,5.6516,5.6805,5.8786,6.0723,6.1787,6.2647,6.3468,6.4339,6.3795,6.3545,6.4243,6.3641,6.316,6.316,6.316,6.316,6.316,6.2416,6.1941,6.1941,6.1229,6.0806,6.0806,6.0806,6.0806,6.0806,6.0806,6.0806,6.0806,6.0806,6.0806,6.0806,6.071,6.0223,5.9454,5.864,5.8236,5.8088,5.7324,5.6992,5.6929,5.6145,5.5785,5.5708,5.5708,5.5708,5.5689,0.0,0.0,0.0,0.0,0.0,0.0,0.0,0.0,0.0,0.0,0.0,0.0,0.0,0.0,0.0,0.0,0.0,0.0,3.8396,3.9761,4.1316,4.3168,4.4561,4.5312,4.5312,4.5118,4.5217,4.5594,4.6234,4.6675,4.6928,4.824,4.8856,4.8875,4.9394,5.0087,5.0851,5.0851,5.0851,5.0851,5.0851,5.0043,4.8759,4.7928,4.7081,4.622,4.5205,4.484,0.0,0.0,4.484,4.4936,4.5436,4.5594,4.5537,4.5167,4.5051,4.5051,4.5051,4.6398,4.8149,4.9591,5.051,5.176,5.4395,5.5208,5.5785,5.7126,5.8767,6.0114,6.0589,6.1954,6.3301,6.4172,6.5,6.5647,6.5994,6.534,6.4762,6.4628,6.3833,6.3506,6.4006,6.4064,6.4064,6.4064,6.2845,6.2095,6.2095,6.1268,6.0806,6.0806,6.0806,6.0806,6.0806,6.0806,6.0806,6.0806,6.0806,6.0806,6.0787,6.0262,5.9588,5.8742,5.7915,5.753,5.7517,5.7151,5.6997,5.6953,5.6593,5.6459,5.6401,5.5882,5.5708,5.5708,0.0,0.0,0.0,0.0,0.0,0.0,0.0,0.0,0.0,0.0,0.0,0.0,0.0,0.0,0.0,0.0,0.0,0.0,0.0,3.9805,4.1226,4.2341,4.4041,4.496,4.496,4.4714,4.4849,4.5313,4.6115,4.6649,4.6959,4.8649,4.9496,4.9612,5.0251,5.1036,5.1885,5.1659,5.1697,5.1885,5.1659,5.0702,4.9298,4.8432,4.7447,4.6336,4.4836,4.4455,0.0,0.0,4.4455,4.4763,4.5398,4.5763,4.5917,4.5667,4.5763,4.6052,4.6513,4.8168,4.9938,5.0625,5.2356,5.4299,5.5876,5.717,5.8517,6.0204,6.1743,6.298,6.3545,6.4378,6.5166,6.5807,6.6385,6.6692,6.6442,6.5917,6.5224,6.4359,6.3679,6.3545,6.4179,6.4455,6.4705,6.4936,6.3378,6.2422,6.2422,6.1383,6.0806,6.0806,6.0806,6.0806,6.0806,6.0806,6.0806,6.0806,6.0806,6.0806,6.0762,5.9896,5.9184,5.8588,5.7728,5.7363,5.7343,5.7099,5.7003,5.6983,5.6728,5.6632,5.6555,5.5939,5.5708,5.5708,0.0,0.0,0.0,0.0,0.0,0.0,0.0,0.0,0.0,0.0,0.0,0.0,0.0,0.0,0.0,0.0,0.0,0.0,0.0,4.0377,4.1521,4.2081,4.3712,4.4624,4.4624,4.4618,4.4606,4.4625,4.621,4.6996,4.7022,4.8702,4.9709,5.0091,5.011,5.077,5.1846,5.1068,5.1183,5.1827,5.1048,5.0207,4.9298,4.8432,4.7086,4.5513,4.4628,0.0,0.0,4.459,4.4859,4.5575,4.5594,4.6182,4.6697,4.584,4.6201,4.7216,4.8836,4.9957,5.1246,5.3722,5.4991,5.6497,5.9844,6.0652,6.1166,6.2833,6.3891,6.4532,6.457,6.5263,6.5859,6.5904,6.5923,6.5628,6.4782,6.4647,6.4314,6.3448,6.3314,6.3314,6.3333,6.4109,6.4955,6.5807,6.4243,6.3256,6.3256,6.1704,6.0806,6.0806,6.0806,6.0806,6.0806,6.0806,6.0806,6.0806,6.0806,6.0806,6.0762,5.9896,5.9492,5.9415,5.8607,5.8256,5.8198,5.7343,5.7003,5.6926,5.6074,5.5747,5.5747,5.5708,5.5708,5.5708,0.0,0.0,0.0,0.0,0.0,0.0,0.0,0.0,0.0,0.0,0.0,0.0,0.0,0.0,0.0,0.0,0.0,0.0,0.0,3.9999,4.0725,4.1222,4.263,4.3414,4.3414,4.371,4.411,4.4593,4.5453,4.5986,4.6234,4.7921,4.8784,4.8932,4.974,5.0616,5.1492,5.1511,5.1659,5.1832,5.1015,5.0188,4.9183,4.7206,4.6451,4.6201,0.0,0.0,0.0,4.3605,4.4047,4.484,4.5417,4.5802,4.6086,4.6374,4.7451,4.8817,4.9957,5.1707,5.3689,5.567,5.7632,5.9536,6.1268,6.2518,6.332,6.3295,6.3525,6.3564,6.3037,6.3172,6.3749,6.4859,6.5513,6.5807,6.5493,6.5455,6.4724,6.2749,6.2499,6.2499,6.2499,6.3243,6.4109,6.4974,6.3455,6.2743,6.3275,6.1704,6.0806,6.0806,6.0806,6.0806,6.0806,6.0806,6.0806,6.0806,6.0806,5.9921,5.8305,5.9127,5.8896,5.7824,5.7555,5.744,5.7363,5.6497,5.6132,5.6112,5.5805,5.5708,5.5708,5.5708,5.5708,5.5708,0.0,0.0,0.0,0.0,0.0,0.0,0.0,0.0,0.0,0.0,0.0,0.0,0.0,0.0,0.0,0.0,0.0,3.7593,0.0,0.0,4.0302,4.019,4.1476,4.2183,4.2183,4.2499,4.2868,4.3341,4.4234,4.4771,4.5013,4.6667,4.7511,4.7679,4.8467,4.941,5.0434,5.0394,5.0425,5.0466,4.9663,4.8822,4.786,4.6225,4.5744,0.0,0.0,0.0,4.3528,4.3528,4.4085,4.4859,4.5417,4.5802,4.6355,4.7836,4.9221,5.0606,5.2092,5.415,5.6184,5.7555,5.9363,6.1037,6.1903,6.2922,6.3551,6.2993,6.2878,6.2627,6.1787,6.1383,6.1633,6.3012,6.3705,6.4192,6.4499,6.4538,6.3922,6.2287,6.2095,6.1979,6.1672,6.2377,6.3224,6.4064,6.2864,6.2326,6.2839,6.155,6.0806,6.0806,6.0806,6.0806,6.0806,6.0806,6.0806,6.0806,6.0806,5.994,5.8382,5.9146,5.8761,5.7459,5.7132,5.6824,5.6497,5.5939,5.5708,5.5708,5.5708,5.5708,5.5708,5.5708,5.5708,5.5708,0.0,0.0,0.0,0.0,0.0,0.0,0.0,0.0,0.0,0.0,0.0,0.0,0.0,0.0,0.0,0.0,0.0,0.0,0.0,0.0,0.0,3.9164,4.0357,4.1048,4.1048,4.1077,4.1095,4.1095,4.2635,4.3378,4.3414,4.4984,4.5912,4.6291,4.6353,4.7238,4.8593,4.7802,4.7662,4.7875,4.7135,4.6336,4.5594,4.5556,0.0,0.0,0.0,0.0,4.4359,4.4321,4.4917,4.5667,4.5706,4.6355,4.7582,5.0091,5.1433,5.264,5.5145,5.7069,5.8569,5.9358,6.0223,6.1075,6.1903,6.2095,6.2095,6.2037,6.196,6.1633,6.0768,5.9973,5.9723,6.0589,6.0806,6.1172,6.2037,6.2191,6.221,6.2172,6.2191,6.1864,6.096,6.1652,6.246,6.3179,6.2499,6.2076,6.2153,6.1306,6.0806,6.0806,6.0806,6.0806,6.0806,6.0806,6.0787,6.0729,6.0787,6.0768,6.0646,5.9896,5.9127,5.8313,5.744,5.6593,5.5824,5.5747,5.5708,5.5708,5.5708,5.5708,5.5708,5.5708,5.5708,5.5708,0.0,0.0,0.0,0.0,0.0,0.0,0.0,0.0,0.0,0.0,0.0,0.0,0.0,0.0,0.0,0.0,0.0,0.0,0.0,0.0,0.0,0.0,0.0,0.0,0.0,0.0,0.0,0.0,4.1507,4.1709,4.1727,4.2745,4.3272,4.3406,4.4307,4.4935,4.5341,4.5615,4.5788,4.5866,0.0,4.5802,4.5537,0.0,0.0,0.0,0.0,0.0,4.5167,4.4513,4.5316,4.6663,4.7278,4.8509,5.0111,5.201,5.3587,5.5164,5.7107,5.8396,5.9396,6.0262,6.1114,6.1826,6.2056,6.2095,6.1922,6.1268,6.0146,5.8992,5.8132,5.8319,5.8877,5.9704,6.0921,6.2056,6.2878,6.3551,6.3724,6.3064,6.357,6.3378,6.1903,6.2512,6.2839,6.2441,6.1614,6.1685,6.2935,6.1589,6.0806,6.0806,6.0806,6.0806,6.0806,6.0806,6.0473,5.9838,6.0492,6.0146,5.8973,5.9992,5.9992,5.9146,5.8338,5.7838,5.755,5.6242,5.5708,5.5708,5.5708,5.5708,5.5708,5.5708,5.5708,5.5708,0.0,0.0,0.0,0.0,0.0,0.0,0.0,0.0,0.0,0.0,0.0,0.0,0.0,0.0,0.0,0.0,0.0,0.0,0.0,0.0,0.0,0.0,0.0,0.0,0.0,0.0,0.0,0.0,0.0,0.0,4.0589,4.1397,4.1764,4.1799,4.248,4.2955,4.3253,4.3615,0.0,0.0,0.0,0.0,0.0,0.0,0.0,0.0,0.0,4.5186,4.5629,4.5874,4.6624,4.7697,4.9274,5.0702,5.2202,5.426,5.5799,5.7126,5.8473,5.9435,6.0185,6.0691,6.1172,6.1345,6.0594,6.071,6.0498,5.8882,5.8113,5.7453,5.6593,5.653,5.703,5.8204,5.9229,6.0537,6.2493,6.3185,6.3589,6.3833,6.4301,6.3935,6.2249,6.2839,6.2974,6.2153,6.1652,6.1787,6.2724,6.1518,6.0806,6.0806,6.0806,6.0806,6.0806,6.0806,6.055,6.0089,6.0575,6.03,5.9435,6.0358,6.0127,5.8954,5.8511,5.7877,5.7088,5.6107,5.5708,5.5708,5.5708,5.5708,5.5708,5.5708,5.5708,5.5708,0.0,0.0,0.0,0.0,0.0,0.0,0.0,0.0,0.0,0.0,0.0,0.0,0.0,0.0,0.0,0.0,0.0,0.0,0.0,0.0,0.0,0.0,0.0,0.0,0.0,0.0,0.0,0.0,0.0,0.0,0.0,0.0,0.0,0.0,0.0,0.0,0.0,0.0,0.0,0.0,0.0,0.0,0.0,0.0,0.0,0.0,0.0,4.5763,4.6052,4.7836,4.8452,4.8889,5.1447,5.2928,5.4184,5.6613,5.7877,5.864,5.9454,6.0223,6.0806,6.0806,6.0704,6.0223,5.866,5.866,5.8377,5.617,5.6228,5.6478,5.5824,5.5228,5.5343,5.692,5.7267,5.844,6.1652,6.2095,6.271,6.4397,6.4493,6.3858,6.2403,6.2897,6.3006,6.2306,6.2153,6.2095,6.2095,6.1268,6.0806,6.0806,6.0806,6.0806,6.0806,6.0806,6.0806,6.0806,6.0806,6.0806,6.0806,6.0806,5.9935,5.8448,5.8352,5.7376,5.5862,5.5747,5.5708,5.5708,5.5708,5.5708,5.5708,5.5708,5.5708,5.5708,0.0,0.0,0.0,0.0,0.0,0.0,0.0,0.0,0.0,0.0,3.55,3.55,0.0,0.0,0.0,0.0,0.0,0.0,0.0,0.0,0.0,0.0,0.0,0.0,0.0,3.9029,3.893,3.8699,3.8828,0.0,0.0,0.0,0.0,0.0,0.0,0.0,0.0,0.0,0.0,0.0,0.0,0.0,0.0,0.0,0.0,0.0,4.6413,4.6678,4.7043,4.9437,5.0245,5.0688,5.3241,5.5093,5.6709,5.8531,5.9165,5.9473,6.0339,6.0691,6.0806,6.0806,6.0262,5.9473,5.8525,5.728,5.6228,5.5785,5.5285,5.5093,5.5612,5.617,5.6901,5.7915,5.8627,5.9781,6.1806,6.2095,6.271,6.4397,6.3948,6.341,6.3121,6.3218,6.3237,6.3102,6.248,6.2095,6.2095,6.1268,6.0806,6.0806,6.0806,6.0806,6.0806,6.0806,6.0806,6.0806,6.0806,6.0806,6.0806,6.0806,6.0242,5.9261,5.8583,5.7723,5.6709,5.5997,5.5708,5.5708,5.5708,5.5708,5.5708,5.5708,5.5708,5.5708,0.0,0.0,0.0,0.0,0.0,0.0,0.0,0.0,3.4984,3.5442,3.55,3.55,3.55,3.55,0.0,0.0,0.0,0.0,0.0,0.0,0.0,0.0,0.0,0.0,0.0,3.9264,3.9289,3.9175,0.0,3.9175,3.9175,3.9175,3.9175,3.9163,3.9301,3.9469,3.9639,0.0,0.0,4.1644,4.2678,4.3585,0.0,0.0,0.0,0.0,0.0,4.6908,4.7293,4.9841,5.0976,5.1856,5.4843,5.667,5.8011,5.9685,6.0185,6.0262,6.0691,6.0806,6.0806,6.0806,5.9838,5.855,5.7242,5.5972,5.4818,5.3914,5.4145,5.4626,5.4991,5.5766,5.6613,5.7473,5.7223,5.7953,6.0998,6.1037,6.1531,6.366,6.3948,6.3795,6.3333,6.3295,6.3121,6.2704,6.2326,6.2287,6.2704,6.1493,6.0806,6.0806,6.0806,6.0806,6.0806,6.0806,6.0806,6.0806,6.0806,6.0806,6.0806,6.0806,6.0108,5.8858,5.8467,5.755,5.6285,5.5862,5.5708,5.5708,5.5708,5.5708,5.5708,5.5708,5.5708,5.5708,0.0,0.0,0.0,0.0,0.0,0.0,0.0,3.4087,3.451,3.5385,3.55,3.55,3.55,3.55,3.55,0.0,0.0,0.0,0.0,0.0,0.0,0.0,0.0,0.0,0.0,0.0,0.0,3.9599,3.9599,0.0,0.0,0.0,0.0,0.0,3.9673,3.9845,4.0101,4.0158,4.0807,0.0,0.0,4.3585,0.0,0.0,0.0,0.0,0.0,4.7274,4.7793,5.0164,5.1375,5.2428,5.5497,5.719,5.8319,5.9819,6.0402,6.0556,6.0748,6.0806,6.0806,6.0806,5.9396,5.7607,5.6055,5.478,5.3549,5.2178,5.2986,5.4068,5.4434,5.5016,5.5785,5.6824,5.5882,5.6324,5.9992,5.9935,6.0377,6.2756,6.3474,6.3666,6.3333,6.2987,6.2647,6.2383,6.2191,6.2287,6.2737,6.1512,6.0806,6.0806,6.0806,6.0806,6.0806,6.0806,6.0806,6.0806,6.0806,6.0806,6.0806,6.0806,5.9896,5.8294,5.8294,5.7319,5.5708,5.5708,5.5708,5.5708,5.5708,5.5708,5.5708,5.5708,5.5708,5.5708,0.0,0.0,0.0,0.0,0.0,0.0,0.0,3.3683,3.451,3.5385,3.55,3.55,3.55,3.55,3.55,0.0,0.0,0.0,0.0,0.0,0.0,0.0,0.0,0.0,0.0,0.0,0.0,3.9599,3.9599,0.0,0.0,0.0,0.0,0.0,0.0,4.0076,4.0115,4.036,0.0,0.0,0.0,0.0,0.0,0.0,0.0,0.0,0.0,4.8509,4.9433,5.1197,5.1846,5.2236,5.4126,5.5824,5.7305,5.8242,5.905,5.9781,6.0569,6.0806,6.0806,6.0806,5.894,5.6863,5.592,5.3857,5.2096,5.1923,5.2019,5.262,5.4203,5.4549,5.5131,5.6728,5.6868,5.744,5.9358,5.955,6.0165,6.1979,6.1575,6.1723,6.316,6.1916,6.1627,6.3083,6.2518,6.1787,6.1075,6.0877,6.0806,6.0806,6.0806,6.0806,6.0806,6.0806,6.0806,6.0806,6.0806,6.0806,6.0806,6.0806,5.9896,5.8294,5.8294,5.7319,5.5708,5.5708,5.5708,5.5708,5.5708,5.5708,5.5708,5.5708,5.5708,5.5708,0.0,0.0,0.0,0.0,0.0,0.0,3.2699,3.3179,3.391,3.5327,3.55,3.55,3.55,3.55,3.55,0.0,0.0,0.0,0.0,0.0,0.0,0.0,0.0,0.0,0.0,0.0,4.0281,4.0148,4.0148,0.0,0.0,0.0,0.0,0.0,0.0,4.0343,4.0351,4.0457,0.0,0.0,0.0,0.0,0.0,0.0,0.0,0.0,0.0,0.0,4.9586,5.0779,5.1183,5.1298,5.1996,5.2991,5.4395,5.6805,5.8127,5.8954,5.9781,6.0396,6.0806,6.0806,5.8882,5.6766,5.5901,5.3741,5.1904,5.1904,5.1904,5.2274,5.3491,5.4145,5.4722,5.5381,5.5049,5.5472,5.769,5.753,5.803,6.0267,6.1152,6.2037,6.3198,6.2698,6.2377,6.2551,6.1787,6.1172,6.0825,6.0806,6.0806,6.0806,6.0806,6.0806,6.0806,6.0806,6.0806,6.0806,6.0806,6.0806,6.0806,6.0806,5.9896,5.8294,5.8294,5.7319,5.5708,5.5708,5.5708,5.5708,5.5708,5.5708,5.5708,5.5708,5.5708,5.5708,0.0,0.0,0.0,0.0,0.0,3.0962,3.2641,3.2891,3.3526,3.5269,3.55,3.55,3.55,3.55,3.55,3.55,0.0,0.0,0.0,0.0,0.0,0.0,0.0,0.0,0.0,0.0,4.015,4.015,4.0381,4.0496,0.0,0.0,4.0496,4.0496,0.0,0.0,0.0,0.0,0.0,0.0,0.0,0.0,0.0,0.0,0.0,0.0,0.0,0.0,0.0,0.0,0.0,5.0707,5.0707,5.1087,5.212,5.5016,5.6665,5.7761,5.8858,5.9762,6.0416,6.0416,5.869,5.6709,5.5593,5.3563,5.1904,5.1904,5.1904,5.2255,5.3376,5.4087,5.4587,0.0,5.4337,5.4741,5.7055,5.6632,5.7036,5.9588,6.0531,6.1499,6.282,6.2954,6.2608,6.1787,6.1152,6.0806,6.0806,6.0806,6.0806,6.0806,6.0806,6.0806,6.0806,6.0806,6.0806,6.0806,6.0806,6.0806,6.0806,6.0806,5.9896,5.8294,5.8294,5.7319,5.5708,5.5708,5.5708,5.5708,5.5708,5.5708,5.5708,5.5708,5.5708,5.5708,0.0,0.0,0.0,0.0,0.0,0.0,0.0,3.2891,3.3526,3.5269,3.55,3.55,3.55,3.55,3.55,3.55,0.0,0.0,0.0,0.0,0.0,0.0,0.0,0.0,0.0,0.0,3.93,3.93,4.0112,4.0496,4.0496,4.0496,4.0496,4.0496,0.0,0.0,0.0,0.0,0.0,0.0,0.0,0.0,0.0,0.0,0.0,0.0,0.0,0.0,0.0,0.0,0.0,0.0,0.0,5.0707,0.0,0.0,5.4414,5.6107,5.7838,5.8896,5.9511,5.9511,5.8248,5.6555,5.49,5.3159,5.1904,5.1904,5.1904,5.2428,5.4164,5.4491,5.4761,5.5555,5.5689,5.628,5.805,5.7536,5.7921,6.0479,5.9338,5.9338,6.1864,6.2114,6.1749,6.0883,6.0806,6.0806,6.0806,6.0806,6.0806,6.0806,6.0806,6.0806,6.0806,6.0806,6.0806,6.0806,6.0806,6.0806,6.0806,6.0806,5.9896,5.8294,5.8294,5.7319,5.5708,5.5708,5.5708,5.5708,5.5708,5.5708,5.5708,5.5708,5.5708,5.5708,0.0,0.0,0.0,0.0,0.0,0.0,0.0,3.2891,3.3526,3.5269,3.55,3.55,3.55,3.55,3.55,3.55,0.0,0.0,0.0,0.0,0.0,0.0,0.0,0.0,0.0,0.0,3.93,3.93,4.0112,4.0496,4.0496,4.0496,4.0496,4.0496,4.0496,4.0496,0.0,0.0,0.0,0.0,0.0,0.0,4.5594,0.0,0.0,0.0,0.0,0.0,0.0,0.0,0.0,0.0,0.0,0.0,0.0,5.1342,5.2683,5.4241,5.5395,5.628,5.6896,5.6896,5.6497,5.567,5.3991,5.3178,5.2794,5.2794,5.1875,5.1606,5.3299,5.3606,5.3683,5.3953,5.4953,5.6093,5.7247,5.717,5.7728,5.9685,6.0492,6.121,6.2018,6.2095,6.1729,6.0864,6.0806,6.0806,6.0806,6.0806,6.0806,6.0806,6.0806,6.0806,6.0806,6.0806,6.0806,6.0806,6.0806,6.0806,6.0806,6.0806,6.0185,5.9088,5.8544,5.7646,5.6536,5.5958,5.5708,5.5708,5.5708,5.5708,5.5708,5.5708,5.5708,5.5708,0.0,0.0,0.0,0.0,0.0,0.0,0.0,3.3179,3.3891,3.5308,3.55,3.55,3.55,3.55,3.55,3.55,0.0,0.0,0.0,0.0,0.0,0.0,0.0,0.0,0.0,3.793,3.8819,3.8819,3.9935,4.0496,4.0496,4.0496,4.0496,4.0496,4.0496,4.0496,0.0,0.0,0.0,0.0,0.0,0.0,4.5594,0.0,0.0,0.0,0.0,0.0,0.0,0.0,0.0,0.0,0.0,0.0,0.0,0.0,5.1438,5.251,5.3683,5.4626,5.5247,5.5247,5.5247,5.4799,5.3101,5.2717,5.2717,5.2717,5.1875,5.1568,5.2947,5.3472,5.3683,5.3683,5.4818,5.5997,5.6887,5.7003,5.7517,5.8877,6.0556,6.1479,6.1152,6.1422,6.1383,6.0845,6.0806,6.0806,6.0806,6.0806,6.0806,6.0806,6.0806,6.0806,6.0806,6.0806,6.0806,6.0806,6.0806,6.0806,6.0806,6.0806,6.0319,5.9454,5.864,5.7819,0.0,5.6055,5.5708,5.5708,5.5708,5.5708,5.5708,5.5708,5.5708,5.5708,0.0,0.0,0.0,0.0,0.0,0.0,0.0,0.0,0.0,3.5385,3.55,3.55,3.55,3.55,3.55,3.55,0.0,0.0,0.0,0.0,0.0,0.0,0.0,0.0,0.0,3.7081,3.793,3.8007,3.9627,4.0439,4.0496,4.0496,4.0496,4.0496,4.0496,4.0535,0.0,0.0,0.0,0.0,0.0,0.0,0.0,0.0,0.0,0.0,0.0,0.0,0.0,0.0,0.0,0.0,0.0,0.0,0.0,0.0,0.0,0.0,0.0,5.3606,5.4222,5.4222,5.426,5.3876,5.2197,5.1865,0.0,5.1904,5.1846,5.2101,5.3024,5.3857,5.4434,5.4491,5.5189,5.5997,5.6887,5.7099,5.7497,5.8371,5.9858,6.0473,5.9665,6.0319,6.0806,6.0806,6.0806,6.0806,6.0806,6.0806,6.0806,6.0806,6.0806,6.0806,6.0806,6.0806,6.0806,6.0806,6.0806,6.0806,6.0806,6.0806,6.0358,5.955,5.8684,5.7838,5.7016,5.6074,5.5708,5.5708,5.5708,5.5708,5.5708,5.5708,5.5708,5.5708,0.0,0.0,0.0,0.0,0.0,0.0,0.0,0.0,0.0,0.0,3.55,3.55,3.55,3.55,3.55,0.0,0.0,0.0,0.0,0.0,0.0,0.0,0.0,0.0,0.0,3.6484,3.7331,3.8007,3.9069,3.99,4.0496,4.0496,4.0496,4.0496,4.0496,4.0877,0.0,0.0,0.0,0.0,0.0,0.0,0.0,0.0,0.0,0.0,4.7567,4.8235,0.0,0.0,0.0,0.0,0.0,0.0,0.0,0.0,5.0707,5.0784,5.1188,0.0,5.1592,5.1592,5.2068,5.2236,0.0,5.1467,5.1904,5.1904,5.1414,5.1433,5.2933,5.3371,5.3722,5.4395,5.5189,5.5997,5.6887,5.8094,5.9242,6.0108,6.0556,6.0723,6.0512,6.0691,6.0806,6.0806,6.0806,6.0806,6.0806,6.0806,6.0806,6.0806,6.0806,6.0806,6.0806,6.0806,6.0806,6.0806,6.0806,6.0806,6.0806,6.0806,6.0691,6.0416,5.8934,5.8184,5.7877,5.6319,5.5708,5.5708,5.5708,5.5708,5.5708,5.5708,5.5708,5.5708,0.0,0.0,0.0,0.0,0.0,0.0,0.0,0.0,0.0,0.0,0.0,0.0,0.0,0.0,0.0,0.0,0.0,0.0,0.0,0.0,0.0,0.0,0.0,0.0,3.55,3.6288,3.6927,3.7407,3.8684,3.9511,3.9958,4.0323,4.0496,4.0516,4.0916,4.1585,0.0,0.0,0.0,0.0,4.5417,0.0,0.0,0.0,0.0,0.0,4.7509,4.8101,0.0,5.0111,5.0707,5.0707,0.0,0.0,0.0,0.0,5.0707,5.0707,5.0707,5.0707,5.0707,5.0707,5.1034,5.1241,5.0803,5.1034,5.1356,5.1356,5.0996,5.0976,5.1895,5.2351,5.289,5.376,5.4607,5.5728,5.7376,5.8377,5.9415,6.0646,6.0454,6.0358,6.0768,6.0806,6.0806,6.0806,6.0806,6.0806,6.0806,6.0806,6.0806,6.0806,6.0806,6.0806,6.0806,6.0806,6.0806,6.0806,6.0806,6.0806,6.0806,6.0806,6.0569,6.0127,5.8858,5.8069,5.7594,5.6247,5.5708,5.5708,5.5708,5.5708,5.5708,5.5708,5.5708,5.5708,0.0,0.0,0.0,0.0,0.0,0.0,0.0,0.0,0.0,0.0,0.0,0.0,0.0,0.0,0.0,0.0,0.0,0.0,0.0,0.0,0.0,0.0,0.0,3.55,3.55,3.6173,3.6638,3.6907,3.8373,3.9223,3.9492,4.0189,4.0573,4.0723,4.1466,4.235,0.0,0.0,0.0,0.0,4.5594,0.0,0.0,0.0,0.0,0.0,0.0,0.0,0.0,5.0072,5.0611,5.0515,5.0649,0.0,0.0,0.0,0.0,0.0,5.0707,5.0707,5.0707,5.0707,5.0707,5.0707,5.0707,5.0707,5.0707,5.0707,5.0707,5.0745,5.0861,5.1548,5.2428,5.3409,5.4414,5.5876,5.8165,5.8486,5.9069,6.0614,6.0146,5.9992,6.0729,6.0806,6.0806,6.0806,6.0806,6.0806,6.0806,6.0806,6.0806,6.0806,6.0806,6.0806,6.0806,6.0806,6.0806,6.0806,6.0806,6.0729,6.0589,6.0589,6.0127,5.9281,5.8454,5.7684,5.6926,5.6055,5.5708,5.5708,5.5708,5.5708,5.5708,5.5708,5.5708,5.5708,0.0,0.0,0.0,0.0,0.0,0.0,0.0,0.0,0.0,0.0,0.0,0.0,0.0,0.0,0.0,0.0,0.0,0.0,0.0,0.0,0.0,0.0,3.5865,3.55,3.55,3.5615,3.6388,3.7796,3.8065,3.8934,4.0323,4.0439,4.0896,4.16,4.1735,4.2658,4.4124,0.0,0.0,0.0,4.5594,0.0,0.0,0.0,0.0,0.0,0.0,0.0,0.0,4.988,5.0207,4.9726,5.0476,0.0,0.0,0.0,0.0,0.0,5.0707,5.0707,5.0707,5.0707,5.0707,5.0707,5.0707,5.0707,5.0707,5.0707,5.0707,5.0919,5.1582,5.2428,5.351,5.5049,5.6665,5.8083,5.9165,5.9319,5.9685,6.0691,6.0691,6.0646,6.0787,6.0806,6.0806,6.0806,6.0806,6.0806,6.0806,6.0806,6.0806,6.0806,6.0806,6.0806,6.0806,6.0806,6.0806,6.0806,6.0806,6.0416,5.9704,5.9704,5.9261,5.8434,5.7574,5.7113,5.6926,5.6055,5.5708,5.5708,5.5708,5.5708,5.5708,5.5708,5.5708,5.5708,0.0,0.0,0.0,0.0,0.0,0.0,0.0,0.0,0.0,0.0,0.0,0.0,0.0,0.0,0.0,0.0,0.0,0.0,0.0,0.0,0.0,3.6038,3.6115,3.5942,3.5519,3.5923,3.6523,3.7292,3.8238,3.9107,3.9861,4.0304,4.0973,4.1812,4.2293,4.3162,4.4335,4.4801,0.0,0.0,0.0,0.0,0.0,0.0,0.0,0.0,0.0,0.0,0.0,0.0,4.9726,4.9553,5.0438,0.0,0.0,0.0,0.0,0.0,5.0707,5.0707,5.0707,5.0707,5.0341,4.988,4.9394,4.9298,4.9548,5.0515,5.0707,5.1092,5.237,5.3313,5.4453,5.6132,5.7838,5.9088,5.9454,5.9492,5.9819,6.071,6.0377,6.0281,6.0748,6.0806,6.0806,6.0806,6.0806,6.0806,6.0806,6.0806,6.0806,6.0806,6.0806,6.0806,6.0806,6.0806,6.0556,6.0108,6.0569,6.0127,5.8877,5.93,5.88,5.7574,5.717,5.6728,5.6266,5.5862,5.5708,5.5708,5.5708,5.5708,5.5708,5.5708,5.5708,5.5708,0.0,0.0,0.0,0.0,0.0,0.0,0.0,0.0,0.0,0.0,0.0,0.0,0.0,0.0,0.0,0.0,0.0,0.0,0.0,0.0,3.5673,3.6077,3.6484,3.6404,3.5788,3.658,3.71,3.7311,3.8646,3.9396,3.9588,4.0208,4.107,4.2139,4.2797,4.3662,4.4648,4.5321,4.5594,0.0,0.0,0.0,0.0,0.0,0.0,0.0,0.0,0.0,0.0,0.0,0.0,0.0,0.0,0.0,0.0,5.063,5.0707,5.0707,5.0707,5.0707,5.0649,5.0457,5.0053,4.9586,4.9101,4.8986,4.9428,5.0976,5.1284,5.1688,5.2972,5.4222,5.5631,5.7305,5.8819,5.98,5.98,5.98,6.005,6.0723,6.0204,6.0069,6.0748,6.0806,6.0806,6.0806,6.0806,6.0806,6.0806,6.0806,6.0806,6.0806,6.0806,6.0806,6.0806,6.0806,6.0358,5.9511,6.0185,5.9627,5.8011,5.8627,5.8088,5.6689,5.6689,5.6324,5.5708,5.5708,5.5708,5.5708,5.5708,5.5708,5.5708,5.5708,5.5708,5.5708,0.0,0.0,0.0,0.0,0.0,0.0,0.0,0.0,0.0,0.0,0.0,0.0,0.0,0.0,0.0,0.0,0.0,0.0,0.0,0.0,3.6196,3.7757,3.71,3.6677,3.6619,3.7465,3.8296,3.9107,3.9242,3.9685,4.0419,4.0477,4.1397,4.3008,4.3066,4.3993,4.5518,4.5575,4.5594,4.5594,4.5594,0.0,0.0,0.0,0.0,0.0,0.0,0.0,0.0,0.0,0.0,0.0,0.0,0.0,4.9649,5.0457,5.0707,5.0707,5.0707,5.0707,5.0515,4.9707,5.0053,5.0784,5.1467,5.1635,5.189,5.2832,5.3024,5.3063,5.3178,5.5189,5.7363,5.905,6.0108,6.0704,6.0704,6.0704,6.0729,6.0787,6.0748,6.0729,6.0787,6.0806,6.0806,6.0806,6.0806,6.0806,6.0806,6.0806,6.0806,6.0806,6.0806,6.0806,6.0806,6.0806,6.0358,5.9492,5.9569,5.8723,5.7099,5.7151,5.667,5.5785,5.5785,5.5766,5.5708,5.5708,5.5708,5.5708,5.5708,5.5708,5.5708,5.5708,5.5708,5.5708,0.0,0.0,0.0,0.0,0.0,0.0,0.0,0.0,0.0,0.0,0.0,0.0,0.0,0.0,0.0,0.0,0.0,0.0,0.0,0.0,3.6,3.7138,3.7407,3.7757,3.8315,3.8646,3.8973,3.93,3.9804,4.0208,4.0496,4.0496,4.1435,4.3104,4.3104,4.4032,4.5594,4.5594,4.5594,4.5594,4.5594,4.5594,0.0,0.0,0.0,0.0,0.0,0.0,0.0,0.0,4.7755,4.7908,4.9413,5.0034,5.0265,5.0592,5.0707,5.0707,5.0707,5.0707,5.0611,5.0284,5.0457,5.063,5.0394,5.076,5.1548,5.2909,5.3626,5.4491,5.6082,5.7165,5.8357,6.0031,6.0569,6.0806,6.0806,6.0806,6.0806,6.0806,6.0806,6.0806,6.0806,6.0806,6.0806,6.0806,6.0806,6.0806,6.0806,6.0806,6.0806,6.0806,6.0806,6.0531,5.9992,5.9992,5.93,5.7959,5.8992,5.8338,5.6209,5.6747,5.6516,5.5708,5.5708,5.5708,5.5708,5.5708,5.5708,5.5708,5.5708,5.5708,5.5708,5.5708,5.5708,5.5708,0.0,0.0,0.0,0.0,0.0,0.0,0.0,0.0,0.0,0.0,0.0,0.0,0.0,0.0,0.0,0.0,0.0,0.0,3.55,3.5731,3.625,3.7061,3.795,3.8819,3.9665,3.9688,3.9688,3.9688,4.0227,4.0496,4.0496,4.0496,4.1435,4.3104,4.3104,4.4032,4.5594,4.5594,4.5594,4.5594,4.5594,4.5594,0.0,0.0,0.0,0.0,0.0,0.0,0.0,0.0,4.7081,4.7567,0.0,0.0,4.9995,5.0534,5.0515,5.0284,5.0284,5.0284,5.0226,4.9957,5.0476,5.0914,5.0337,5.1087,5.2381,5.4049,5.4876,5.5915,5.7934,5.8294,5.8761,6.0165,6.0614,6.0806,6.0806,6.0806,6.0806,6.0806,6.0806,6.0806,6.0806,6.0806,6.0806,6.0806,6.0806,6.0806,6.0806,6.0806,6.0806,6.0806,6.0531,6.0108,5.9511,5.9261,5.8415,5.7003,5.8171,5.7646,5.5728,5.6324,5.6266,5.5708,5.5708,5.5708,5.5708,5.5708,5.5708,5.5708,5.5708,5.5708,5.5708,5.5708,5.5708,5.5708,0.0,0.0,0.0,0.0,0.0,0.0,0.0,0.0,0.0,0.0,0.0,0.0,0.0,0.0,0.0,0.0,0.0,0.0,3.5519,3.625,3.7081,3.7969,3.8838,3.9688,4.0477,4.0496,4.0496,4.0496,4.0496,4.0496,4.0496,4.0496,4.1435,4.3104,4.3104,4.4032,4.5594,4.5594,4.5594,4.5594,4.5594,4.5594,4.5594,0.0,0.0,0.0,0.0,0.0,0.0,0.0,4.6336,4.6052,0.0,0.0,0.0,5.0188,5.0091,4.9413,4.9413,4.9413,4.9183,4.8336,5.0024,5.1885,5.1904,5.3255,5.4977,5.6651,5.7003,5.7286,5.8146,5.8313,5.8583,5.9377,6.0242,6.0806,6.0806,6.0806,6.0806,6.0806,6.0806,6.0806,6.0806,6.0806,6.0806,6.0806,6.0806,6.0806,6.0787,6.0787,6.0787,6.0787,5.9935,5.9473,5.9473,5.8684,5.7857,5.6983,5.6983,5.6536,5.5708,5.5708,5.5708,5.5708,5.5708,5.5708,5.5708,5.5708,5.5708,5.5708,5.5708,5.5708,5.5708,5.5708,5.5708,5.5708,0.0,0.0,0.0,0.0,0.0,0.0,0.0,0.0,0.0,0.0,0.0,0.0,0.0,0.0,0.0,0.0,0.0,0.0,3.6308,3.658,3.735,3.8857,3.9165,3.9688,4.0477,4.0496,4.0496,4.0496,4.0496,4.0496,4.0496,4.0496,4.1435,4.3104,4.3104,4.4032,4.5594,4.5594,4.5594,4.5594,4.5594,4.5594,4.5594,0.0,0.0,0.0,0.0,0.0,0.0,0.0,0.0,0.0,4.8798,0.0,4.924,5.0361,5.0515,5.0303,5.0303,4.988,4.949,4.9841,5.0495,5.1356,5.2544,5.3683,5.4977,5.6651,5.7497,5.8165,5.8992,5.9146,5.9415,6.0281,6.0633,6.0806,6.0806,6.0806,6.0806,6.0806,6.0806,6.0806,6.0806,6.0806,6.0806,6.0806,6.0806,6.0531,5.9915,5.9896,5.9627,5.9069,5.88,5.8357,5.7747,5.7497,5.6959,5.6093,5.6093,5.5958,5.5708,5.5708,5.5708,5.5708,5.5708,5.5708,5.5708,5.5708,5.5708,5.5708,5.5708,5.5708,5.5708,5.5708,5.5708,5.5708,0.0,0.0,0.0,0.0,0.0,0.0,0.0,0.0,0.0,0.0,0.0,0.0,0.0,0.0,0.0,0.0,0.0,0.0,0.0,3.7023,3.7834,3.9242,3.9608,3.9996,4.0496,4.0496,4.0496,4.0496,4.0496,4.0496,4.0516,4.0858,4.1758,4.3104,4.3431,4.434,4.5594,4.5594,4.5594,4.5633,4.5975,4.5917,4.5633,0.0,0.0,0.0,0.0,0.0,0.0,0.0,0.0,0.0,4.8971,4.9394,4.949,5.0034,5.0188,5.0034,4.938,4.9048,4.9009,4.9534,5.0433,5.1702,5.3722,5.5145,5.6492,5.8151,5.8646,5.8915,5.9415,5.9492,5.9665,6.0204,6.0569,6.0806,6.0806,6.0806,6.0806,6.0806,6.0806,6.0806,6.0806,6.0806,6.0806,6.0806,6.0473,6.005,5.9531,5.9204,5.88,5.8313,5.7953,5.7536,5.7003,5.6651,5.6228,5.5708,5.5708,5.5708,5.5708,5.5708,5.5708,5.5708,5.5708,5.5708,5.5708,5.5708,5.5708,5.5708,5.5708,5.5708,5.5708,5.5708,5.5708,5.5708,0.0,0.0,0.0,0.0,0.0,0.0,0.0,0.0,0.0,0.0,0.0,0.0,0.0,0.0,0.0,0.0,0.0,0.0,0.0,0.0,3.8507,3.9377,4.0112,4.0496,4.0496,4.0496,4.0496,4.0496,4.0496,4.0535,4.065,4.1431,4.2293,4.3239,4.397,4.4782,4.5594,4.5594,4.5594,4.5667,4.6471,4.6317,4.5686,4.649,0.0,0.0,0.0,0.0,0.0,0.0,0.0,0.0,4.9221,4.9413,4.9317,4.9471,4.9413,4.8971,4.7524,4.7601,4.8139,4.8298,5.0255,5.2774,5.5261,5.703,5.8646,6.0242,6.0069,5.9627,5.9627,5.9627,5.9627,5.9627,6.0281,6.0806,6.0806,6.0806,6.0806,6.0806,6.0806,6.0806,6.0806,6.0806,6.0768,6.0691,5.9954,5.9435,5.9281,5.8588,5.814,5.8069,5.7286,5.6882,5.6882,5.6093,5.5708,5.5708,5.5708,5.567,5.5593,5.567,5.5708,5.5708,5.5708,5.5708,5.5708,5.5708,5.5708,5.5708,5.5708,5.5708,5.5708,5.5708,5.5708,5.5708,0.0,0.0,0.0,0.0,0.0,0.0,0.0,0.0,0.0,0.0,0.0,0.0,0.0,0.0,0.0,0.0,0.0,0.0,0.0,0.0,3.9396,4.0208,4.0419,4.0496,4.0496,4.0496,4.0496,4.0496,4.0496,4.0858,4.1523,4.1716,4.26,4.4047,4.422,4.4782,4.5594,4.5594,4.5594,4.5614,4.5802,4.5763,4.5614,4.5802,4.6182,0.0,0.0,0.0,0.0,0.0,0.0,0.0,4.9938,4.9471,4.8644,5.0014,4.9452,4.8452,4.8779,4.849,4.8432,4.9803,5.2049,5.4434,5.6305,5.7016,5.7574,5.8627,5.9742,6.0512,6.0512,6.0512,6.0512,6.0512,6.0691,6.0806,6.0806,6.0806,6.0806,6.0806,6.0806,6.0806,6.0806,6.0806,6.0512,5.9838,5.9608,5.8934,5.7613,5.7363,5.6978,5.628,5.6074,5.5978,5.5978,5.5785,5.5708,5.5708,5.5708,5.5381,5.478,5.542,5.5708,5.5708,5.5708,5.5708,5.5708,5.5708,5.5708,5.5708,5.5708,5.5708,5.5708,5.5708,5.5708,5.5708,0.0,0.0,0.0,0.0,0.0,0.0,0.0,0.0,0.0,0.0,0.0,0.0,0.0,0.0,0.0,0.0,0.0,0.0,0.0,0.0,0.0,4.0458,4.0496,4.0496,4.0496,4.0496,4.0496,4.0496,4.0916,4.1354,4.1812,4.262,4.347,4.4316,4.4744,4.5167,4.5594,4.5594,4.5594,4.5633,4.6052,4.622,4.622,4.622,4.674,4.7466,4.7466,0.0,0.0,0.0,0.0,0.0,0.0,0.0,4.9433,4.9938,4.9726,4.9183,4.8413,4.8452,4.9125,5.0856,5.3183,5.542,5.6709,5.7003,5.7247,5.8127,5.8992,5.9723,6.0108,5.9858,5.9723,6.0108,5.9858,5.9742,6.0127,6.0185,6.0319,6.0748,6.0806,6.0806,6.0806,6.0806,6.0441,5.9569,5.9146,5.8357,5.708,5.6593,5.617,5.5708,5.5708,5.5708,5.5708,5.5708,5.5516,5.5131,5.5131,5.4684,5.3895,5.4318,5.4491,5.4491,5.4491,5.4741,5.5131,5.5131,5.5343,5.5708,5.5708,5.5708,5.5708,5.5708,5.5708,5.5708,0.0,0.0,0.0,0.0,0.0,0.0,0.0,0.0,0.0,0.0,0.0,0.0,0.0,0.0,0.0,0.0,0.0,0.0,0.0,0.0,0.0,4.0477,4.0496,4.0496,4.0496,4.0496,4.0573,4.0723,4.1604,4.21,4.2254,4.3643,4.4378,4.4571,4.5282,4.5594,4.5594,4.5594,4.5594,4.5686,4.6547,4.6812,4.6697,4.6831,4.7408,4.8101,4.8101,4.8759,4.9726,5.0457,0.0,0.0,0.0,0.0,5.0361,4.9784,4.9918,4.9822,4.7851,4.8452,4.999,5.1524,5.3722,5.5728,5.6574,5.6786,5.6978,5.7703,5.8083,5.8511,5.916,5.8742,5.8525,5.9184,5.8723,5.8525,5.9204,5.93,5.9569,6.0281,6.0358,6.0358,6.0358,6.0358,6.0012,5.9127,5.8454,5.7703,5.6824,5.5958,5.5497,5.5497,5.5343,5.5261,5.5261,5.5261,5.4934,5.426,5.4126,5.3664,5.2967,5.2837,5.2933,5.3197,5.3197,5.3606,5.428,5.428,5.4761,5.5497,5.5497,5.5574,5.5708,5.5708,5.5708,5.5708,0.0,0.0,0.0,0.0,0.0,0.0,0.0,0.0,0.0,0.0,0.0,0.0,0.0,0.0,0.0,0.0,0.0,0.0,0.0,0.0,0.0,4.0496,4.0496,4.0496,4.0496,4.0496,4.0877,4.1639,4.2508,4.3278,4.397,4.4201,4.4705,4.5436,4.5556,4.5594,4.5594,4.5594,4.5594,4.5686,4.6547,4.6451,4.5859,4.6601,4.7408,4.8101,4.8101,4.9144,5.0534,5.0649,5.0707,0.0,0.0,0.0,4.9707,5.0341,4.9534,4.8548,4.8952,4.9784,5.0745,5.1678,5.3294,5.4876,5.5689,5.5862,5.592,5.6016,5.7242,5.8333,5.8434,5.8371,5.8333,5.8434,5.8371,5.8333,5.8454,5.8467,5.8511,5.8627,5.8627,5.8627,5.8627,5.8627,5.8261,5.7401,5.7228,5.6786,5.592,5.5112,5.4664,5.4664,5.3933,5.353,5.353,5.353,5.3491,5.3351,5.2601,5.2197,5.2043,5.1356,5.1837,5.3197,5.3197,5.3274,5.3371,5.3371,5.3876,5.4664,5.4664,5.5093,5.5708,5.5708,5.5708,5.5708,0.0,0.0,0.0,0.0,0.0,0.0,0.0,0.0,0.0,0.0,0.0,0.0,0.0,0.0,0.0,0.0,0.0,0.0,0.0,0.0,0.0,4.0496,4.0496,4.0496,4.0496,4.0496,4.0935,4.1793,4.2662,4.3508,4.4316,4.4801,4.5225,4.5594,4.5594,4.5594,4.5594,4.5594,4.5594,4.5629,4.6013,4.5936,4.5629,4.6033,4.6971,4.8101,4.8101,4.9221,5.063,5.0149,5.0303,5.0534,4.9553,0.0,0.0,0.0,4.9764,4.9649,5.0014,5.0053,5.0279,5.1582,5.2486,5.3255,5.4107,5.4684,5.503,5.503,5.5992,5.6992,5.7473,5.7165,5.6992,5.7497,5.7165,5.7011,5.7497,5.7574,5.7742,5.8236,5.8294,5.8294,5.8294,5.8294,5.7934,5.7074,5.7003,5.642,5.5093,5.4684,5.428,5.3799,5.339,5.3197,5.3197,5.3197,5.2947,5.2467,5.1625,5.1221,5.1221,5.0861,5.1092,5.1798,5.1798,5.2068,5.2467,5.2467,5.2986,5.3818,5.4318,5.4722,5.5068,5.5535,5.5708,5.5708,0.0,0.0,0.0,0.0,0.0,0.0,0.0,0.0,0.0,0.0,0.0,0.0,0.0,0.0,0.0,0.0,0.0,0.0,0.0,0.0,0.0,4.0496,4.0496,4.0496,4.0496,4.0723,4.1258,4.2139,4.2989,4.3835,4.4648,4.5302,4.5594,4.5594,4.5594,4.5594,4.5594,4.5594,4.5594,4.5594,4.5594,4.5475,4.5263,4.5263,4.6052,4.7201,4.7639,4.8759,4.9976,4.9529,4.9976,5.0438,4.8913,4.9471,0.0,0.0,0.0,5.0361,5.0361,5.0053,5.0029,5.1274,5.1755,5.214,5.3005,5.3703,5.4164,5.4164,5.4818,5.5593,5.6247,5.5997,5.592,5.6555,5.6112,5.5939,5.6574,5.667,5.6901,5.7569,5.7646,5.7646,5.7646,5.7646,5.7376,5.6709,5.6478,5.5824,5.4568,5.4087,5.3549,5.289,5.2664,5.2568,5.2568,5.2568,5.2241,5.1582,5.0996,5.0707,5.0707,5.0707,5.0707,5.0707,5.0707,5.1034,5.1601,5.1601,5.2101,5.2928,5.3587,5.3972,5.426,5.5088,5.5241,5.5126,0.0,0.0,0.0,0.0,0.0,0.0,0.0,0.0,0.0,0.0,0.0,0.0,0.0,0.0,3.7023,3.7853,3.8761,3.9646,4.0458,4.0496,4.0496,4.0496,4.0496,0.0,4.0496,4.1316,4.2158,4.3028,4.3835,4.4686,4.5532,4.5575,4.5594,4.5594,4.5594,4.5594,4.5594,4.5594,4.5594,4.5594,4.5594,4.5109,4.4378,4.4378,4.4412,4.4701,4.637,4.7505,4.8355,4.9144,4.9976,5.0534,4.963,4.9957,5.0534,0.0,0.0,0.0,4.9471,5.0034,5.0649,5.0745,5.1337,5.214,5.3005,5.3236,5.3274,5.3274,5.3953,5.4587,5.4626,5.5228,5.5708,5.5766,5.5728,5.5728,5.5766,5.5766,5.5785,5.5824,5.5843,5.5843,5.5843,5.5843,5.5824,5.5766,5.5054,5.4587,5.4491,5.2928,5.2,5.1962,5.1221,5.0822,5.0822,5.0822,5.0803,5.0765,5.0726,5.0707,5.0707,5.0707,5.0707,5.0707,5.0707,5.0726,5.0765,5.0765,5.1241,5.1962,5.2019,5.2544,5.3371,5.4241,5.4049,5.3568,0.0,0.0,0.0,0.0,0.0,0.0,0.0,0.0,0.0,0.0,0.0,0.0,0.0,3.7853,3.8492,3.8819,3.9588,4.0189,4.0477,4.0496,4.0496,4.0496,4.0496,4.0496,4.0496,4.1354,4.2235,4.3104,4.3912,4.4744,4.5594,4.5594,4.5594,4.5594,4.5594,4.5594,4.5594,4.5594,4.5594,4.5556,4.4994,4.4263,4.3585,4.4105,4.4297,4.4528,4.6274,4.7774,4.8894,4.8644,4.951,5.0457,4.9029,4.9163,4.9803,4.949,4.9803,5.0226,5.0226,5.0053,4.9995,5.0553,5.0087,4.9697,5.0567,5.1183,5.1611,5.1611,5.2702,5.3664,5.3664,5.478,5.5535,5.5011,5.5362,5.5516,5.4991,5.5381,5.5708,5.5708,5.5708,5.5708,5.5708,5.5228,5.4934,5.4934,5.4145,5.3414,5.2851,5.2236,5.1659,5.1144,5.0842,5.0707,5.0707,5.0707,5.0707,5.0707,5.0707,5.0707,5.0707,5.0707,5.0707,5.0707,5.0707,5.0707,5.0707,5.0707,5.0861,5.1183,5.1697,5.2096,5.2467,5.3332,5.3818,5.4049,0.0,0.0,0.0,0.0,0.0,0.0,0.0,0.0,0.0,0.0,0.0,0.0,0.0,0.0,3.9415,3.9688,4.0189,4.0496,4.0496,4.0496,4.0496,4.0496,4.0496,4.0646,4.0935,4.1797,4.2639,4.3508,4.434,4.5032,4.5594,4.5594,4.5594,4.5594,4.5594,4.5594,4.5614,4.5917,4.6033,4.5956,4.509,4.4586,4.4374,4.4316,4.4474,4.4936,4.637,4.762,4.8471,4.7889,4.8644,4.9591,4.8144,4.8082,4.8663,4.9221,4.961,4.9957,5.0534,5.0284,4.9976,5.0553,4.9822,4.9048,4.9336,4.9861,5.0188,4.9899,5.1183,5.2356,5.2356,5.3722,5.4684,5.4145,5.4511,5.4664,5.4145,5.4511,5.4857,5.4857,5.4857,5.4857,5.4857,5.4376,5.4068,5.4068,5.301,5.2241,5.1923,5.137,5.0952,5.0707,5.0418,5.0265,5.0265,4.9976,4.9822,4.9822,4.9822,4.9976,5.0265,5.0265,5.0418,5.0707,5.0707,5.0707,5.0707,5.0707,5.0707,5.0745,5.1298,5.1505,5.1601,5.2447,5.2953,5.3227,0.0,0.0,0.0,0.0,0.0,0.0,0.0,0.0,0.0,0.0,0.0,0.0,0.0,0.0,0.0,4.0439,4.0496,4.0496,4.0496,4.0496,4.0496,4.0496,4.0516,4.0935,4.1773,4.2681,4.3528,4.4297,4.5167,4.5594,4.5594,4.5594,4.5594,4.5594,4.5594,4.5594,4.5667,4.6509,4.6889,4.6812,4.5917,4.6086,4.6678,4.4951,4.4821,4.5686,4.6547,4.6889,4.6928,4.6908,4.7466,4.8024,4.7197,4.6947,4.7255,4.8875,4.8779,4.8509,0.0,0.0,0.0,5.0707,5.0668,5.0438,4.9591,4.9375,4.9125,4.8274,4.9452,5.0611,5.0611,5.1952,5.3044,5.3044,5.3121,5.3197,5.3159,5.3178,5.3197,5.3197,5.3197,5.3197,5.3197,5.3178,5.3159,5.3159,5.1611,5.0991,5.1769,5.026,4.9745,5.0592,4.9803,4.9356,4.9356,4.8529,4.8101,4.8101,4.8101,4.8567,4.9394,4.9394,4.988,5.0707,5.0707,5.0707,5.0707,5.0707,5.0707,5.0707,5.0707,5.0707,5.0784,5.1582,5.1395,5.0957,0.0,0.0,0.0,0.0,0.0,0.0,0.0,0.0,0.0,0.0,0.0,0.0,3.9742,4.0015,4.0265,4.0477,4.0496,4.0496,4.0496,4.0496,4.0496,4.0496,4.1104,4.1542,4.1793,4.322,4.4085,4.4297,4.5167,4.5594,4.5594,4.5594,4.5594,4.5594,4.5594,4.5594,4.5614,4.5859,4.6317,4.6774,4.5259,4.5186,4.584,4.4724,4.4455,4.4763,4.5648,4.674,4.7678,4.7101,4.8279,4.9726,4.824,4.7774,4.7851,4.8312,4.874,4.9279,5.0399,0.0,0.0,0.0,0.0,0.0,4.9452,4.8913,4.8394,4.8139,4.849,4.8817,4.8817,4.9202,4.9505,4.9505,5.1582,5.2986,5.2351,5.2794,5.3197,5.3197,5.3197,5.3197,5.3197,5.264,5.2255,5.2255,5.0702,4.9856,5.0087,4.9048,4.8567,4.8817,4.8586,4.8471,4.8471,4.8216,4.8101,4.8101,4.8101,4.8567,4.9394,4.9394,4.988,5.0707,5.0707,5.0707,5.0707,5.0707,5.0707,5.0707,5.0707,5.0707,5.0726,5.0957,5.126,5.1543,0.0,0.0,0.0,0.0,0.0,0.0,0.0,0.0,0.0,0.0,0.0,0.0,4.0458,4.0496,4.0496,4.0496,4.0496,4.0496,4.0496,4.0496,4.0666,4.1031,4.1523,4.2139,4.2835,4.3797,4.4474,4.484,4.534,4.5594,4.5594,0.0,0.0,4.5594,4.5594,4.5594,4.5594,4.5594,4.6302,4.7312,4.6297,4.6413,4.7052,4.5836,4.5586,4.5913,4.6086,4.6778,4.7466,4.6644,4.7586,4.8933,4.7908,4.7832,4.8101,4.8101,4.8721,4.951,5.0014,5.0418,5.0707,5.0707,0.0,0.0,4.9029,4.8471,4.7889,4.7201,4.7355,4.7601,4.7601,4.787,4.8101,4.8101,4.9774,5.089,5.0389,5.0755,5.1063,5.1063,5.1395,5.1606,5.1606,5.1491,5.1255,5.087,4.9625,4.8702,4.8375,4.8197,4.8101,4.8101,4.7774,4.7601,4.7601,4.724,4.7067,4.7067,4.7067,4.7509,4.8375,4.8702,4.9336,5.0188,5.0534,5.0707,5.0707,5.0707,5.0707,5.0707,5.0707,5.0707,5.0707,5.0707,5.0996,5.1337,0.0,0.0,0.0,0.0,0.0,0.0,0.0,0.0,0.0,0.0,4.0054,4.0573,4.0766,4.0612,4.0535,4.065,4.0646,4.0646,4.0646,4.0727,4.1127,4.1908,4.2023,4.2773,4.4259,4.4393,4.4821,4.5594,0.0,0.0,0.0,0.0,0.0,0.0,0.0,4.5594,4.5614,4.5802,4.6687,4.7966,4.7966,4.849,4.9086,4.7505,4.7274,4.774,4.7005,4.6812,4.6793,4.6109,4.6259,4.6793,4.6966,4.7389,4.7875,4.8159,4.8721,4.9298,4.949,5.0111,5.0707,5.0707,5.0707,0.0,4.874,4.8312,4.7817,4.6321,4.6567,4.7024,4.7024,4.762,4.8101,4.8101,4.8024,4.8005,4.8082,4.8101,4.8101,4.8101,4.8875,4.9356,4.926,5.0034,5.0188,4.9317,4.8471,4.7601,4.6793,4.7428,4.7817,4.7817,4.712,4.6755,4.6755,4.5994,4.5594,4.5594,4.5594,4.6071,4.6928,4.7735,4.8586,4.9433,5.0226,5.0611,5.0688,5.0592,5.0611,5.0707,5.0707,5.0707,5.0707,5.0707,5.0707,5.0707,0.0,0.0,0.0,0.0,0.0,0.0,0.0,0.0,4.0265,4.0265,4.04,4.1031,4.2431,4.1339,4.0781,4.1489,4.1542,4.1542,4.1542,4.22,4.2662,4.2835,4.347,4.397,4.4297,4.4994,4.5436,4.5594,0.0,0.0,0.0,0.0,0.0,0.0,0.0,4.5594,4.5686,4.7048,4.7428,4.7139,4.7139,4.762,4.8255,4.7274,4.6567,4.6071,4.5917,4.6297,4.6966,4.7451,4.6836,4.609,4.7432,4.7048,4.6494,4.8548,4.8779,4.8663,5.0072,5.0572,5.0707,5.0707,5.0707,0.0,5.0265,4.9649,4.9048,4.8726,4.824,4.787,4.787,4.7985,4.8101,4.8101,4.7562,4.7351,4.8005,4.8101,4.8101,4.8101,4.8875,4.9125,4.8413,4.9144,4.9298,4.8413,4.7601,4.6759,4.5898,4.5994,4.609,4.609,4.5936,4.5859,4.5859,4.5686,4.5594,4.5594,4.5594,4.6071,4.6928,4.7735,4.8586,4.9413,4.9591,5.0053,5.0649,4.9938,5.0072,5.0707,5.0707,5.0707,5.0707,5.0707,5.0707,5.0707,0.0,4.0227,0.0,0.0,0.0,0.0,0.0,0.0,4.0804,4.1685,4.1801,4.195,4.2389,4.1662,4.1508,4.2369,4.2043,0.0,4.2427,4.2854,4.3278,4.3682,4.4085,4.4494,4.4936,4.5379,4.5594,4.5594,0.0,0.0,0.0,0.0,0.0,0.0,4.5417,4.5359,4.5032,4.6321,4.7105,4.7505,4.7505,4.7505,4.7408,4.6567,4.5975,4.5594,4.5594,4.5879,4.6317,4.6721,4.6855,4.6913,4.7351,4.7509,4.7668,4.849,4.8759,4.8933,4.9803,5.0361,5.0707,5.0707,5.0707,0.0,0.0,4.9707,4.9279,4.8836,4.8394,4.8101,4.8101,4.8101,4.8101,4.8101,4.7428,4.7178,4.7985,4.7375,4.6855,4.6855,4.7625,4.7985,4.7543,4.8259,4.8394,4.7562,4.674,4.6071,4.5614,4.5594,4.5594,4.5594,4.5594,4.5594,4.5594,4.5594,4.5594,4.5594,4.5594,4.5821,4.6278,4.712,4.7735,4.8182,4.8586,4.899,4.9394,4.9394,4.9394,4.949,5.0361,5.0707,5.0707,5.0707,5.0707,5.0707,4.0589,4.0743,4.08,0.0,0.0,0.0,0.0,0.0,4.155,4.3124,4.3201,4.2951,4.2562,4.2081,4.2216,4.3239,4.2389,4.2235,4.3258,4.3335,4.3624,4.4259,4.4455,4.4801,4.534,4.5513,4.5594,4.5594,0.0,0.0,0.0,0.0,4.5225,4.4571,4.5109,4.5148,4.4836,4.5379,4.6475,4.787,4.787,4.7678,4.7293,4.6417,4.5994,4.5821,4.5667,4.5594,4.5633,4.5782,4.6644,4.7586,4.7428,4.7971,4.8663,4.8606,4.8856,4.9221,4.9553,5.0168,5.0707,5.0707,5.0707,5.0515,0.0,0.0,0.0,4.8759,4.8606,4.8606,4.8606,4.8606,4.8606,4.8606,4.7908,4.7601,4.8259,4.7048,4.6148,4.6302,4.6663,4.6966,4.712,4.7582,4.7524,4.6716,4.6144,4.5782,4.5614,4.5594,4.5594,4.5594,4.5594,4.5594,4.5594,4.5594,4.5594,4.5594,4.5594,4.5594,4.5633,4.6509,4.6908,4.6947,4.7582,4.7966,4.8139,4.8682,4.8606,4.8274,5.0014,5.0592,5.0476,5.063,5.0707,5.0707,4.1485,4.1658,4.1908,4.2662,0.0,0.0,0.0,0.0,4.3124,4.4047,4.3547,4.3624,4.5013,4.3143,4.2446,4.4028,4.2716,4.2466,4.4066,4.4162,4.4201,4.4297,4.5032,4.5148,4.4455,4.5205,4.5594,4.5594,0.0,0.0,0.0,0.0,0.0,4.5417,4.4744,4.5259,4.6562,4.5898,4.6167,4.7043,4.7043,4.787,4.9029,4.8144,4.737,4.6639,4.5879,4.5594,4.5725,4.649,4.6374,4.6263,4.8432,4.7706,4.661,4.9534,4.9375,4.8586,5.013,5.0611,5.0707,5.0707,5.0707,5.0668,5.0572,0.0,5.0515,5.0438,0.0,5.0399,5.0399,0.0,0.0,5.0399,4.9687,4.9144,4.924,4.8413,4.8105,4.8875,4.774,4.7178,4.7889,4.7408,4.6682,4.5802,4.6374,4.6413,4.5629,4.5594,4.5594,4.5594,4.5594,4.5594,4.5594,4.5594,4.5594,4.5594,4.5594,4.5594,4.5633,4.6509,4.6908,4.6908,4.7005,4.7447,4.8043,4.7447,4.7543,4.8274,5.0014,5.0226,4.9649,5.0418,5.0707,5.0707,4.1831,4.1793,4.1927,4.2273,0.0,0.0,0.0,0.0,4.4321,4.3682,4.4167,4.4628,4.4821,4.3893,4.3739,4.4955,4.3528,4.3278,4.4936,4.459,4.4532,4.5032,4.5398,4.5436,4.5051,4.5417,4.5594,4.5594,4.5594,0.0,0.0,0.0,0.0,4.5556,4.4686,4.4989,4.6086,4.5225,4.5913,4.7562,4.7081,4.7889,4.9202,4.736,4.6436,4.6109,4.5725,4.5594,4.5667,4.6013,4.624,4.6451,4.7014,4.6821,4.6721,4.8625,4.8663,4.849,5.0226,5.0322,5.0072,5.0572,5.0322,5.0072,5.0572,5.0707,5.0707,5.0707,0.0,0.0,0.0,0.0,0.0,0.0,4.9976,4.9591,5.0072,4.8971,4.8235,4.8606,4.8024,4.7543,4.7428,4.6644,4.5994,4.5633,4.5936,4.5994,4.5614,4.5594,4.5594,4.5594,4.5594,4.5594,4.5594,4.5594,4.5594,4.5594,4.5594,4.5594,4.5614,4.5975,4.6144,4.6144,4.6144,4.6336,4.6663,4.6831,4.6797,4.6821,4.8529,4.8971,4.8759,4.963,4.9957,5.0014,4.2574,4.2317,4.2245,4.2459,4.3034,4.3554,4.3748,4.4821,4.5167,4.3936,4.484,4.5359,4.4724,4.4667,4.4917,4.5532,4.4263,4.3955,4.5167,4.4878,4.4628,4.4551,4.5667,4.5859,4.4936,4.5609,4.584,4.5594,0.0,0.0,0.0,0.0,0.0,0.0,4.4936,4.5148,4.5898,4.5032,4.5855,4.7697,4.687,4.7278,4.8187,4.6571,4.5802,4.5594,4.5594,4.5594,4.5633,4.5879,4.622,4.6509,4.634,4.6394,4.6759,4.7793,4.7947,4.8139,4.988,4.988,4.961,5.0476,5.0226,4.9918,5.0553,5.0707,5.0707,5.0707,5.0707,0.0,0.0,0.0,5.0707,5.0707,0.0,4.9976,5.0611,4.961,4.8894,4.912,4.8952,4.8394,4.7331,4.6663,4.6186,4.5975,4.5956,4.584,4.5614,4.5594,4.5594,4.5594,4.5594,4.5594,4.5594,4.5594,4.5594,4.5594,4.5594,4.5594,4.5594,4.5594,4.5594,4.5594,4.5594,4.5594,4.5648,4.6278,4.6163,4.5725,4.6932,4.7413,4.7586,4.8913,4.9394,4.951,4.4093,4.3642,4.3378,4.4104,4.4341,4.4708,4.5413,4.5575,4.5575,4.5537,4.5575,4.5594,4.5556,4.5556,4.5575,4.5594,4.4782,4.4278,4.4335,4.5109,4.4474,4.2023,4.5831,4.6509,4.3258,4.5601,4.6451,4.5594,4.5594,0.0,0.0,0.0,0.0,0.0,4.5575,4.6033,4.6793,4.5936,4.6086,4.6851,4.5994,4.5667,4.5802,4.6567,4.6336,4.5594,4.5594,4.5594,4.5725,4.6562,4.6317,4.5917,4.7528,4.6932,4.5975,4.7625,4.7543,4.7293,4.899,4.9413,4.961,5.0476,5.0668,5.0668,5.0688,5.0707,5.0707,5.0707,5.0707,5.0707,5.0707,5.0707,5.0707,0.0,5.0668,0.0,0.0,5.0649,5.0919,5.1697,5.1087,4.9938,4.8235,4.8043,4.7697,4.6928,4.6851,4.649,4.5652,4.5594,4.5594,4.5594,4.5594,4.5594,4.5594,4.5594,4.5594,4.5594,4.5594,4.5594,4.5594,4.5594,4.5594,4.5594,4.5594,4.5594,4.5594,4.5633,4.5633,4.5614,4.5671,4.5691,4.5975,4.8476,4.9394,4.951,4.4352,4.4167,4.4137,4.4383,4.4874,4.5305,4.5565,4.5594,4.5994,4.7105,4.7259,4.7682,4.8841,4.8456,4.811,4.811,4.6302,4.5417,4.5985,4.5763,4.5225,4.4359,4.6759,4.7312,4.5658,4.6466,4.6755,4.6471,4.5879,4.5594,0.0,0.0,0.0,0.0,4.524,4.5547,4.6812,4.5355,4.5586,4.687,4.6586,4.6471,4.6432,4.6144,4.5859,4.5594,4.5594,4.5594,4.5652,4.5936,4.584,4.5706,4.6263,4.6052,4.5821,4.6971,4.712,4.7139,4.824,4.8144,4.8086,4.9495,4.9009,4.8471,4.9591,4.9841,4.9841,4.9841,5.0303,5.0707,5.0707,5.0226,4.9841,0.0,0.0,4.9841,0.0,5.0341,5.0803,5.1068,5.0361,4.961,4.9029,4.7966,4.7197,4.6928,4.6374,4.5917,4.5614,4.5594,4.5594,4.5594,4.5594,4.5594,4.5594,4.5594,4.5594,4.5594,4.5594,4.5594,4.5594,4.5594,4.5594,4.5594,4.5594,4.5594,4.5594,4.5594,4.5594,4.5594,4.5594,4.5594,4.5763,4.7221,4.8086,4.8759,4.4889,4.487,4.486,4.4496,4.507,4.5594,4.5594,4.5859,4.6547,4.7908,4.8375,4.9106,5.0534,5.0207,4.9745,4.9433,4.7898,4.6937,4.6908,4.6644,4.6071,4.5186,4.7048,4.7428,4.6004,4.6851,4.7197,4.6908,4.6624,4.634,0.0,0.0,0.0,0.0,4.5586,4.5682,4.6374,4.5566,4.5682,4.6432,4.6432,4.6432,4.6374,4.5802,4.5782,4.6013,4.5706,4.5594,4.5594,4.5594,4.5594,4.5594,4.5594,4.5594,4.5706,4.6278,4.6432,4.6624,4.7447,4.7293,4.7235,4.8606,4.8125,4.7601,4.8682,4.9183,4.9317,4.899,4.988,5.0515,4.9899,4.9572,4.9298,0.0,0.0,4.9048,0.0,5.0149,5.0707,5.0707,5.0207,4.9745,4.9433,4.8413,4.7543,4.6947,4.6374,4.5936,4.5614,4.5594,4.5594,4.5594,4.5594,4.5594,4.5594,4.5594,4.5594,4.5594,4.5594,4.5594,4.5594,4.5594,4.5594,4.5594,4.5594,4.5594,4.5594,4.5594,4.5594,4.5594,4.5594,4.5594,4.5706,4.6586,4.7601,4.8779,4.564,4.57,4.548,4.4531,4.5041,4.5607,4.5594,4.6374,4.7255,4.812,4.9029,4.9938,5.0842,5.0861,5.0495,4.9663,4.9471,4.8721,4.7139,4.7735,4.7048,4.4547,4.6836,4.699,4.447,4.6836,4.7735,4.6966,4.7697,4.7658,0.0,0.0,0.0,0.0,4.6509,4.6394,4.559,4.6509,4.6394,4.5594,4.5594,4.5633,4.5667,4.5614,4.6144,4.6793,4.5917,4.5594,4.5594,4.5594,4.5594,4.5594,4.5594,4.5594,4.5594,4.5594,4.5594,4.5782,4.6601,4.6831,4.7024,4.7832,4.8005,4.7985,4.8024,4.8682,4.9048,4.8216,4.9394,5.0072,4.8413,4.874,4.9009,0.0,0.0,4.8355,4.926,5.0111,5.0649,5.0688,5.0649,5.0322,4.9529,4.9394,4.8682,4.7081,4.6928,4.6528,4.5648,4.5633,4.5629,4.5594,4.5594,4.5594,4.5594,4.5594,4.5594,4.5594,4.5594,4.5594,4.5594,4.5594,4.5594,4.5594,4.5594,4.5594,4.5594,4.5594,4.5594,4.5594,4.5594,4.5594,4.5706,4.6624,4.7971,4.9471,4.5631,4.5622,4.5566,4.5315,4.5534,4.5719,4.562,4.6855,4.8336,4.9841,5.1318,5.2779,5.4266,5.3299,5.2472,5.2241,5.0491,4.9221,4.8798,4.8952,4.8221,4.6312,4.8048,4.8182,4.6274,4.7466,4.8005,4.7793,4.7408,4.7101,4.6889,0.0,0.0,0.0,4.6509,4.6067,4.4724,4.6254,4.6394,4.5594,4.5594,4.5994,4.6509,4.584,4.6144,4.6793,4.5917,4.5594,4.5594,4.5594,4.5594,4.5594,4.5594,4.5594,4.5594,4.5594,4.5594,4.5648,4.5879,4.5936,4.6148,4.6985,4.6721,4.6417,4.7062,4.737,4.7485,4.7255,4.8043,4.8625,4.8178,4.7793,4.7466,4.7235,4.7216,4.7716,4.9183,4.9591,4.9976,5.0611,5.013,4.9899,5.0322,4.9183,4.8259,4.7812,4.7235,4.6528,4.5648,4.6201,4.6278,4.5614,4.5594,4.5594,4.5594,4.5594,4.5594,4.5594,4.5594,4.5594,4.5594,4.5594,4.5594,4.5594,4.5594,4.5594,4.5594,4.5594,4.5594,4.5594,4.5594,4.5594,4.5782,4.7259,4.8062,4.8644,4.5637,4.5917,4.6163,4.6163,4.6848,4.7213,4.6762,4.7817,4.9279,5.0991,5.2375,5.3703,5.503,5.4337,5.378,5.378,5.176,5.0486,5.0486,4.9817,4.8971,4.8029,4.8182,4.7875,4.6928,4.7331,4.7755,4.8101,4.7658,4.7428,4.7408,0.0,0.0,0.0,4.6509,4.6351,4.5509,4.6485,4.662,4.6144,4.5744,4.5898,0.0,4.5782,4.5898,4.6278,4.5782,4.5594,4.5594,4.5594,4.5594,4.5594,4.5594,4.5594,4.5594,4.5594,4.5594,4.5594,4.5594,4.5594,4.5725,4.6201,4.5956,4.5725,4.622,4.662,4.6793,4.6413,4.7278,4.7875,4.7144,4.6947,4.6774,4.6394,4.6639,4.7351,4.8644,4.9163,4.9726,5.0592,5.0265,5.0168,5.0649,4.9125,4.8101,4.8101,4.7678,4.7216,4.6721,4.6812,4.6678,4.6182,4.6163,4.5994,4.5594,4.5975,4.5975,4.5594,4.5594,4.5594,4.5594,4.5594,4.5594,4.5594,4.5594,4.5594,4.5594,4.5594,4.5594,4.5594,4.5594,4.5594,4.5763,4.7086,4.7582,4.7812,4.5772,4.6374,4.6928,4.7043,4.8452,4.9356,4.8697,4.9336,5.0414,5.189,5.2928,5.3818,5.4568,5.4453,5.4337,5.4337,5.2736,5.1736,5.1736,5.0375,4.9471,4.924,4.7832,4.6947,4.6735,4.6735,4.7178,4.8101,4.7875,4.787,0.0,0.0,0.0,4.5802,4.6797,4.7158,4.7043,4.6812,4.6735,4.6658,4.5898,4.5594,4.5594,4.5594,4.5594,4.5594,4.5594,4.5594,4.5594,4.5594,4.5594,4.5594,4.5594,4.5594,4.5594,4.5594,4.5594,4.5594,4.5594,4.5594,4.5594,4.5594,4.5594,4.5594,4.5594,4.6182,4.6509,4.5763,4.6759,4.7336,4.5859,4.622,4.649,4.5725,4.624,4.7005,4.7832,4.8586,4.9433,5.0418,5.0438,0.0,5.0668,4.9221,4.8274,4.8274,4.8274,4.8178,4.7947,4.7389,4.6966,4.6735,4.6735,4.6413,4.5782,4.6413,4.6413,4.5763,4.5648,4.5594,4.5594,4.5594,4.5594,4.5594,4.5594,4.5594,4.5594,4.5594,4.5594,4.5594,4.5594,4.5594,4.5686,4.6451,4.6793,4.7139,4.6553,4.6793,4.7101,4.7774,4.9317,5.0649,5.1159,5.1967,5.264,5.2928,5.4318,5.5318,5.5478,5.426,5.3433,5.3433,5.1875,5.0919,5.0919,5.063,4.9822,4.8394,4.8043,4.724,4.5859,4.5821,4.6567,4.8101,4.6725,4.6744,0.0,0.0,4.6812,4.6735,4.8279,4.8567,4.7793,4.6417,4.5821,4.5802,4.5667,4.5594,4.5594,4.5594,4.5594,4.5594,4.5594,4.5594,4.5594,4.5594,4.5594,4.5594,4.5594,4.5594,4.5594,4.5594,4.5594,4.5594,4.5594,4.5594,4.5594,4.5594,4.5594,4.5594,4.5594,4.5725,4.5782,4.5633,4.5821,4.5956,4.5648,4.5725,4.5782,4.5609,4.5725,4.6129,4.6985,4.7235,4.7913,4.9452,4.899,4.9125,5.0553,4.9764,4.9163,4.9163,4.9163,4.8567,4.7178,4.7601,4.7259,4.5879,4.5821,4.6109,4.6678,4.6105,4.6105,4.6658,4.5936,4.5594,4.5594,4.5594,4.5594,4.5594,4.5594,4.5594,4.5594,4.5594,4.5594,4.5594,4.5594,4.5594,4.5614,4.5763,4.6278,4.7139,4.745,4.7889,4.8452,4.9298,5.0856,5.2279,5.3121,5.3953,5.4357,5.3933,5.4587,5.5074,5.5074,5.4722,5.4337,5.3914,5.2722,5.1798,5.1356,5.0938,5.0322,4.949,4.8586,4.7721,4.6913,4.5609,4.597,4.8101,4.6417,4.6687,0.0,4.7908,4.7524,4.7543,4.7928,4.8101,4.7985,4.6302,4.5859,4.622,4.5782,4.5594,4.5594,4.5594,4.5594,4.5594,4.5594,4.5594,4.5594,4.5594,4.5594,4.5594,4.5594,4.5594,4.5594,4.5594,4.5594,4.5594,4.5594,4.5594,4.5594,4.5594,4.5594,4.5594,4.5594,4.5594,4.5594,4.5594,4.5594,4.5594,4.5594,4.5594,4.5594,4.5594,4.5594,4.5898,4.6774,4.6908,4.7351,4.8586,4.8759,4.9106,4.9938,5.0053,4.9899,4.9433,4.9394,4.8856,4.7582,4.7889,4.7548,4.6317,4.6278,4.6259,4.622,4.6259,4.6259,4.622,4.5802,4.5594,4.5594,4.5594,4.5594,4.5594,4.5594,4.5594,4.5594,4.5594,4.5594,4.5594,4.5594,4.5594,4.5594,4.5594,4.6144,4.7081,4.8621,4.9225,5.0014,5.1096,5.2492,5.3703,5.4395,5.5189,5.5478,5.4838,5.4761,5.4761,5.4761,5.4991,5.4914,5.428,5.328,5.2375,5.1697,5.1048,5.0611,5.0438,4.8933,4.8024,4.7851,4.5528,4.5374,4.7567,4.6244,4.6725,4.8856,4.8529,4.8274,4.8082,4.762,4.7485,4.749,4.636,4.6163,4.6567,4.5879,4.5594,4.5594,4.5594,4.5594,4.5594,4.5594,4.5594,4.5594,4.5594,4.5594,4.5594,4.5594,4.5594,4.5594,4.5594,4.5594,4.5594,4.5594,4.5594,4.5594,4.5594,4.5594,4.5594,4.5594,4.5594,4.5594,4.5594,4.5594,4.5594,4.5594,4.5594,4.5594,4.5594,4.5594,4.584,4.6528,4.662,4.6928,4.7755,4.8452,4.8933,4.9106,4.9745,4.9861,4.9183,4.9298,4.9029,4.8139,4.8101,4.7812,4.7178,4.6985,4.674,4.6417,4.6547,4.6374,4.5879,4.5686,4.5594,4.5594,4.5594,4.5594,4.5594,4.5594,4.5594,4.5594,4.5594,4.5594,4.5594,4.5594,4.5594,4.5614,4.5802,4.6413,4.7274,5.0306,5.0602,5.1115,5.2856,5.383,5.4414,5.4491,5.5189,5.567,5.5593,5.5593,5.5593,5.5593,5.4299,5.339,5.3332,5.1861,5.0899,5.0822,5.0745,5.0341,4.9553,4.8606,4.7755,4.7024,4.524,4.4801,4.5821,4.5691,4.6129,4.7178,4.8606,4.8856,4.812,4.8856,4.7937,4.5879,4.6509,4.6374,4.5706,4.5629,4.5594,4.5594,4.5594,4.5594,4.5594,4.5594,4.5594,4.5594,4.5594,4.5594,4.5594,4.5594,4.5594,4.5594,4.5594,4.5594,4.5594,4.5594,4.5594,4.5594,4.5594,4.5594,4.5594,4.5594,4.5594,4.5594,4.5594,4.5594,4.5594,4.5594,4.5594,4.5594,4.5594,4.5594,4.5633,4.5706,4.5725,4.6033,4.6908,4.7081,4.7428,4.8139,4.8298,4.8312,4.8235,4.8952,4.9029,4.8139,4.8101,4.8062,4.7985,4.7274,4.7582,4.9029,4.6821,4.609,4.6774,4.5975,4.5594,4.5594,4.5594,4.5594,4.5594,4.5594,4.5594,4.5594,4.5594,4.5594,4.5594,4.5594,4.5594,4.5706,4.649,4.7293,4.8101,5.1594,5.2045,5.2704,5.3968,5.4365,5.4664,5.5151,5.5497,5.5708,5.5708,5.5285,5.4972,5.4972,5.3914,5.2986,5.2467,5.1813,5.1221,5.0726,5.0707,5.0303,4.9433,4.8567,4.7716,4.6928,4.5182,4.497,4.6374,4.6374,4.7067,4.8394,4.8548,4.7894,4.661,4.6956,4.6552,4.5594,4.5413,4.5432,4.5594,4.5594,4.5594,4.5594,4.5594,4.5594,4.5594,4.5594,4.5594,4.5594,4.5594,4.5594,4.5594,4.5594,4.5594,4.5594,4.5594,4.5594,4.5594,4.5594,4.5594,4.5594,4.5594,4.5594,4.5594,4.5594,4.5594,4.5594,4.5594,4.5594,4.5594,4.5594,4.5594,4.5594,4.5594,4.5594,4.5594,4.5594,4.5594,4.5725,4.609,4.6581,4.7024,4.7351,4.7812,4.8101,4.8101,4.8413,4.8471,4.812,4.7639,4.7389,4.7389,4.6567,4.6436,4.711,4.6109,4.5763,4.6129,4.5763,4.5594,4.5594,4.5594,4.5594,4.5594,4.5594,4.5594,4.5594,4.5594,4.5594,4.5594,4.5594,4.5594,4.5706,4.6586,4.7408,4.8216,5.2969,5.345,5.4061,5.4905,5.4944,5.503,5.5612,5.5708,5.5612,5.5381,5.4626,5.4222,5.4472,5.3722,5.2851,5.1981,5.1678,5.1318,5.0745,5.0707,5.0303,4.9433,4.8567,4.7716,4.6928,4.5432,4.5163,4.6139,4.6658,4.737,4.8283,4.8163,4.7201,4.5614,4.5879,4.5706,4.5186,4.484,4.5032,4.5594,4.5594,4.5594,4.5594,4.5594,4.5594,4.5594,4.5594,4.5594,4.5594,4.5594,4.5594,4.5594,4.5594,4.5594,4.5594,4.5594,4.5594,4.5594,4.5594,4.5594,4.5594,4.5594,4.5594,4.5594,4.5594,4.5594,4.5594,4.5594,4.5594,4.5594,4.5594,4.5594,4.5594,4.5594,4.5594,4.5594,4.5594,4.5594,4.5594,4.5594,4.6144,4.6528,4.6528,4.7028,4.7471,4.7735,4.7509,4.749,4.7735,4.7216,4.7005,4.7255,4.6432,4.6109,4.6321,4.584,4.5594,4.5594,4.5594,4.5594,4.5594,4.5594,4.5594,4.5594,4.5594,4.5594,4.5594,4.5594,4.5594,4.5594,4.5594,4.5594,4.5725,4.6836,4.7601,4.8255,5.4526,5.477,5.4944,5.5745,5.5765,5.5689,5.5708,5.5708,5.542,5.4626,5.376,5.3549,5.4414,5.3722,5.2851,5.1981,5.1164,5.0707,5.0707,5.0707,5.0303,4.9433,4.8567,4.7716,4.6928,4.6033,4.5167,4.4335,4.6062,4.6471,4.5691,4.7336,4.7201,4.5633,4.6509,4.5928,4.4378,4.5225,4.5594,4.5594,4.5594,4.5594,4.5594,4.5594,4.5594,4.5594,4.5594,4.5594,4.5594,4.5594,4.5594,4.5594,4.5594,4.5594,4.5594,4.5594,4.5594,4.5594,4.5594,4.5594,4.5594,4.5594,4.5594,4.5594,4.5594,4.5594,4.5594,4.5594,4.5594,4.5594,4.5594,4.5594,4.5594,4.5594,4.5594,4.5594,4.5594,4.5594,4.5594,4.5594,4.5614,4.5614,4.5614,4.5614,4.5994,4.6851,4.6129,4.6013,4.687,4.6908,4.7255,4.8062,4.7293,4.7274,4.8062,4.6436,4.5594,4.5594,4.5594,4.5594,4.5594,4.5594,4.5594,4.5594,4.5594,4.5594,4.5594,4.5594,4.5594,4.5594,4.5594,4.5594,4.5802,4.7471,4.8082,4.8355,5.4058,5.4991,5.5754,5.5885,5.5784,5.5708,5.5708,5.5228,5.478,5.453,5.3741,5.3082,5.2755,5.1991,5.138,5.1106,5.0842,5.0707,5.0707,5.0149,4.9413,4.8548,4.7716,4.6874,4.6033,4.5744,4.5455,4.5186,4.6336,4.6451,4.5614,4.6759,4.6355,4.4744,4.5629,4.5706,4.5205,4.5475,4.5594,4.5594,4.5594,4.5594,4.5594,4.5594,4.5594,4.5594,4.5594,4.5594,4.5594,4.5594,4.5594,4.5594,4.5594,4.5594,4.5594,4.5594,4.5594,4.5594,4.5594,4.5594,4.5594,4.5594,4.5594,4.5594,4.5594,4.5594,4.5594,4.5594,4.5594,4.5594,4.5594,4.5594,4.5594,4.5594,4.5594,4.5594,4.5594,4.5594,4.5594,4.5594,4.5594,4.5594,4.5594,4.5594,4.5956,4.6831,4.6639,4.6855,4.7678,4.6624,4.6394,4.7255,4.6451,4.6148,4.6398,4.5859,4.5594,4.5594,4.5594,4.5594,4.5594,4.5594,4.5594,4.5594,4.5594,4.5594,4.5594,4.5594,4.5594,4.5594,4.5594,4.5956,4.6624,4.7697,4.849,4.9144,5.4666,5.5504,5.6125,5.5868,5.5509,5.5247,5.5247,5.453,5.3895,5.3568,5.3044,5.239,5.1543,5.0996,5.0707,5.0707,5.0707,5.0553,5.0226,4.9707,4.8875,4.7697,4.7178,4.649,4.5614,4.5594,4.5594,4.5594,4.6144,4.6124,4.5614,4.6163,4.5836,4.4801,4.5359,4.5594,4.5594,4.5594,4.5594,4.5594,4.5594,4.5594,4.5594,4.5594,4.5594,4.5594,4.5594,4.5594,4.5594,4.5594,4.5594,4.5594,4.5594,4.5594,4.5594,4.5594,4.5594,4.5594,4.5594,4.5594,4.5594,4.5594,4.5594,4.5594,4.5594,4.5594,4.5594,4.5594,4.5594,4.5594,4.5594,4.5594,4.5594,4.5594,4.5594,4.5594,4.5594,4.5594,4.5594,4.5594,4.5594,4.5594,4.5594,4.5594,4.5821,4.6374,4.6413,4.6624,4.7124,4.6471,4.6182,4.6394,4.5879,4.5594,4.5594,4.5917,4.609,4.609,4.6398,4.6379,4.609,4.609,4.5917,4.5594,4.5594,4.5594,4.5594,4.5594,4.5594,4.5594,4.5594,4.6124,4.6966,4.7466,4.8202,4.899,5.5913,5.6075,5.6013,5.5744,5.503,5.4491,5.4491,5.3703,5.2813,5.2,5.1846,5.1524,5.0784,5.0707,5.0707,5.0707,5.0707,5.0322,4.9452,4.9336,4.8586,4.6966,4.6831,4.6432,4.5614,4.5594,4.5594,4.5594,4.5594,4.5594,4.5594,4.5594,4.5575,4.5518,4.5518,4.5475,4.5436,4.5498,4.5518,4.5518,4.5575,4.5594,4.5594,4.5594,4.5594,4.5594,4.5594,4.5594,4.5594,4.5594,4.5594,4.5594,4.5594,4.5594,4.5594,4.5594,4.5594,4.5594,4.5594,4.5594,4.5594,4.5594,4.5594,4.5594,4.5594,4.5594,4.5594,4.5594,4.5594,4.5594,4.5594,4.5594,4.5594,4.5594,4.5594,4.5594,4.5594,4.5594,4.5594,4.5594,4.5594,4.5594,4.5594,4.5594,4.5633,4.5686,4.5686,4.5686,4.5686,4.6509,4.6567,4.5633,4.5594,4.5633,4.5686,4.649,4.6928,4.6985,4.7735,4.7678,4.6908,4.6966,4.649,4.5594,4.5667,4.5686,4.5686,4.5686,4.5725,4.5763,4.5763,4.6317,4.7062,4.7005,4.7505,4.8197,5.4227,5.4741,5.5307,5.5648,5.503,5.4491,5.4491,5.3197,5.2135,5.1923,5.1375,5.0919,5.0726,5.0707,5.0707,5.0707,5.0707,5.0322,4.9452,4.8779,4.7966,4.6947,4.6259,4.5802,4.5594,4.5594,4.5594,4.5594,4.5594,4.5594,4.5594,4.5594,4.5244,4.4609,4.4609,4.4263,4.372,4.4359,4.4609,4.4667,4.5321,4.5594,4.5594,4.5594,4.5594,4.5594,4.5594,4.5594,4.5594,4.5594,4.5594,4.5594,4.5594,4.5594,4.5594,4.5594,4.5594,4.5594,4.5594,4.5594,4.5594,4.5594,4.5594,4.5594,4.5594,4.5594,4.5594,4.5594,4.5594,4.5594,4.5594,4.5594,4.5594,4.5594,4.5594,4.5594,4.5594,4.5594,4.5594,4.5594,4.5594,4.5594,4.5594,4.5594,4.5879,4.6547,4.6581,4.6581,4.6581,4.737,4.7144,4.5652,4.5594,4.5917,4.6586,4.6793,4.7216,4.7812,4.8005,4.7678,4.6928,4.7543,4.7009,4.5633,4.6297,4.6581,4.6581,4.6581,4.6951,4.7509,4.7509,4.8048,4.8721,4.8062,4.8355,4.9086,5.4246,5.4899,5.5544,5.5686,5.4703,5.3914,5.3914,5.2452,5.1356,5.1356,5.0976,5.0707,5.0707,5.0707,5.0707,5.0707,5.0707,5.0168,4.8894,4.8355,4.7567,4.6355,4.584,4.5594,4.5594,4.5594,4.5594,4.5594,4.5594,4.5594,4.5594,4.5594,4.534,4.4878,4.4474,4.4282,4.4244,4.4282,4.4532,4.4936,4.5417,4.5594,4.5594,4.5594,4.5594,4.5594,4.5594,4.5594,4.5594,4.5594,4.5594,4.5594,4.5594,4.5594,4.5594,4.5594,4.5594,4.5594,4.5594,4.5594,4.5594,4.5594,4.5594,4.5594,4.5594,4.5594,4.5594,4.5594,4.5594,4.5594,4.5594,4.5594,4.5594,4.5594,4.5594,4.5594,4.5594,4.5594,4.5594,4.5594,4.5594,4.5594,4.5594,4.5594,4.5802,4.6278,4.6317,4.649,4.6889,4.7312,4.712,4.622,4.6547,4.6971,4.7447,4.7832,4.8452,4.9298,4.9298,4.8856,4.8048,4.8082,4.7394,4.622,4.6697,4.6908,4.6928,4.7293,4.7716,4.8062,4.7697,4.8062,4.8663,4.7413,4.774,4.8759,5.4932,5.5508,5.5935,5.5744,5.4414,5.3351,5.3217,5.1875,5.0842,5.0726,5.0707,5.0707,5.0707,5.0707,5.0707,5.0707,5.0707,4.9957,4.8216,4.8101,4.7355,4.5667,4.5594,4.5594,4.5594,4.5594,4.5594,4.5594,4.5594,4.5594,4.5594,4.5594,4.5537,4.5359,4.4628,4.4648,4.5186,4.4571,4.4724,4.5417,4.5556,4.5594,4.5594,4.5594,4.5594,4.5594,4.5594,4.5594,4.5594,4.5594,4.5594,4.5594,4.5594,4.5594,4.5594,4.5594,4.5594,4.5594,4.5594,4.5594,4.5594,4.5594,4.5594,4.5594,4.5594,4.5594,4.5594,4.5594,4.5594,4.5594,4.5594,4.5594,4.5594,4.5594,4.5594,4.5594,4.5594,4.5594,4.5594,4.5594,4.5725,4.5744,4.5614,4.5725,4.5802,4.5802,4.5802,4.6163,4.7043,4.7216,4.7274,4.7274,4.7812,4.8159,4.8293,4.9163,4.9976,5.0707,5.0707,5.0245,4.9375,4.8779,4.7985,4.7081,4.7216,4.7232,4.7233,4.7924,4.8275,4.8313,4.7501,4.7722,4.8298,4.661,4.6951,4.8197,5.4816,5.5016,5.523,5.5628,5.4914,5.4049,5.3313,5.2351,5.1467,5.0784,5.0707,5.0707,5.0707,5.0707,5.0707,5.0707,5.0707,4.9957,4.8216,4.8101,4.7355,4.5667,4.5594,4.5594,4.5594,4.5594,4.5594,4.5594,4.5594,4.5594,4.5594,4.5594,4.5205,4.4494,4.4359,4.3989,4.3528,4.4066,4.4378,4.4571,4.5302,4.5594,4.5594,4.5594,4.5594,4.5594,4.5594,4.5594,4.5594,4.5594,4.5594,4.5594,4.5594,4.5594,4.5594,4.5594,4.5594,4.5594,4.5594,4.5594,4.5594,4.5594,4.5594,4.5594,4.5594,4.5594,4.5594,4.5594,4.5594,4.5594,4.5594,4.5594,4.5594,4.5594,4.5594,4.5594,4.5594,4.5594,4.5594,4.5594,4.624,4.6413,4.5667,4.6278,4.6697,4.6697,4.6697,4.7043,4.787,4.8606,4.9009,4.9009,4.8413,4.8452,4.9183,5.0053,5.0572,5.0707,5.0707,5.0245,4.9413,5.0014,4.9413,4.7947,4.8682,4.8819,4.8505,4.8638,4.9127,4.9706,4.8835,4.9245,5.0091,4.8355,4.8336,4.9183,5.497,5.5322,5.563,5.5784,5.507,5.4203,5.3332,5.2467,5.1601,5.0803,5.0707,5.0707,5.0707,5.0707,5.0707,5.0707,5.0707,4.9957,4.8216,4.8101,4.7355,4.5667,4.5594,4.5594,4.5594,4.5594,4.5594,4.5594,4.5594,4.5594,4.5594,4.5594,4.5379,4.4975,4.4513,4.4359,4.4436,4.434,4.4571,4.5032,4.5436,4.5594,4.5594,4.5594,4.5594,4.5594,4.5594,4.5594,4.5594,4.5594,4.5594,4.5594,4.5594,4.5594,4.5594,4.5594,4.5594,4.5594,4.5594,4.5594,4.5594,4.5594,4.5594,4.5594,4.5594,4.5594,4.5725,4.6201,4.6297,4.6297,4.6297,4.6297,4.6297,4.6297,4.5917,4.5763,4.622,4.6297,4.6297,4.6297,4.7048,4.7389,4.699,4.7317,4.7543,4.7543,4.7543,4.7908,4.8759,4.9183,4.963,5.0091,4.9707,4.9687,5.0091,5.0495,5.0707,5.0707,5.0707,5.0495,5.0087,4.9801,4.9248,4.8485,4.8672,4.8643,4.8471,4.851,4.9157,4.9959,4.8649,4.8917,4.9861,4.8567,4.8644,4.9394,5.5348,5.5829,5.6143,5.5936,5.5287,5.4414,5.3351,5.2794,5.2063,5.0861,5.0861,5.0919,5.0726,5.0707,5.0707,5.0707,5.0515,4.9745,4.8197,4.7928,4.7163,4.5667,4.5594,4.5594,4.5594,4.5594,4.5594,4.5594,4.5594,4.5594,4.5594,4.5594,4.5594,4.5575,4.4898,4.4975,4.5556,4.4898,4.4994,4.5594,4.5594,4.5594,4.5594,4.5594,4.5594,4.5594,4.5594,4.5594,4.5594,4.5594,4.5594,4.5594,4.5594,4.5594,4.5594,4.5594,4.5594,4.5594,4.5594,4.5594,4.5594,4.5594,4.5594,4.5594,4.5594,4.5594,4.584,4.6716,4.6908,4.6966,4.7139,4.7178,4.712,4.6928,4.6509,4.636,4.6831,4.7062,4.7178,4.7178,4.7889,4.8312,4.812,4.8274,4.8394,4.8394,4.8394,4.8779,4.9668,4.9707,5.0014,5.0668,5.0707,5.0707,5.0707,5.0707,5.0707,5.0707,5.0707,5.0707,5.0664,4.9693,4.9198,4.909,4.8781,4.8537,4.837,4.8419,4.8994,4.9675,4.8288,4.8493,4.9465,4.8697,4.8952,4.9707,5.6013,5.6258,5.6143,5.5936,5.5745,5.5068,5.3453,5.3837,5.3433,5.1015,5.1356,5.1524,5.0784,5.0707,5.0707,5.0707,4.9957,4.9106,4.8159,4.7408,4.6567,4.5633,4.5594,4.5594,4.5594,4.5594,4.5594,4.5594,4.5594,4.5594,4.5594,4.5594,4.5594,4.5594,4.5532,4.5537,4.5594,4.5537,4.5537,4.5594,4.5594,4.5594,4.5594,4.5594,4.5594,4.5594,4.5594,4.5594,4.5594,4.5594,4.5594,4.5594,4.5594,4.5594,4.5594,4.5594,4.5594,4.5594,4.5594,4.5594,4.5594,4.5594,4.5594,4.5594,4.5594,4.5594,4.584,4.6716,4.6908,4.7139,4.787,4.8005,4.7774,4.7024,4.7466,4.7678,4.7005,4.7543,4.8005,4.8005,4.8779,4.899,4.8178,4.8836,4.9298,4.9298,4.9298,4.9687,5.0553,5.0592,5.063,5.0707,5.0707,5.0707,5.0707,5.0707,5.0707,5.0707,5.0707,5.0707,5.0707,5.0591,5.0366,4.9997,4.9973,4.9537,4.8853,4.8862,4.8916,4.8925,4.837,4.8933,4.9992,4.9498,4.9861,5.0592,5.5599,5.5989,5.6175,5.6094,5.587,5.5324,5.4184,5.3837,5.3145,5.1645,5.1279,5.1034,5.0726,5.0226,4.9899,4.9899,4.9106,4.824,4.7408,4.7062,4.6509,4.5633,4.5594,4.5594,4.5594,4.5594,4.5594,4.5594,4.5594,4.5594,4.5594,4.5594,4.5594,4.5594,4.5594,4.5594,4.5594,4.5594,4.5594,4.5594,4.5594,4.5594,4.5594,4.5594,4.5594,4.5594,4.5594,4.5594,4.5594,4.5594,4.5594,4.5594,4.5594,4.5594,4.5594,4.5594,4.5594,4.5594,4.5594,4.5594,4.5594,4.5594,4.5594,4.5594,4.5594,4.5594,4.5994,4.7351,4.7639,4.7889,4.8759,4.8913,4.8817,4.8509,4.8259,4.8178,4.8413,4.8702,4.8913,4.8913,4.9687,5.0072,4.9745,5.0014,5.0207,5.0207,5.0207,5.0341,5.0668,5.0707,5.0707,5.0707,5.0707,5.0707,5.0707,5.0707,5.0707,5.0707,5.0707,5.0707,5.0678,5.0183,4.9859,4.9706,4.9202,4.8813,4.8495,4.7996,4.823,4.8828,4.8143,4.8796,5.0091,4.9903,5.0195,5.0707,5.4844,5.5153,5.5374,5.5374,5.5113,5.4645,5.3818,5.3414,5.2794,5.1678,5.126,5.0976,5.0726,5.0168,4.9707,4.9413,4.8856,4.8043,4.6966,4.6639,4.622,4.5633,4.5594,4.5594,4.5594,4.5594,4.5594,4.5594,4.5594,4.5594,4.5594,4.5594,4.5594,4.5594,4.5594,4.5594,4.5594,4.5594,4.5594,4.5594,4.5594,4.5594,4.5594,4.5594,4.5594,4.5594,4.5594,4.5594,4.5594,4.5594,4.5594,4.5594,4.5594,4.5594,4.5594,4.5594,4.5594,4.5594,4.5594,4.5594,4.5594,4.5594,4.5594,4.5594,4.5594,4.5802,4.6413,4.7812,4.8317,4.8779,4.9649,4.9803,4.9726,4.9433,4.9125,4.9029,4.9356,4.9649,4.9803,4.9803,5.0341,5.0707,5.0707,5.0707,5.0707,5.0707,5.0707,5.0707,5.0707,5.0707,5.0707,5.0707,5.0707,5.0707,5.0707,5.0707,5.0707,5.0707,5.0707,5.0624,5.0488,4.9936,4.9547,4.928,4.8736,4.8411,4.826,4.7709,4.797,4.8681,4.8232,4.8818,4.993,5.0056,5.0353,5.0707,5.3828,5.3788,5.3604,5.3604,5.339,5.2909,5.2038,5.264,5.2587,5.0938,5.1395,5.1582,5.0784,5.0688,5.0341,4.9471,4.9394,4.8682,4.7005,4.609,4.5594,4.5594,4.5594,4.5594,4.5594,4.5594,4.5594,4.5594,4.5594,4.5594,4.5594,4.5594,4.5594,4.5594,4.5594,4.5594,4.5594,4.5594,4.5594,4.5594,4.5594,4.5594,4.5594,4.5594,4.5594,4.5594,4.5594,4.5594,4.5594,4.5594,4.5594,4.5594,4.5594,4.5594,4.5594,4.5594,4.5594,4.5594,4.5594,4.5594,4.5594,4.5594,4.5614,4.5614,4.5614,4.6278,4.7139,4.7947,4.8798,4.9668,5.0534,5.0707,5.0418,4.9553,5.0149,5.0399,4.9529,5.0149,5.0707,5.0707,5.0707,5.0707,5.0707,5.0707,5.0707,5.0707,5.0707,5.0707,5.0707,5.0707,5.0707,5.0707,5.0707,5.0707,5.0707,5.0707,5.0707,5.0707,5.0707,5.0488,5.0092,5.0086,4.9652,4.8905,4.8897,4.8666,4.8296,4.8296,4.8296,4.8335,4.8735,4.9139,4.954,4.9949,5.0347,5.0707,5.3047,5.3358,5.3604,5.3604,5.339,5.3101,5.2851,5.2505,5.212,5.1601,5.126,5.0976,5.0726,5.0149,4.9687,4.9413,4.8836,4.8043,4.6966,4.609,4.5594,4.5594,4.5594,4.5594,4.5594,4.5594,4.5594,4.5594,4.5594,4.5594,4.5594,4.5594,4.5594,4.5594,4.5594,4.5594,4.5594,4.5594,4.5594,4.5594,4.5594,4.5594,4.5594,4.5594,4.5594,4.5594,4.5594,4.5594,4.5594,4.5594,4.5594,4.5594,4.5594,4.5594,4.5594,4.5594,4.5594,4.5594,4.5594,4.5594,4.5594,4.5594,4.6071,4.6509,4.6509,4.7139,4.7985,4.8836,4.9221,4.9668,5.0534,5.0707,5.0611,5.0341,5.0534,5.0611,5.0341,5.0534,5.0707,5.0707,5.0707,5.0707,5.0707,5.0707,5.0707,5.0707,5.0707,5.0707,5.0707,5.0707,5.0707,5.0707,5.0707,5.0707,5.0707,5.0707,5.0707,5.0707,5.0416,5.0225,5.008,4.9525,4.9131,4.888,4.8604,4.8402,4.8296,4.8296,4.8296,4.8316,4.843,4.8907,4.9511,4.9624,5.0104,5.0707,5.2187,5.2421,5.2609,5.2609,5.2384,5.2202,5.2202,5.176,5.1433,5.1433,5.0996,5.0707,5.0707,5.0226,4.9784,4.9433,4.8317,4.7543,4.7389,4.6263,4.5594,4.5594,4.5594,4.5594,4.5594,4.5594,4.5594,4.5594,4.5594,4.5594,4.5594,4.5594,4.5594,4.5594,4.5594,4.5594,4.5594,4.5594,4.5594,4.5594,4.5594,4.5594,4.5594,4.5594,4.5594,4.5594,4.5594,4.5594,4.5594,4.5594,4.5594,4.5594,4.5594,4.5594,4.5594,4.5594,4.5594,4.5594,4.5594,4.584,4.6105,4.6105,4.624,4.6394,4.6394,4.7278,4.8255,4.8779,4.9433,5.0072,5.0592,5.0707,5.0707,5.0707,5.0707,5.0707,5.0707,5.0707,5.0707,5.0707,5.0707,5.0707,5.0707,5.0707,5.0707,5.0707,5.0707,5.0707,5.0707,5.0707,5.0707,5.0707,5.0707,5.0707,5.0707,5.0707,5.0707,5.0707,5.0442,5.0254,5.008,4.9596,4.9295,4.9108,4.8719,4.8541,4.8532,4.8364,4.8296,4.8296,4.8296,4.8779,4.9496,4.9496,5.0019,5.0707,5.1386,5.1227,5.1106,5.1076,5.0863,5.0707,5.0707,5.0707,5.0707,5.0707,5.0707,5.0707,5.0707,5.0707,5.0341,4.9471,4.787,4.7216,4.7947,4.6494,4.5594,4.5594,4.5594,4.5594,4.5594,4.5594,4.5594,4.5594,4.5594,4.5594,4.5594,4.5594,4.5594,4.5594,4.5594,4.5594,4.5594,4.5594,4.5594,4.5594,4.5594,4.5594,4.5594,4.5594,4.5594,4.5594,4.5594,4.5594,4.5594,4.5594,4.5594,4.5594,4.5594,4.5594,4.5594,4.5594,4.5594,4.5614,4.5706,4.6297,4.6928,4.6985,4.6413,4.584,4.5917,4.7182,4.8332,4.8332,4.961,5.0707,5.0707,5.0707,5.0707,5.0707,5.0707,5.0707,5.0707,5.0707,5.0707,5.0707,5.0707,5.0707,5.0707,5.0707,5.0707,5.0707,5.0707,5.0707,5.0707,5.0707,5.0707,5.0707,5.0707,5.0707,5.0707,5.0707,5.0707,5.0707,5.0663,5.0442,5.0092,5.0031,4.9793,4.9423,4.9011,4.8856,4.883,4.8458,4.8296,4.8296,4.8296,4.8779,4.9496,4.9496,5.0019,5.0707,5.1268,5.1169,5.1078,5.0953,5.0805,5.0707,5.0707,5.0707,5.0707,5.0707,5.0707,5.0707,5.0707,5.0707,5.0341,4.9471,4.787,4.6966,4.7158,4.6186,4.5594,4.5594,4.5594,4.5594,4.5594,4.5594,4.5594,4.5594,4.5594,4.5594,4.5594,4.5594,4.5594,4.5594,4.5594,4.5594,4.5594,4.5594,4.5594,4.5594,4.5594,4.5594,4.5594,4.5594,4.5594,4.5594,4.5594,4.5594,4.5594,4.5594,4.5594,4.5594,4.5594,4.5594,4.5594,4.5594,4.5594,4.5744,4.6432,4.6755,4.7043,4.7678,4.7702,4.774,4.8418,4.9399,5.0149,5.0149,5.0438,5.0707,5.0707,5.0707,5.0707,5.0707,5.0707,5.0707,5.0707,5.0707,5.0707,5.0707,5.0707,5.0707,5.0707,5.0707,5.0707,5.0707,5.0707,5.0707,5.0707,5.0707,5.0707,5.0707,5.0707,5.0707,5.0707,5.0707,5.0707,5.0707,5.0369,5.0183,5.0074,4.9453,4.9116,4.9013,4.8604,4.843,4.8421,4.8344,4.8296,4.8296,4.8296,4.8779,4.9496,4.9496,5.0019,5.0707,5.1318,5.1184,5.1088,5.1013,5.0823,5.0707,5.0707,5.0707,5.0707,5.0707,5.0341,5.0072,5.0072,4.9707,4.9279,4.8817,4.762,4.6908,4.6908,4.609,4.5594,4.5594,4.5594,4.5594,4.5594,4.5594,4.5594,4.5594,4.5594,4.5594,4.5594,4.5594,4.5594,4.5594,4.5594,4.5594,4.5594,4.5594,4.5594,4.5594,4.5594,4.5594,4.5594,4.5594,4.5594,4.5594,4.5594,4.5594,4.5594,4.5594,4.5594,4.5594,4.5594,4.5594,4.5594,4.5594,4.5594,4.5782,4.6658,4.7178,4.7678,4.8509,4.9029,4.924,4.8875,4.9452,5.0072,5.0072,5.0418,5.0707,5.0707,5.0707,5.0707,5.0707,5.0707,5.0707,5.0707,5.0707,5.0707,5.0707,5.0707,5.0707,5.0707,5.0707,5.0707,5.0707,5.0707,5.0707,5.0707,5.0707,5.0707,5.0707,5.0707,5.0707,5.0707,5.0707,5.0707,5.0707,5.0488,5.0296,5.008,4.9659,4.9378,4.9163,4.8753,4.8586,4.8568,4.8383,4.8296,4.8296,4.8296,4.8779,4.9496,4.9496,5.0019,5.0707,5.1363,5.1213,5.1096,5.1048,5.0847,5.0707,5.0707,5.0707,5.0707,5.0707,4.9938,4.9394,4.9394,4.8509,4.7889,4.7889,4.7139,4.6678,4.6678,4.5994,4.5594,4.5594,4.5594,4.5594,4.5594,4.5594,4.5594,4.5594,4.5594,4.5594,4.5594,4.5594,4.5594,4.5594,4.5594,4.5594,4.5594,4.5594,4.5594,4.5594,4.5594,4.5594,4.5594,4.5594,4.5594,4.5594,4.5594,4.5594,4.5594,4.5594,4.5594,4.5594,4.5594,4.5594,4.5594,4.5594,4.5706,4.6013,4.687,4.7697,4.8529,4.9394,5.0168,5.0322,4.8875,4.9106,4.963,4.963,5.0207,5.0707,5.0707,5.0707,5.0707,5.0707,5.0707,5.0707,5.0707,5.0707,5.0707,5.0707,5.0707,5.0707,5.0707,5.0707,5.0707,5.0707,5.0707,5.0707,5.0707,5.0707,5.0707,5.0707,5.0707,5.0707,5.0707,5.0707,5.0707,5.0707,5.0707,5.0534,5.0195,5.0135,4.9891,4.9475,4.9067,4.8854,4.877,4.8439,4.8335,4.8393,4.8393,4.8856,4.9504,4.9587,5.0012,5.0609,5.1177,5.1115,5.1033,5.078,5.0716,5.0707,5.0707,5.0707,5.0707,5.0707,4.9938,4.9394,4.9394,4.8009,4.7062,4.7062,4.6278,4.5782,4.5782,4.5667,4.5594,4.5594,4.5594,4.5594,4.5594,4.5594,4.5594,4.5594,4.5594,4.5594,4.5594,4.5594,4.5594,4.5594,4.5594,4.5594,4.5594,4.5594,4.5594,4.5594,4.5594,4.5594,4.5594,4.5594,4.5594,4.5594,4.5594,4.5594,4.5594,4.5594,4.5594,4.5594,4.5594,4.5594,4.5594,4.5594,4.6124,4.6908,4.7716,4.8567,4.9433,5.0303,5.0611,5.063,5.0399,5.0438,5.0515,5.0515,5.0611,5.0707,5.0707,5.0707,5.0707,5.0707,5.0707,5.0707,5.0707,5.0707,5.0707,5.0707,5.0707,5.0707,5.0707,5.0707,5.0707,5.0707,5.0707,5.0707,5.0707,5.0707,5.0707,5.0707,5.0707,5.0707,5.0707,5.0707,5.0707,5.0707,5.0707,5.0673,5.0609,5.026,4.9891,4.9475,4.9067,4.8692,4.8383,4.8325,4.8504,4.883,4.883,4.9092,4.9532,4.9898,5.008,5.0237,5.1164,5.1064,5.0959,5.0823,5.0743,5.0707,5.0707,5.0707,5.0707,5.0707,4.9938,4.9202,4.8721,4.7182,4.6163,4.6163,4.5821,4.5594,4.5594,4.5594,4.5594,4.5594,4.5594,4.5594,4.5594,4.5594,4.5594,4.5594,4.5594,4.5594,4.5594,4.5594,4.5594,4.5594,4.5594,4.5594,4.5594,4.5594,4.5594,4.5594,4.5594,4.5594,4.5594,4.5594,4.5594,4.5594,4.5594,4.5594,4.5594,4.5594,4.5594,4.5594,4.5594,4.5594,4.5706,4.6182,4.6601,4.7178,4.849,4.9106,4.961,5.0476,5.0707,5.0707,5.0707,5.0707,5.0707,5.0707,5.0707,5.0707,5.0707,5.0707,5.0707,5.0707,5.0707,5.0707,5.0707,5.0707,5.0707,5.0707,5.0707,5.0707,5.0707,5.0707,5.0707,5.0707,5.0707,5.0707,5.0707,5.0707,5.0604,5.0364,5.0575,5.0599,5.0358,5.0594,5.0707,5.0707,5.0707,5.057,5.0347,4.9949,4.9547,4.9139,4.8745,4.8449,4.8325,4.8532,4.8735,4.893,4.9147,4.9482,4.9872,5.0296,5.0451,5.0467]}]]